﻿<?xml version="1.0" encoding="utf-8"?><gpx creator="Garmin Desktop App" version="1.1" xsi:schemaLocation="http://www.topografix.com/GPX/1/1 http://www.topografix.com/GPX/1/1/gpx.xsd http://www.garmin.com/xmlschemas/WaypointExtension/v1 http://www8.garmin.com/xmlschemas/WaypointExtensionv1.xsd http://www.garmin.com/xmlschemas/TrackPointExtension/v1 http://www.garmin.com/xmlschemas/TrackPointExtensionv1.xsd http://www.garmin.com/xmlschemas/GpxExtensions/v3 http://www8.garmin.com/xmlschemas/GpxExtensionsv3.xsd http://www.garmin.com/xmlschemas/ActivityExtension/v1 http://www8.garmin.com/xmlschemas/ActivityExtensionv1.xsd http://www.garmin.com/xmlschemas/AdventuresExtensions/v1 http://www8.garmin.com/xmlschemas/AdventuresExtensionv1.xsd http://www.garmin.com/xmlschemas/PressureExtension/v1 http://www.garmin.com/xmlschemas/PressureExtensionv1.xsd http://www.garmin.com/xmlschemas/TripExtensions/v1 http://www.garmin.com/xmlschemas/TripExtensionsv1.xsd http://www.garmin.com/xmlschemas/TripMetaDataExtensions/v1 http://www.garmin.com/xmlschemas/TripMetaDataExtensionsv1.xsd http://www.garmin.com/xmlschemas/ViaPointTransportationModeExtensions/v1 http://www.garmin.com/xmlschemas/ViaPointTransportationModeExtensionsv1.xsd http://www.garmin.com/xmlschemas/CreationTimeExtension/v1 http://www.garmin.com/xmlschemas/CreationTimeExtensionsv1.xsd http://www.garmin.com/xmlschemas/AccelerationExtension/v1 http://www.garmin.com/xmlschemas/AccelerationExtensionv1.xsd http://www.garmin.com/xmlschemas/PowerExtension/v1 http://www.garmin.com/xmlschemas/PowerExtensionv1.xsd http://www.garmin.com/xmlschemas/VideoExtension/v1 http://www.garmin.com/xmlschemas/VideoExtensionv1.xsd" xmlns="http://www.topografix.com/GPX/1/1" xmlns:xsi="http://www.w3.org/2001/XMLSchema-instance" xmlns:wptx1="http://www.garmin.com/xmlschemas/WaypointExtension/v1" xmlns:gpxtrx="http://www.garmin.com/xmlschemas/GpxExtensions/v3" xmlns:gpxtpx="http://www.garmin.com/xmlschemas/TrackPointExtension/v1" xmlns:gpxx="http://www.garmin.com/xmlschemas/GpxExtensions/v3" xmlns:trp="http://www.garmin.com/xmlschemas/TripExtensions/v1" xmlns:adv="http://www.garmin.com/xmlschemas/AdventuresExtensions/v1" xmlns:prs="http://www.garmin.com/xmlschemas/PressureExtension/v1" xmlns:tmd="http://www.garmin.com/xmlschemas/TripMetaDataExtensions/v1" xmlns:vptm="http://www.garmin.com/xmlschemas/ViaPointTransportationModeExtensions/v1" xmlns:ctx="http://www.garmin.com/xmlschemas/CreationTimeExtension/v1" xmlns:gpxacc="http://www.garmin.com/xmlschemas/AccelerationExtension/v1" xmlns:gpxpx="http://www.garmin.com/xmlschemas/PowerExtension/v1" xmlns:vidx1="http://www.garmin.com/xmlschemas/VideoExtension/v1">

  <metadata>
    <link href="http://www.garmin.com">
      <text>Garmin International</text>
    </link>
    <time>2020-01-21T07:24:27Z</time>
    <bounds maxlat="46.43742011860013" maxlon="8.436144646257162" minlat="46.41961544752121" minlon="8.416825281456113" />
  </metadata>

  <trk>
    <name>riale lago kastel</name>
    <extensions>
      <gpxx:TrackExtension>
        <gpxx:DisplayColor>Yellow</gpxx:DisplayColor>
      </gpxx:TrackExtension>
    </extensions>
    <trkseg>
      <trkpt lat="46.420049127191305" lon="8.416862245649099">
        <ele>1731.47</ele>
        <time>2012-03-01T08:23:44Z</time>
      </trkpt>
      <trkpt lat="46.420050635933876" lon="8.416863586753607">
        <ele>1732.4300000000001</ele>
        <time>2012-03-01T08:24:14Z</time>
      </trkpt>
      <trkpt lat="46.420067651197314" lon="8.416859982535243">
        <ele>1732.4300000000001</ele>
        <time>2012-03-01T08:24:27Z</time>
      </trkpt>
      <trkpt lat="46.420070165768266" lon="8.416870292276144">
        <ele>1732.4300000000001</ele>
        <time>2012-03-01T08:24:38Z</time>
      </trkpt>
      <trkpt lat="46.420120121911168" lon="8.416856545954943">
        <ele>1732.4300000000001</ele>
        <time>2012-03-01T08:24:45Z</time>
      </trkpt>
      <trkpt lat="46.420159516856074" lon="8.416878925636411">
        <ele>1731.95</ele>
        <time>2012-03-01T08:24:49Z</time>
      </trkpt>
      <trkpt lat="46.420211484655738" lon="8.417030554264784">
        <ele>1732.4300000000001</ele>
        <time>2012-03-01T08:25:01Z</time>
      </trkpt>
      <trkpt lat="46.420248281210661" lon="8.417042121291161">
        <ele>1732.4300000000001</ele>
        <time>2012-03-01T08:25:04Z</time>
      </trkpt>
      <trkpt lat="46.420309385284781" lon="8.417018568143249">
        <ele>1731.47</ele>
        <time>2012-03-01T08:25:13Z</time>
      </trkpt>
      <trkpt lat="46.420319359749556" lon="8.417026530951262">
        <ele>1731.47</ele>
        <time>2012-03-01T08:25:28Z</time>
      </trkpt>
      <trkpt lat="46.420312654227018" lon="8.417030638083816">
        <ele>1731.47</ele>
        <time>2012-03-01T08:25:43Z</time>
      </trkpt>
      <trkpt lat="46.420328244566917" lon="8.417029464617372">
        <ele>1731.95</ele>
        <time>2012-03-01T08:26:08Z</time>
      </trkpt>
      <trkpt lat="46.420395215973258" lon="8.417031727731228">
        <ele>1731.47</ele>
        <time>2012-03-01T08:26:15Z</time>
      </trkpt>
      <trkpt lat="46.420520944520831" lon="8.416977915912867">
        <ele>1731.95</ele>
        <time>2012-03-01T08:26:28Z</time>
      </trkpt>
      <trkpt lat="46.42059906385839" lon="8.416987303644419">
        <ele>1732.4300000000001</ele>
        <time>2012-03-01T08:26:35Z</time>
      </trkpt>
      <trkpt lat="46.420662431046367" lon="8.417007336392999">
        <ele>1732.4300000000001</ele>
        <time>2012-03-01T08:26:41Z</time>
      </trkpt>
      <trkpt lat="46.420747172087431" lon="8.41704748570919">
        <ele>1731.47</ele>
        <time>2012-03-01T08:26:49Z</time>
      </trkpt>
      <trkpt lat="46.420839289203286" lon="8.417104901745915">
        <ele>1731.95</ele>
        <time>2012-03-01T08:26:58Z</time>
      </trkpt>
      <trkpt lat="46.420870050787926" lon="8.417127532884479">
        <ele>1731.95</ele>
        <time>2012-03-01T08:27:01Z</time>
      </trkpt>
      <trkpt lat="46.420916821807623" lon="8.417203556746244">
        <ele>1732.4300000000001</ele>
        <time>2012-03-01T08:27:08Z</time>
      </trkpt>
      <trkpt lat="46.420934591442347" lon="8.417278239503503">
        <ele>1732.9100000000001</ele>
        <time>2012-03-01T08:27:13Z</time>
      </trkpt>
      <trkpt lat="46.421006927266717" lon="8.417422492057085">
        <ele>1733.3900000000001</ele>
        <time>2012-03-01T08:27:25Z</time>
      </trkpt>
      <trkpt lat="46.4210285525769" lon="8.417468089610338">
        <ele>1733.3900000000001</ele>
        <time>2012-03-01T08:27:29Z</time>
      </trkpt>
      <trkpt lat="46.421049423515797" lon="8.417496336624026">
        <ele>1733.8800000000001</ele>
        <time>2012-03-01T08:27:32Z</time>
      </trkpt>
      <trkpt lat="46.42113802023232" lon="8.417596919462085">
        <ele>1733.8800000000001</ele>
        <time>2012-03-01T08:27:43Z</time>
      </trkpt>
      <trkpt lat="46.421182444319129" lon="8.417662214487791">
        <ele>1733.8800000000001</ele>
        <time>2012-03-01T08:27:50Z</time>
      </trkpt>
      <trkpt lat="46.421182276681066" lon="8.417702866718173">
        <ele>1734.3599999999999</ele>
        <time>2012-03-01T08:27:53Z</time>
      </trkpt>
      <trkpt lat="46.421166602522135" lon="8.417752487584949">
        <ele>1733.8800000000001</ele>
        <time>2012-03-01T08:28:06Z</time>
      </trkpt>
      <trkpt lat="46.421168362721801" lon="8.417756846174598">
        <ele>1734.3599999999999</ele>
        <time>2012-03-01T08:28:07Z</time>
      </trkpt>
      <trkpt lat="46.421168195083737" lon="8.417817950248718">
        <ele>1733.8800000000001</ele>
        <time>2012-03-01T08:28:12Z</time>
      </trkpt>
      <trkpt lat="46.421182444319129" lon="8.417903026565909">
        <ele>1733.8800000000001</ele>
        <time>2012-03-01T08:28:18Z</time>
      </trkpt>
      <trkpt lat="46.42120935022831" lon="8.418037388473749">
        <ele>1734.3599999999999</ele>
        <time>2012-03-01T08:28:28Z</time>
      </trkpt>
      <trkpt lat="46.421209517866373" lon="8.418063037097454">
        <ele>1735.3199999999999</ele>
        <time>2012-03-01T08:28:30Z</time>
      </trkpt>
      <trkpt lat="46.421227287501097" lon="8.418204858899117">
        <ele>1735.8</ele>
        <time>2012-03-01T08:28:40Z</time>
      </trkpt>
      <trkpt lat="46.42122938297689" lon="8.418339723721147">
        <ele>1735.8</ele>
        <time>2012-03-01T08:28:50Z</time>
      </trkpt>
      <trkpt lat="46.421233071014285" lon="8.41842639259994">
        <ele>1736.28</ele>
        <time>2012-03-01T08:28:57Z</time>
      </trkpt>
      <trkpt lat="46.421227287501097" lon="8.418475678190589">
        <ele>1736.76</ele>
        <time>2012-03-01T08:29:01Z</time>
      </trkpt>
      <trkpt lat="46.421220581978559" lon="8.418523957952857">
        <ele>1737.24</ele>
        <time>2012-03-01T08:29:04Z</time>
      </trkpt>
      <trkpt lat="46.421211948618293" lon="8.418587408959866">
        <ele>1737.72</ele>
        <time>2012-03-01T08:29:17Z</time>
      </trkpt>
      <trkpt lat="46.421216642484069" lon="8.418578021228313">
        <ele>1737.72</ele>
        <time>2012-03-01T08:29:33Z</time>
      </trkpt>
      <trkpt lat="46.421215804293752" lon="8.418586738407612">
        <ele>1737.72</ele>
        <time>2012-03-01T08:29:51Z</time>
      </trkpt>
      <trkpt lat="46.421222928911448" lon="8.418611465021968">
        <ele>1737.72</ele>
        <time>2012-03-01T08:30:02Z</time>
      </trkpt>
      <trkpt lat="46.421230640262365" lon="8.418722525238991">
        <ele>1739.1600000000001</ele>
        <time>2012-03-01T08:30:12Z</time>
      </trkpt>
      <trkpt lat="46.421237345784903" lon="8.418765775859356">
        <ele>1739.6400000000001</ele>
        <time>2012-03-01T08:30:16Z</time>
      </trkpt>
      <trkpt lat="46.421248326078057" lon="8.418809864670038">
        <ele>1741.0799999999999</ele>
        <time>2012-03-01T08:30:20Z</time>
      </trkpt>
      <trkpt lat="46.421258551999927" lon="8.418936934322119">
        <ele>1743.01</ele>
        <time>2012-03-01T08:30:32Z</time>
      </trkpt>
      <trkpt lat="46.421273471787572" lon="8.419067272916436">
        <ele>1744.45</ele>
        <time>2012-03-01T08:30:43Z</time>
      </trkpt>
      <trkpt lat="46.421279842033982" lon="8.41909920796752">
        <ele>1744.45</ele>
        <time>2012-03-01T08:30:46Z</time>
      </trkpt>
      <trkpt lat="46.421268945559859" lon="8.419155869632959">
        <ele>1745.4100000000001</ele>
        <time>2012-03-01T08:30:51Z</time>
      </trkpt>
      <trkpt lat="46.421299623325467" lon="8.419285118579865">
        <ele>1747.3299999999999</ele>
        <time>2012-03-01T08:31:04Z</time>
      </trkpt>
      <trkpt lat="46.421314207836986" lon="8.419384947046638">
        <ele>1748.78</ele>
        <time>2012-03-01T08:31:16Z</time>
      </trkpt>
      <trkpt lat="46.421332228928804" lon="8.419436076655984">
        <ele>1749.26</ele>
        <time>2012-03-01T08:31:30Z</time>
      </trkpt>
      <trkpt lat="46.421355195343494" lon="8.41949550434947">
        <ele>1750.22</ele>
        <time>2012-03-01T08:31:42Z</time>
      </trkpt>
      <trkpt lat="46.42137698829174" lon="8.419585945084691">
        <ele>1751.1800000000001</ele>
        <time>2012-03-01T08:31:50Z</time>
      </trkpt>
      <trkpt lat="46.421390734612942" lon="8.419712260365486">
        <ele>1753.0999999999999</ele>
        <time>2012-03-01T08:32:02Z</time>
      </trkpt>
      <trkpt lat="46.421380089595914" lon="8.419741094112396">
        <ele>1753.0999999999999</ele>
        <time>2012-03-01T08:32:05Z</time>
      </trkpt>
      <trkpt lat="46.421366678550839" lon="8.419775627553463">
        <ele>1753.5799999999999</ele>
        <time>2012-03-01T08:32:11Z</time>
      </trkpt>
      <trkpt lat="46.421325104311109" lon="8.419892136007547">
        <ele>1754.54</ele>
        <time>2012-03-01T08:32:22Z</time>
      </trkpt>
      <trkpt lat="46.421277495101094" lon="8.419959945604205">
        <ele>1755.5</ele>
        <time>2012-03-01T08:32:31Z</time>
      </trkpt>
      <trkpt lat="46.421256121248007" lon="8.419998250901699">
        <ele>1755.99</ele>
        <time>2012-03-01T08:32:35Z</time>
      </trkpt>
      <trkpt lat="46.421182779595256" lon="8.420123141258955">
        <ele>1757.4300000000001</ele>
        <time>2012-03-01T08:32:47Z</time>
      </trkpt>
      <trkpt lat="46.421118909493089" lon="8.420264041051269">
        <ele>1758.3900000000001</ele>
        <time>2012-03-01T08:33:01Z</time>
      </trkpt>
      <trkpt lat="46.421027798205614" lon="8.420383483171463">
        <ele>1759.3499999999999</ele>
        <time>2012-03-01T08:33:15Z</time>
      </trkpt>
      <trkpt lat="46.421009693294764" lon="8.420398905873299">
        <ele>1759.3499999999999</ele>
        <time>2012-03-01T08:33:17Z</time>
      </trkpt>
      <trkpt lat="46.420976668596268" lon="8.420523377135396">
        <ele>1761.75</ele>
        <time>2012-03-01T08:33:29Z</time>
      </trkpt>
      <trkpt lat="46.420957138761878" lon="8.420596718788147">
        <ele>1762.71</ele>
        <time>2012-03-01T08:33:44Z</time>
      </trkpt>
      <trkpt lat="46.420931657776237" lon="8.420687830075622">
        <ele>1764.6400000000001</ele>
        <time>2012-03-01T08:33:56Z</time>
      </trkpt>
      <trkpt lat="46.420912882313132" lon="8.420801656320691">
        <ele>1766.0799999999999</ele>
        <time>2012-03-01T08:34:08Z</time>
      </trkpt>
      <trkpt lat="46.42091422341764" lon="8.420900646597147">
        <ele>1768.48</ele>
        <time>2012-03-01T08:34:20Z</time>
      </trkpt>
      <trkpt lat="46.420957138761878" lon="8.420967450365424">
        <ele>1769.4400000000001</ele>
        <time>2012-03-01T08:34:31Z</time>
      </trkpt>
      <trkpt lat="46.421010866761208" lon="8.421027213335037">
        <ele>1771.3699999999999</ele>
        <time>2012-03-01T08:34:41Z</time>
      </trkpt>
      <trkpt lat="46.421057805418968" lon="8.421104745939374">
        <ele>1773.29</ele>
        <time>2012-03-01T08:34:54Z</time>
      </trkpt>
      <trkpt lat="46.421122597530484" lon="8.42113777063787">
        <ele>1775.6900000000001</ele>
        <time>2012-03-01T08:35:07Z</time>
      </trkpt>
      <trkpt lat="46.421158723533154" lon="8.421209268271923">
        <ele>1777.1300000000001</ele>
        <time>2012-03-01T08:35:18Z</time>
      </trkpt>
      <trkpt lat="46.421158472076058" lon="8.421273725107312">
        <ele>1779.0599999999999</ele>
        <time>2012-03-01T08:35:29Z</time>
      </trkpt>
      <trkpt lat="46.421139445155859" lon="8.421326195821166">
        <ele>1780.98</ele>
        <time>2012-03-01T08:35:41Z</time>
      </trkpt>
      <trkpt lat="46.421102061867714" lon="8.421401381492615">
        <ele>1783.3800000000001</ele>
        <time>2012-03-01T08:35:53Z</time>
      </trkpt>
      <trkpt lat="46.421096781268716" lon="8.421494672074914">
        <ele>1785.3099999999999</ele>
        <time>2012-03-01T08:36:04Z</time>
      </trkpt>
      <trkpt lat="46.421095188707113" lon="8.421522499993444">
        <ele>1786.27</ele>
        <time>2012-03-01T08:36:08Z</time>
      </trkpt>
      <trkpt lat="46.421112706884742" lon="8.421573797240853">
        <ele>1786.75</ele>
        <time>2012-03-01T08:36:13Z</time>
      </trkpt>
      <trkpt lat="46.421131985262036" lon="8.421622579917312">
        <ele>1788.1900000000001</ele>
        <time>2012-03-01T08:36:24Z</time>
      </trkpt>
      <trkpt lat="46.421138104051352" lon="8.421649318188429">
        <ele>1790.1099999999999</ele>
        <time>2012-03-01T08:36:32Z</time>
      </trkpt>
      <trkpt lat="46.421185377985239" lon="8.421677816659212">
        <ele>1792.52</ele>
        <time>2012-03-01T08:36:44Z</time>
      </trkpt>
      <trkpt lat="46.421218402683735" lon="8.421711679548025">
        <ele>1793.48</ele>
        <time>2012-03-01T08:36:55Z</time>
      </trkpt>
      <trkpt lat="46.421251595020294" lon="8.421720983460546">
        <ele>1794.9200000000001</ele>
        <time>2012-03-01T08:37:00Z</time>
      </trkpt>
      <trkpt lat="46.421288726851344" lon="8.421764988452196">
        <ele>1796.8399999999999</ele>
        <time>2012-03-01T08:37:11Z</time>
      </trkpt>
      <trkpt lat="46.421296270564198" lon="8.421852830797434">
        <ele>1799.24</ele>
        <time>2012-03-01T08:37:24Z</time>
      </trkpt>
      <trkpt lat="46.421311441808939" lon="8.421851992607117">
        <ele>1799.73</ele>
        <time>2012-03-01T08:37:35Z</time>
      </trkpt>
      <trkpt lat="46.421308256685734" lon="8.421850567683578">
        <ele>1799.73</ele>
        <time>2012-03-01T08:37:37Z</time>
      </trkpt>
      <trkpt lat="46.421321164816618" lon="8.421859452500939">
        <ele>1799.73</ele>
        <time>2012-03-01T08:37:40Z</time>
      </trkpt>
      <trkpt lat="46.42134421505034" lon="8.421868085861206">
        <ele>1800.21</ele>
        <time>2012-03-01T08:37:45Z</time>
      </trkpt>
      <trkpt lat="46.421353183686733" lon="8.421889711171389">
        <ele>1800.6900000000001</ele>
        <time>2012-03-01T08:37:48Z</time>
      </trkpt>
      <trkpt lat="46.421378161758184" lon="8.421904463320971">
        <ele>1801.6500000000001</ele>
        <time>2012-03-01T08:37:52Z</time>
      </trkpt>
      <trkpt lat="46.421404480934143" lon="8.421920808032155">
        <ele>1802.1300000000001</ele>
        <time>2012-03-01T08:37:56Z</time>
      </trkpt>
      <trkpt lat="46.421417808160186" lon="8.421945702284575">
        <ele>1804.05</ele>
        <time>2012-03-01T08:38:07Z</time>
      </trkpt>
      <trkpt lat="46.421468267217278" lon="8.421944109722972">
        <ele>1806.9400000000001</ele>
        <time>2012-03-01T08:38:18Z</time>
      </trkpt>
      <trkpt lat="46.421507829800248" lon="8.421979229897261">
        <ele>1808.3800000000001</ele>
        <time>2012-03-01T08:38:29Z</time>
      </trkpt>
      <trkpt lat="46.421520570293069" lon="8.421993479132652">
        <ele>1809.8199999999999</ele>
        <time>2012-03-01T08:38:33Z</time>
      </trkpt>
      <trkpt lat="46.421546889469028" lon="8.422005297616124">
        <ele>1810.78</ele>
        <time>2012-03-01T08:38:41Z</time>
      </trkpt>
      <trkpt lat="46.421580836176872" lon="8.421976882964373">
        <ele>1811.26</ele>
        <time>2012-03-01T08:38:51Z</time>
      </trkpt>
      <trkpt lat="46.421596594154835" lon="8.421994317322969">
        <ele>1811.74</ele>
        <time>2012-03-01T08:39:03Z</time>
      </trkpt>
      <trkpt lat="46.421594498679042" lon="8.42199188657105">
        <ele>1811.74</ele>
        <time>2012-03-01T08:39:04Z</time>
      </trkpt>
      <trkpt lat="46.421643197536469" lon="8.422008901834488">
        <ele>1813.6600000000001</ele>
        <time>2012-03-01T08:39:13Z</time>
      </trkpt>
      <trkpt lat="46.421662224456668" lon="8.422019379213452">
        <ele>1815.1099999999999</ele>
        <time>2012-03-01T08:39:20Z</time>
      </trkpt>
      <trkpt lat="46.421671696007252" lon="8.422059277072549">
        <ele>1816.0699999999999</ele>
        <time>2012-03-01T08:39:24Z</time>
      </trkpt>
      <trkpt lat="46.421718802303076" lon="8.422085344791412">
        <ele>1817.03</ele>
        <time>2012-03-01T08:39:32Z</time>
      </trkpt>
      <trkpt lat="46.421756269410253" lon="8.422070425003767">
        <ele>1819.4300000000001</ele>
        <time>2012-03-01T08:39:42Z</time>
      </trkpt>
      <trkpt lat="46.421825839206576" lon="8.422076795250177">
        <ele>1821.8399999999999</ele>
        <time>2012-03-01T08:39:54Z</time>
      </trkpt>
      <trkpt lat="46.421839669346809" lon="8.422077214345336">
        <ele>1821.8399999999999</ele>
        <time>2012-03-01T08:39:56Z</time>
      </trkpt>
      <trkpt lat="46.421880405396223" lon="8.422067323699594">
        <ele>1824.24</ele>
        <time>2012-03-01T08:40:08Z</time>
      </trkpt>
      <trkpt lat="46.421892810612917" lon="8.422074532136321">
        <ele>1824.72</ele>
        <time>2012-03-01T08:40:12Z</time>
      </trkpt>
      <trkpt lat="46.421951567754149" lon="8.422074448317289">
        <ele>1826.6400000000001</ele>
        <time>2012-03-01T08:40:23Z</time>
      </trkpt>
      <trkpt lat="46.421980736777186" lon="8.422074196860194">
        <ele>1828.5599999999999</ele>
        <time>2012-03-01T08:40:32Z</time>
      </trkpt>
      <trkpt lat="46.422038991004229" lon="8.422091715037823">
        <ele>1830.49</ele>
        <time>2012-03-01T08:40:43Z</time>
      </trkpt>
      <trkpt lat="46.42207863740623" lon="8.42211258597672">
        <ele>1831.9300000000001</ele>
        <time>2012-03-01T08:40:52Z</time>
      </trkpt>
      <trkpt lat="46.422098251059651" lon="8.422132199630141">
        <ele>1832.4100000000001</ele>
        <time>2012-03-01T08:41:02Z</time>
      </trkpt>
      <trkpt lat="46.422124151140451" lon="8.422158770263195">
        <ele>1833.8499999999999</ele>
        <time>2012-03-01T08:41:17Z</time>
      </trkpt>
      <trkpt lat="46.422138148918748" lon="8.422166062518954">
        <ele>1834.3299999999999</ele>
        <time>2012-03-01T08:41:21Z</time>
      </trkpt>
      <trkpt lat="46.42217100597918" lon="8.422184083610773">
        <ele>1835.77</ele>
        <time>2012-03-01T08:41:28Z</time>
      </trkpt>
      <trkpt lat="46.422215681523085" lon="8.422227669507265">
        <ele>1837.22</ele>
        <time>2012-03-01T08:41:38Z</time>
      </trkpt>
      <trkpt lat="46.422243677079678" lon="8.42225968837738">
        <ele>1839.1400000000001</ele>
        <time>2012-03-01T08:41:48Z</time>
      </trkpt>
      <trkpt lat="46.422282988205552" lon="8.422307716682553">
        <ele>1841.0599999999999</ele>
        <time>2012-03-01T08:41:57Z</time>
      </trkpt>
      <trkpt lat="46.422296231612563" lon="8.422319199889898">
        <ele>1841.54</ele>
        <time>2012-03-01T08:42:01Z</time>
      </trkpt>
      <trkpt lat="46.422316934913397" lon="8.422333281487227">
        <ele>1842.02</ele>
        <time>2012-03-01T08:42:04Z</time>
      </trkpt>
      <trkpt lat="46.422324813902378" lon="8.422376364469528">
        <ele>1843.95</ele>
        <time>2012-03-01T08:42:13Z</time>
      </trkpt>
      <trkpt lat="46.422367310151458" lon="8.42237938195467">
        <ele>1845.8699999999999</ele>
        <time>2012-03-01T08:42:24Z</time>
      </trkpt>
      <trkpt lat="46.422399496659636" lon="8.422390529885888">
        <ele>1847.3099999999999</ele>
        <time>2012-03-01T08:42:33Z</time>
      </trkpt>
      <trkpt lat="46.42244023270905" lon="8.422406706959009">
        <ele>1849.23</ele>
        <time>2012-03-01T08:42:44Z</time>
      </trkpt>
      <trkpt lat="46.422474849969149" lon="8.422421207651496">
        <ele>1850.6800000000001</ele>
        <time>2012-03-01T08:42:53Z</time>
      </trkpt>
      <trkpt lat="46.422516005113721" lon="8.422451382502914">
        <ele>1852.5999999999999</ele>
        <time>2012-03-01T08:43:01Z</time>
      </trkpt>
      <trkpt lat="46.422565625980496" lon="8.422492789104581">
        <ele>1854.52</ele>
        <time>2012-03-01T08:43:13Z</time>
      </trkpt>
      <trkpt lat="46.42256923019886" lon="8.422506032511592">
        <ele>1855.96</ele>
        <time>2012-03-01T08:43:21Z</time>
      </trkpt>
      <trkpt lat="46.422596974298358" lon="8.422507205978036">
        <ele>1856.4400000000001</ele>
        <time>2012-03-01T08:43:24Z</time>
      </trkpt>
      <trkpt lat="46.422629663720727" lon="8.422536458820105">
        <ele>1858.3699999999999</ele>
        <time>2012-03-01T08:43:33Z</time>
      </trkpt>
      <trkpt lat="46.422648271545768" lon="8.42256068252027">
        <ele>1857.8900000000001</ele>
        <time>2012-03-01T08:43:42Z</time>
      </trkpt>
      <trkpt lat="46.422662856057286" lon="8.422576943412423">
        <ele>1858.3699999999999</ele>
        <time>2012-03-01T08:43:53Z</time>
      </trkpt>
      <trkpt lat="46.422666041180491" lon="8.422563029453158">
        <ele>1858.8499999999999</ele>
        <time>2012-03-01T08:44:02Z</time>
      </trkpt>
      <trkpt lat="46.422666208818555" lon="8.42255774885416">
        <ele>1858.8499999999999</ele>
        <time>2012-03-01T08:44:17Z</time>
      </trkpt>
      <trkpt lat="46.422665705904365" lon="8.422553893178701">
        <ele>1858.8499999999999</ele>
        <time>2012-03-01T08:44:38Z</time>
      </trkpt>
      <trkpt lat="46.422667633742094" lon="8.422556240111589">
        <ele>1858.8499999999999</ele>
        <time>2012-03-01T08:44:50Z</time>
      </trkpt>
      <trkpt lat="46.42268062569201" lon="8.422550540417433">
        <ele>1858.3699999999999</ele>
        <time>2012-03-01T08:45:08Z</time>
      </trkpt>
      <trkpt lat="46.422675680369139" lon="8.422546684741974">
        <ele>1858.8499999999999</ele>
        <time>2012-03-01T08:45:31Z</time>
      </trkpt>
      <trkpt lat="46.422708118334413" lon="8.422547355294228">
        <ele>1858.8499999999999</ele>
        <time>2012-03-01T08:45:45Z</time>
      </trkpt>
      <trkpt lat="46.422708788886666" lon="8.422537297010422">
        <ele>1859.3299999999999</ele>
        <time>2012-03-01T08:46:02Z</time>
      </trkpt>
      <trkpt lat="46.422714237123728" lon="8.422543751075864">
        <ele>1858.8499999999999</ele>
        <time>2012-03-01T08:46:20Z</time>
      </trkpt>
      <trkpt lat="46.422724714502692" lon="8.42254257760942">
        <ele>1859.3299999999999</ele>
        <time>2012-03-01T08:46:36Z</time>
      </trkpt>
      <trkpt lat="46.422733180224895" lon="8.422540733590722">
        <ele>1859.3299999999999</ele>
        <time>2012-03-01T08:47:00Z</time>
      </trkpt>
      <trkpt lat="46.422732509672642" lon="8.42253721319139">
        <ele>1859.8099999999999</ele>
        <time>2012-03-01T08:47:22Z</time>
      </trkpt>
      <trkpt lat="46.422731084749103" lon="8.422540985047817">
        <ele>1859.3299999999999</ele>
        <time>2012-03-01T08:47:39Z</time>
      </trkpt>
      <trkpt lat="46.422730330377817" lon="8.422539727762342">
        <ele>1859.3299999999999</ele>
        <time>2012-03-01T08:47:59Z</time>
      </trkpt>
      <trkpt lat="46.42274365760386" lon="8.4225435834378">
        <ele>1859.8099999999999</ele>
        <time>2012-03-01T08:48:18Z</time>
      </trkpt>
      <trkpt lat="46.422794787213206" lon="8.422521790489554">
        <ele>1860.29</ele>
        <time>2012-03-01T08:48:29Z</time>
      </trkpt>
      <trkpt lat="46.422810209915042" lon="8.422512989491224">
        <ele>1860.29</ele>
        <time>2012-03-01T08:48:32Z</time>
      </trkpt>
      <trkpt lat="46.422894783318043" lon="8.422485580667853">
        <ele>1861.25</ele>
        <time>2012-03-01T08:48:44Z</time>
      </trkpt>
      <trkpt lat="46.422900650650263" lon="8.422481724992394">
        <ele>1860.77</ele>
        <time>2012-03-01T08:48:45Z</time>
      </trkpt>
      <trkpt lat="46.42296108417213" lon="8.422459261491895">
        <ele>1862.21</ele>
        <time>2012-03-01T08:48:52Z</time>
      </trkpt>
      <trkpt lat="46.423059906810522" lon="8.422438725829125">
        <ele>1862.6900000000001</ele>
        <time>2012-03-01T08:49:04Z</time>
      </trkpt>
      <trkpt lat="46.423105420544744" lon="8.422421459108591">
        <ele>1863.1700000000001</ele>
        <time>2012-03-01T08:49:17Z</time>
      </trkpt>
      <trkpt lat="46.423145234584808" lon="8.422418357804418">
        <ele>1863.6500000000001</ele>
        <time>2012-03-01T08:49:29Z</time>
      </trkpt>
      <trkpt lat="46.423170296475291" lon="8.422452555969358">
        <ele>1865.0899999999999</ele>
        <time>2012-03-01T08:49:43Z</time>
      </trkpt>
      <trkpt lat="46.423229388892651" lon="8.422510894015431">
        <ele>1867.98</ele>
        <time>2012-03-01T08:49:52Z</time>
      </trkpt>
      <trkpt lat="46.423259479925036" lon="8.422519275918603">
        <ele>1869.4200000000001</ele>
        <time>2012-03-01T08:50:00Z</time>
      </trkpt>
      <trkpt lat="46.423323014751077" lon="8.42251910828054">
        <ele>1870.8599999999999</ele>
        <time>2012-03-01T08:50:10Z</time>
      </trkpt>
      <trkpt lat="46.42338378354907" lon="8.422526232898235">
        <ele>1872.79</ele>
        <time>2012-03-01T08:50:21Z</time>
      </trkpt>
      <trkpt lat="46.423436086624861" lon="8.422528160735965">
        <ele>1874.71</ele>
        <time>2012-03-01T08:50:31Z</time>
      </trkpt>
      <trkpt lat="46.423493502661586" lon="8.422500751912594">
        <ele>1876.6300000000001</ele>
        <time>2012-03-01T08:50:43Z</time>
      </trkpt>
      <trkpt lat="46.423520911484957" lon="8.422532938420773">
        <ele>1879.03</ele>
        <time>2012-03-01T08:50:55Z</time>
      </trkpt>
      <trkpt lat="46.42354161478579" lon="8.42254601418972">
        <ele>1879.51</ele>
        <time>2012-03-01T08:51:00Z</time>
      </trkpt>
      <trkpt lat="46.423568017780781" lon="8.422563280910254">
        <ele>1880.48</ele>
        <time>2012-03-01T08:51:04Z</time>
      </trkpt>
      <trkpt lat="46.42362610436976" lon="8.422598401084542">
        <ele>1881.9200000000001</ele>
        <time>2012-03-01T08:51:14Z</time>
      </trkpt>
      <trkpt lat="46.423639263957739" lon="8.422643076628447">
        <ele>1883.8399999999999</ele>
        <time>2012-03-01T08:51:24Z</time>
      </trkpt>
      <trkpt lat="46.423688298091292" lon="8.422692529857159">
        <ele>1886.24</ele>
        <time>2012-03-01T08:51:38Z</time>
      </trkpt>
      <trkpt lat="46.423708414658904" lon="8.422694373875856">
        <ele>1887.21</ele>
        <time>2012-03-01T08:51:44Z</time>
      </trkpt>
      <trkpt lat="46.423749318346381" lon="8.422705857083201">
        <ele>1887.6900000000001</ele>
        <time>2012-03-01T08:51:53Z</time>
      </trkpt>
      <trkpt lat="46.423742612823844" lon="8.422694290056825">
        <ele>1887.6900000000001</ele>
        <time>2012-03-01T08:52:08Z</time>
      </trkpt>
      <trkpt lat="46.423731883987784" lon="8.4226955473423">
        <ele>1887.6900000000001</ele>
        <time>2012-03-01T08:52:36Z</time>
      </trkpt>
      <trkpt lat="46.423732386901975" lon="8.422702671959996">
        <ele>1888.1700000000001</ele>
        <time>2012-03-01T08:52:51Z</time>
      </trkpt>
      <trkpt lat="46.423729872331023" lon="8.422693032771349">
        <ele>1887.6900000000001</ele>
        <time>2012-03-01T08:53:12Z</time>
      </trkpt>
      <trkpt lat="46.423727860674262" lon="8.422686159610748">
        <ele>1887.6900000000001</ele>
        <time>2012-03-01T08:53:31Z</time>
      </trkpt>
      <trkpt lat="46.423727693036199" lon="8.422686913982034">
        <ele>1887.6900000000001</ele>
        <time>2012-03-01T08:53:32Z</time>
      </trkpt>
      <trkpt lat="46.423770524561405" lon="8.422715663909912">
        <ele>1889.6099999999999</ele>
        <time>2012-03-01T08:53:41Z</time>
      </trkpt>
      <trkpt lat="46.423870101571083" lon="8.422717843204737">
        <ele>1891.05</ele>
        <time>2012-03-01T08:53:54Z</time>
      </trkpt>
      <trkpt lat="46.42387680709362" lon="8.422722453251481">
        <ele>1891.53</ele>
        <time>2012-03-01T08:53:55Z</time>
      </trkpt>
      <trkpt lat="46.423912346363068" lon="8.422762183472514">
        <ele>1893.45</ele>
        <time>2012-03-01T08:54:05Z</time>
      </trkpt>
      <trkpt lat="46.423953166231513" lon="8.422769475728273">
        <ele>1894.4200000000001</ele>
        <time>2012-03-01T08:54:11Z</time>
      </trkpt>
      <trkpt lat="46.424016952514648" lon="8.422755394130945">
        <ele>1895.8599999999999</ele>
        <time>2012-03-01T08:54:23Z</time>
      </trkpt>
      <trkpt lat="46.424056431278586" lon="8.422778863459826">
        <ele>1896.8199999999999</ele>
        <time>2012-03-01T08:54:35Z</time>
      </trkpt>
      <trkpt lat="46.424059113487601" lon="8.42276000417769">
        <ele>1897.3</ele>
        <time>2012-03-01T08:54:52Z</time>
      </trkpt>
      <trkpt lat="46.424058945849538" lon="8.422760339453816">
        <ele>1897.3</ele>
        <time>2012-03-01T08:54:53Z</time>
      </trkpt>
      <trkpt lat="46.424112338572741" lon="8.422787748277187">
        <ele>1897.78</ele>
        <time>2012-03-01T08:55:04Z</time>
      </trkpt>
      <trkpt lat="46.424131197854877" lon="8.422795375809073">
        <ele>1898.74</ele>
        <time>2012-03-01T08:55:07Z</time>
      </trkpt>
      <trkpt lat="46.424159947782755" lon="8.42284164391458">
        <ele>1901.1400000000001</ele>
        <time>2012-03-01T08:55:18Z</time>
      </trkpt>
      <trkpt lat="46.424185764044523" lon="8.422912806272507">
        <ele>1903.55</ele>
        <time>2012-03-01T08:55:29Z</time>
      </trkpt>
      <trkpt lat="46.424188781529665" lon="8.422958655282855">
        <ele>1904.51</ele>
        <time>2012-03-01T08:55:40Z</time>
      </trkpt>
      <trkpt lat="46.424224153161049" lon="8.422990841791034">
        <ele>1906.9100000000001</ele>
        <time>2012-03-01T08:55:51Z</time>
      </trkpt>
      <trkpt lat="46.424255417659879" lon="8.422999978065491">
        <ele>1907.3900000000001</ele>
        <time>2012-03-01T08:55:56Z</time>
      </trkpt>
      <trkpt lat="46.424306379631162" lon="8.423069296404719">
        <ele>1908.8299999999999</ele>
        <time>2012-03-01T08:56:06Z</time>
      </trkpt>
      <trkpt lat="46.424333369359374" lon="8.423087820410729">
        <ele>1909.3199999999999</ele>
        <time>2012-03-01T08:56:10Z</time>
      </trkpt>
      <trkpt lat="46.424374775961041" lon="8.423102656379342">
        <ele>1911.24</ele>
        <time>2012-03-01T08:56:24Z</time>
      </trkpt>
      <trkpt lat="46.424380475655198" lon="8.423131909221411">
        <ele>1912.2</ele>
        <time>2012-03-01T08:56:27Z</time>
      </trkpt>
      <trkpt lat="46.424437053501606" lon="8.423159904778004">
        <ele>1914.5999999999999</ele>
        <time>2012-03-01T08:56:37Z</time>
      </trkpt>
      <trkpt lat="46.424456164240837" lon="8.423164431005716">
        <ele>1916.53</ele>
        <time>2012-03-01T08:56:49Z</time>
      </trkpt>
      <trkpt lat="46.424501845613122" lon="8.423200054094195">
        <ele>1918.45</ele>
        <time>2012-03-01T08:57:02Z</time>
      </trkpt>
      <trkpt lat="46.42452665604651" lon="8.423225954174995">
        <ele>1920.8499999999999</ele>
        <time>2012-03-01T08:57:14Z</time>
      </trkpt>
      <trkpt lat="46.42456722445786" lon="8.423270378261805">
        <ele>1922.29</ele>
        <time>2012-03-01T08:57:24Z</time>
      </trkpt>
      <trkpt lat="46.424609888345003" lon="8.423294015228748">
        <ele>1924.7</ele>
        <time>2012-03-01T08:57:38Z</time>
      </trkpt>
      <trkpt lat="46.424661688506603" lon="8.423339445143938">
        <ele>1926.6199999999999</ele>
        <time>2012-03-01T08:57:49Z</time>
      </trkpt>
      <trkpt lat="46.424698401242495" lon="8.4233966935426">
        <ele>1928.54</ele>
        <time>2012-03-01T08:58:00Z</time>
      </trkpt>
      <trkpt lat="46.424707202240825" lon="8.423413373529911">
        <ele>1929.98</ele>
        <time>2012-03-01T08:58:07Z</time>
      </trkpt>
      <trkpt lat="46.424730336293578" lon="8.423467352986336">
        <ele>1931.9100000000001</ele>
        <time>2012-03-01T08:58:16Z</time>
      </trkpt>
      <trkpt lat="46.424746010452509" lon="8.423494677990675">
        <ele>1933.8299999999999</ele>
        <time>2012-03-01T08:58:27Z</time>
      </trkpt>
      <trkpt lat="46.424747267737985" lon="8.423493755981326">
        <ele>1933.3499999999999</ele>
        <time>2012-03-01T08:58:29Z</time>
      </trkpt>
      <trkpt lat="46.424767049029469" lon="8.423490151762962">
        <ele>1933.3499999999999</ele>
        <time>2012-03-01T08:58:40Z</time>
      </trkpt>
      <trkpt lat="46.424792530015111" lon="8.423473723232746">
        <ele>1933.8299999999999</ele>
        <time>2012-03-01T08:58:53Z</time>
      </trkpt>
      <trkpt lat="46.424819435924292" lon="8.42346852645278">
        <ele>1933.8299999999999</ele>
        <time>2012-03-01T08:59:03Z</time>
      </trkpt>
      <trkpt lat="46.424820274114609" lon="8.423462156206369">
        <ele>1933.8299999999999</ele>
        <time>2012-03-01T08:59:29Z</time>
      </trkpt>
      <trkpt lat="46.424815999343991" lon="8.423464167863131">
        <ele>1933.3499999999999</ele>
        <time>2012-03-01T08:59:41Z</time>
      </trkpt>
      <trkpt lat="46.424821866676211" lon="8.423454444855452">
        <ele>1933.8299999999999</ele>
        <time>2012-03-01T08:59:57Z</time>
      </trkpt>
      <trkpt lat="46.42482521943748" lon="8.423448745161295">
        <ele>1933.8299999999999</ele>
        <time>2012-03-01T09:00:20Z</time>
      </trkpt>
      <trkpt lat="46.424825638532639" lon="8.423437429592013">
        <ele>1934.3099999999999</ele>
        <time>2012-03-01T09:00:35Z</time>
      </trkpt>
      <trkpt lat="46.424820525571704" lon="8.423440279439092">
        <ele>1933.8299999999999</ele>
        <time>2012-03-01T09:00:53Z</time>
      </trkpt>
      <trkpt lat="46.424842569977045" lon="8.423451343551278">
        <ele>1933.8299999999999</ele>
        <time>2012-03-01T09:01:03Z</time>
      </trkpt>
      <trkpt lat="46.424851873889565" lon="8.423458049073815">
        <ele>1933.8299999999999</ele>
        <time>2012-03-01T09:01:17Z</time>
      </trkpt>
      <trkpt lat="46.42486235126853" lon="8.423479087650776">
        <ele>1935.75</ele>
        <time>2012-03-01T09:01:26Z</time>
      </trkpt>
      <trkpt lat="46.424869643524289" lon="8.423494342714548">
        <ele>1937.1900000000001</ele>
        <time>2012-03-01T09:01:35Z</time>
      </trkpt>
      <trkpt lat="46.424912391230464" lon="8.423573886975646">
        <ele>1939.1199999999999</ele>
        <time>2012-03-01T09:01:46Z</time>
      </trkpt>
      <trkpt lat="46.424922868609428" lon="8.423581011593342">
        <ele>1939.1199999999999</ele>
        <time>2012-03-01T09:02:06Z</time>
      </trkpt>
      <trkpt lat="46.424927730113268" lon="8.423571540042758">
        <ele>1938.6400000000001</ele>
        <time>2012-03-01T09:02:22Z</time>
      </trkpt>
      <trkpt lat="46.424927897751331" lon="8.423579167574644">
        <ele>1939.1199999999999</ele>
        <time>2012-03-01T09:02:35Z</time>
      </trkpt>
      <trkpt lat="46.424965197220445" lon="8.423641109839082">
        <ele>1940.5599999999999</ele>
        <time>2012-03-01T09:02:45Z</time>
      </trkpt>
      <trkpt lat="46.424996629357338" lon="8.423659633845091">
        <ele>1942</ele>
        <time>2012-03-01T09:02:54Z</time>
      </trkpt>
      <trkpt lat="46.42501775175333" lon="8.423702968284488">
        <ele>1943.9200000000001</ele>
        <time>2012-03-01T09:03:06Z</time>
      </trkpt>
      <trkpt lat="46.425035521388054" lon="8.423743117600679">
        <ele>1945.3599999999999</ele>
        <time>2012-03-01T09:03:14Z</time>
      </trkpt>
      <trkpt lat="46.425051866099238" lon="8.42378469184041">
        <ele>1946.8099999999999</ele>
        <time>2012-03-01T09:03:23Z</time>
      </trkpt>
      <trkpt lat="46.425071395933628" lon="8.423810927197337">
        <ele>1947.29</ele>
        <time>2012-03-01T09:03:26Z</time>
      </trkpt>
      <trkpt lat="46.425101151689887" lon="8.423849148675799">
        <ele>1947.77</ele>
        <time>2012-03-01T09:03:30Z</time>
      </trkpt>
      <trkpt lat="46.425117496401072" lon="8.423896254971623">
        <ele>1949.21</ele>
        <time>2012-03-01T09:03:40Z</time>
      </trkpt>
      <trkpt lat="46.425123028457165" lon="8.423894075676799">
        <ele>1949.6900000000001</ele>
        <time>2012-03-01T09:03:42Z</time>
      </trkpt>
      <trkpt lat="46.425146581605077" lon="8.423940679058433">
        <ele>1951.1300000000001</ele>
        <time>2012-03-01T09:03:52Z</time>
      </trkpt>
      <trkpt lat="46.425167368724942" lon="8.4239561855793">
        <ele>1952.0899999999999</ele>
        <time>2012-03-01T09:03:56Z</time>
      </trkpt>
      <trkpt lat="46.425198297947645" lon="8.424001866951585">
        <ele>1954.02</ele>
        <time>2012-03-01T09:04:05Z</time>
      </trkpt>
      <trkpt lat="46.425203075632453" lon="8.424014104530215">
        <ele>1954.5</ele>
        <time>2012-03-01T09:04:09Z</time>
      </trkpt>
      <trkpt lat="46.425231071189046" lon="8.424038831144571">
        <ele>1955.9400000000001</ele>
        <time>2012-03-01T09:04:18Z</time>
      </trkpt>
      <trkpt lat="46.425254791975021" lon="8.424085518345237">
        <ele>1956.9000000000001</ele>
        <time>2012-03-01T09:04:25Z</time>
      </trkpt>
      <trkpt lat="46.425259318202734" lon="8.424101695418358">
        <ele>1957.3800000000001</ele>
        <time>2012-03-01T09:04:39Z</time>
      </trkpt>
      <trkpt lat="46.425266275182366" lon="8.424132540822029">
        <ele>1958.8199999999999</ele>
        <time>2012-03-01T09:04:52Z</time>
      </trkpt>
      <trkpt lat="46.425267113372684" lon="8.424131367355585">
        <ele>1959.3</ele>
        <time>2012-03-01T09:04:53Z</time>
      </trkpt>
      <trkpt lat="46.425301814451814" lon="8.424158859997988">
        <ele>1960.27</ele>
        <time>2012-03-01T09:05:01Z</time>
      </trkpt>
      <trkpt lat="46.425317488610744" lon="8.4241858497262">
        <ele>1961.71</ele>
        <time>2012-03-01T09:05:07Z</time>
      </trkpt>
      <trkpt lat="46.425325451418757" lon="8.424224825575948">
        <ele>1962.6700000000001</ele>
        <time>2012-03-01T09:05:11Z</time>
      </trkpt>
      <trkpt lat="46.425335509702563" lon="8.424250558018684">
        <ele>1963.1500000000001</ele>
        <time>2012-03-01T09:05:14Z</time>
      </trkpt>
      <trkpt lat="46.425350597128272" lon="8.424271596595645">
        <ele>1964.1099999999999</ele>
        <time>2012-03-01T09:05:20Z</time>
      </trkpt>
      <trkpt lat="46.425385717302561" lon="8.424293976277113">
        <ele>1965.55</ele>
        <time>2012-03-01T09:05:28Z</time>
      </trkpt>
      <trkpt lat="46.425404073670506" lon="8.424302861094475">
        <ele>1966.03</ele>
        <time>2012-03-01T09:05:32Z</time>
      </trkpt>
      <trkpt lat="46.425434583798051" lon="8.424310404807329">
        <ele>1967.96</ele>
        <time>2012-03-01T09:05:43Z</time>
      </trkpt>
      <trkpt lat="46.425432236865163" lon="8.424319876357913">
        <ele>1967.96</ele>
        <time>2012-03-01T09:06:03Z</time>
      </trkpt>
      <trkpt lat="46.425458639860153" lon="8.42432557605207">
        <ele>1968.9200000000001</ele>
        <time>2012-03-01T09:06:10Z</time>
      </trkpt>
      <trkpt lat="46.425517313182354" lon="8.424347871914506">
        <ele>1971.3199999999999</ele>
        <time>2012-03-01T09:06:19Z</time>
      </trkpt>
      <trkpt lat="46.425578501075506" lon="8.424355247989297">
        <ele>1973.72</ele>
        <time>2012-03-01T09:06:30Z</time>
      </trkpt>
      <trkpt lat="46.425621919333935" lon="8.424368239939213">
        <ele>1974.6900000000001</ele>
        <time>2012-03-01T09:06:34Z</time>
      </trkpt>
      <trkpt lat="46.425665505230427" lon="8.424386512488127">
        <ele>1976.1300000000001</ele>
        <time>2012-03-01T09:06:45Z</time>
      </trkpt>
      <trkpt lat="46.42569056712091" lon="8.424385003745556">
        <ele>1977.0899999999999</ele>
        <time>2012-03-01T09:06:50Z</time>
      </trkpt>
      <trkpt lat="46.425736835226417" lon="8.424402102828026">
        <ele>1978.53</ele>
        <time>2012-03-01T09:07:02Z</time>
      </trkpt>
      <trkpt lat="46.425740690901875" lon="8.424405371770263">
        <ele>1978.53</ele>
        <time>2012-03-01T09:07:03Z</time>
      </trkpt>
      <trkpt lat="46.425782181322575" lon="8.424387183040381">
        <ele>1979.49</ele>
        <time>2012-03-01T09:07:07Z</time>
      </trkpt>
      <trkpt lat="46.425813362002373" lon="8.424399336799979">
        <ele>1979.97</ele>
        <time>2012-03-01T09:07:10Z</time>
      </trkpt>
      <trkpt lat="46.425894079729915" lon="8.424403527751565">
        <ele>1981.9000000000001</ele>
        <time>2012-03-01T09:07:24Z</time>
      </trkpt>
      <trkpt lat="46.425927104428411" lon="8.42437838204205">
        <ele>1983.8199999999999</ele>
        <time>2012-03-01T09:07:34Z</time>
      </trkpt>
      <trkpt lat="46.425961721688509" lon="8.424411909654737">
        <ele>1983.8199999999999</ele>
        <time>2012-03-01T09:07:39Z</time>
      </trkpt>
      <trkpt lat="46.425966499373317" lon="8.424464464187622">
        <ele>1986.22</ele>
        <time>2012-03-01T09:07:50Z</time>
      </trkpt>
      <trkpt lat="46.42599206417799" lon="8.424495980143547">
        <ele>1988.1400000000001</ele>
        <time>2012-03-01T09:08:01Z</time>
      </trkpt>
      <trkpt lat="46.426017293706536" lon="8.424506122246385">
        <ele>1990.55</ele>
        <time>2012-03-01T09:08:14Z</time>
      </trkpt>
      <trkpt lat="46.42606976442039" lon="8.424484496936202">
        <ele>1991.99</ele>
        <time>2012-03-01T09:08:23Z</time>
      </trkpt>
      <trkpt lat="46.426091641187668" lon="8.424508636817336">
        <ele>1992.47</ele>
        <time>2012-03-01T09:08:35Z</time>
      </trkpt>
      <trkpt lat="46.426094826310873" lon="8.424499416723847">
        <ele>1992.95</ele>
        <time>2012-03-01T09:08:51Z</time>
      </trkpt>
      <trkpt lat="46.426094323396683" lon="8.42449271120131">
        <ele>1992.95</ele>
        <time>2012-03-01T09:09:13Z</time>
      </trkpt>
      <trkpt lat="46.426101112738252" lon="8.424516012892127">
        <ele>1992.47</ele>
        <time>2012-03-01T09:09:34Z</time>
      </trkpt>
      <trkpt lat="46.426112176850438" lon="8.424528669565916">
        <ele>1992.95</ele>
        <time>2012-03-01T09:09:43Z</time>
      </trkpt>
      <trkpt lat="46.426102956756949" lon="8.42454744502902">
        <ele>1992.95</ele>
        <time>2012-03-01T09:10:04Z</time>
      </trkpt>
      <trkpt lat="46.426108404994011" lon="8.424569573253393">
        <ele>1992.95</ele>
        <time>2012-03-01T09:10:24Z</time>
      </trkpt>
      <trkpt lat="46.426107734441757" lon="8.424551635980606">
        <ele>1992.47</ele>
        <time>2012-03-01T09:10:36Z</time>
      </trkpt>
      <trkpt lat="46.426104633137584" lon="8.424548115581274">
        <ele>1993.4300000000001</ele>
        <time>2012-03-01T09:10:52Z</time>
      </trkpt>
      <trkpt lat="46.42609030008316" lon="8.424526490271092">
        <ele>1992.95</ele>
        <time>2012-03-01T09:11:07Z</time>
      </trkpt>
      <trkpt lat="46.426132041960955" lon="8.424549121409655">
        <ele>1992.47</ele>
        <time>2012-03-01T09:11:25Z</time>
      </trkpt>
      <trkpt lat="46.426083007827401" lon="8.424564376473427">
        <ele>1993.4300000000001</ele>
        <time>2012-03-01T09:11:38Z</time>
      </trkpt>
      <trkpt lat="46.426085270941257" lon="8.4245674777776">
        <ele>1993.4300000000001</ele>
        <time>2012-03-01T09:11:54Z</time>
      </trkpt>
      <trkpt lat="46.426087031140924" lon="8.424563789740205">
        <ele>1992.95</ele>
        <time>2012-03-01T09:12:17Z</time>
      </trkpt>
      <trkpt lat="46.426092647016048" lon="8.424567896872759">
        <ele>1992.95</ele>
        <time>2012-03-01T09:12:37Z</time>
      </trkpt>
      <trkpt lat="46.426096754148602" lon="8.424573177471757">
        <ele>1992.95</ele>
        <time>2012-03-01T09:12:55Z</time>
      </trkpt>
      <trkpt lat="46.426078146323562" lon="8.42458164319396">
        <ele>1993.4300000000001</ele>
        <time>2012-03-01T09:13:11Z</time>
      </trkpt>
      <trkpt lat="46.426092898473144" lon="8.424567645415664">
        <ele>1993.4300000000001</ele>
        <time>2012-03-01T09:13:18Z</time>
      </trkpt>
      <trkpt lat="46.426153080537915" lon="8.424552641808987">
        <ele>1993.4300000000001</ele>
        <time>2012-03-01T09:13:29Z</time>
      </trkpt>
      <trkpt lat="46.426156684756279" lon="8.424567393958569">
        <ele>1993.9100000000001</ele>
        <time>2012-03-01T09:13:31Z</time>
      </trkpt>
      <trkpt lat="46.426184680312872" lon="8.424580553546548">
        <ele>1995.3499999999999</ele>
        <time>2012-03-01T09:13:36Z</time>
      </trkpt>
      <trkpt lat="46.426203204318881" lon="8.424595138058066">
        <ele>1995.8299999999999</ele>
        <time>2012-03-01T09:13:40Z</time>
      </trkpt>
      <trkpt lat="46.426220806315541" lon="8.42460704036057">
        <ele>1997.28</ele>
        <time>2012-03-01T09:13:44Z</time>
      </trkpt>
      <trkpt lat="46.426271768286824" lon="8.424626318737865">
        <ele>1999.6800000000001</ele>
        <time>2012-03-01T09:13:55Z</time>
      </trkpt>
      <trkpt lat="46.426317114382982" lon="8.424631599336863">
        <ele>2000.6400000000001</ele>
        <time>2012-03-01T09:14:04Z</time>
      </trkpt>
      <trkpt lat="46.426350306719542" lon="8.424658086150885">
        <ele>2002.5599999999999</ele>
        <time>2012-03-01T09:14:14Z</time>
      </trkpt>
      <trkpt lat="46.426375703886151" lon="8.42467250302434">
        <ele>2004.97</ele>
        <time>2012-03-01T09:14:26Z</time>
      </trkpt>
      <trkpt lat="46.426418032497168" lon="8.424710808321834">
        <ele>2006.4100000000001</ele>
        <time>2012-03-01T09:14:36Z</time>
      </trkpt>
      <trkpt lat="46.426465976983309" lon="8.424729583784938">
        <ele>2007.8499999999999</ele>
        <time>2012-03-01T09:14:46Z</time>
      </trkpt>
      <trkpt lat="46.426492966711521" lon="8.424755400046706">
        <ele>2008.8099999999999</ele>
        <time>2012-03-01T09:14:54Z</time>
      </trkpt>
      <trkpt lat="46.426516603678465" lon="8.424789598211646">
        <ele>2010.73</ele>
        <time>2012-03-01T09:15:04Z</time>
      </trkpt>
      <trkpt lat="46.426563877612352" lon="8.424800410866737">
        <ele>2012.6600000000001</ele>
        <time>2012-03-01T09:15:14Z</time>
      </trkpt>
      <trkpt lat="46.426584077998996" lon="8.42480837367475">
        <ele>2014.5799999999999</ele>
        <time>2012-03-01T09:15:22Z</time>
      </trkpt>
      <trkpt lat="46.426646104082465" lon="8.424828909337521">
        <ele>2016.98</ele>
        <time>2012-03-01T09:15:36Z</time>
      </trkpt>
      <trkpt lat="46.426654821261764" lon="8.424856318160892">
        <ele>2018.9100000000001</ele>
        <time>2012-03-01T09:15:44Z</time>
      </trkpt>
      <trkpt lat="46.426662029698491" lon="8.424874087795615">
        <ele>2018.9100000000001</ele>
        <time>2012-03-01T09:15:46Z</time>
      </trkpt>
      <trkpt lat="46.426686756312847" lon="8.424909543246031">
        <ele>2021.79</ele>
        <time>2012-03-01T09:15:56Z</time>
      </trkpt>
      <trkpt lat="46.426710058003664" lon="8.424941645935178">
        <ele>2023.71</ele>
        <time>2012-03-01T09:16:06Z</time>
      </trkpt>
      <trkpt lat="46.426740819588304" lon="8.424935191869736">
        <ele>2025.1500000000001</ele>
        <time>2012-03-01T09:16:14Z</time>
      </trkpt>
      <trkpt lat="46.426739310845733" lon="8.424946842715144">
        <ele>2026.1199999999999</ele>
        <time>2012-03-01T09:16:17Z</time>
      </trkpt>
      <trkpt lat="46.426733694970608" lon="8.424959583207965">
        <ele>2025.6400000000001</ele>
        <time>2012-03-01T09:16:19Z</time>
      </trkpt>
      <trkpt lat="46.426733946427703" lon="8.424997385591269">
        <ele>2026.5999999999999</ele>
        <time>2012-03-01T09:16:22Z</time>
      </trkpt>
      <trkpt lat="46.426755068823695" lon="8.425065614283085">
        <ele>2028.52</ele>
        <time>2012-03-01T09:16:31Z</time>
      </trkpt>
      <trkpt lat="46.426780633628368" lon="8.425064692273736">
        <ele>2029.96</ele>
        <time>2012-03-01T09:16:40Z</time>
      </trkpt>
      <trkpt lat="46.426865290850401" lon="8.424945836886764">
        <ele>2030.4400000000001</ele>
        <time>2012-03-01T09:16:54Z</time>
      </trkpt>
      <trkpt lat="46.426956066861749" lon="8.424895210191608">
        <ele>2032.3599999999999</ele>
        <time>2012-03-01T09:17:08Z</time>
      </trkpt>
      <trkpt lat="46.426972327753901" lon="8.424885235726833">
        <ele>2032.8399999999999</ele>
        <time>2012-03-01T09:17:10Z</time>
      </trkpt>
      <trkpt lat="46.427045250311494" lon="8.424819689244032">
        <ele>2034.29</ele>
        <time>2012-03-01T09:17:22Z</time>
      </trkpt>
      <trkpt lat="46.42710174433887" lon="8.424735954031348">
        <ele>2036.21</ele>
        <time>2012-03-01T09:17:35Z</time>
      </trkpt>
      <trkpt lat="46.42715304158628" lon="8.424668731167913">
        <ele>2037.1700000000001</ele>
        <time>2012-03-01T09:17:46Z</time>
      </trkpt>
      <trkpt lat="46.427185898646712" lon="8.424600921571255">
        <ele>2038.6099999999999</ele>
        <time>2012-03-01T09:17:54Z</time>
      </trkpt>
      <trkpt lat="46.42721313983202" lon="8.424572004005313">
        <ele>2039.5699999999999</ele>
        <time>2012-03-01T09:18:07Z</time>
      </trkpt>
      <trkpt lat="46.427202327176929" lon="8.424555994570255">
        <ele>2039.5699999999999</ele>
        <time>2012-03-01T09:18:25Z</time>
      </trkpt>
      <trkpt lat="46.427211044356227" lon="8.424542499706149">
        <ele>2039.5699999999999</ele>
        <time>2012-03-01T09:18:47Z</time>
      </trkpt>
      <trkpt lat="46.427215151488781" lon="8.424531938508153">
        <ele>2040.05</ele>
        <time>2012-03-01T09:19:07Z</time>
      </trkpt>
      <trkpt lat="46.427213810384274" lon="8.424533614888787">
        <ele>2039.0899999999999</ele>
        <time>2012-03-01T09:19:19Z</time>
      </trkpt>
      <trkpt lat="46.42720484174788" lon="8.424530262127519">
        <ele>2039.0899999999999</ele>
        <time>2012-03-01T09:19:35Z</time>
      </trkpt>
      <trkpt lat="46.427211631089449" lon="8.424515342339873">
        <ele>2039.5699999999999</ele>
        <time>2012-03-01T09:19:44Z</time>
      </trkpt>
      <trkpt lat="46.42723417840898" lon="8.424513833597302">
        <ele>2039.0899999999999</ele>
        <time>2012-03-01T09:19:46Z</time>
      </trkpt>
      <trkpt lat="46.42725127749145" lon="8.42449564486742">
        <ele>2039.0899999999999</ele>
        <time>2012-03-01T09:19:48Z</time>
      </trkpt>
      <trkpt lat="46.427331324666739" lon="8.424453819170594">
        <ele>2038.6099999999999</ele>
        <time>2012-03-01T09:19:56Z</time>
      </trkpt>
      <trkpt lat="46.427394859492779" lon="8.424409814178944">
        <ele>2038.6099999999999</ele>
        <time>2012-03-01T09:20:03Z</time>
      </trkpt>
      <trkpt lat="46.427501561120152" lon="8.424337645992637">
        <ele>2041.5</ele>
        <time>2012-03-01T09:20:16Z</time>
      </trkpt>
      <trkpt lat="46.427575824782252" lon="8.424307722598314">
        <ele>2043.9000000000001</ele>
        <time>2012-03-01T09:20:28Z</time>
      </trkpt>
      <trkpt lat="46.427644556388259" lon="8.424307052046061">
        <ele>2046.3</ele>
        <time>2012-03-01T09:20:40Z</time>
      </trkpt>
      <trkpt lat="46.427701553329825" lon="8.424321301281452">
        <ele>2048.23</ele>
        <time>2012-03-01T09:20:50Z</time>
      </trkpt>
      <trkpt lat="46.427769362926483" lon="8.424345692619681">
        <ele>2050.6300000000001</ele>
        <time>2012-03-01T09:21:02Z</time>
      </trkpt>
      <trkpt lat="46.427833735942841" lon="8.424318535253406">
        <ele>2053.0300000000002</ele>
        <time>2012-03-01T09:21:17Z</time>
      </trkpt>
      <trkpt lat="46.42789090052247" lon="8.424319624900818">
        <ele>2054.96</ele>
        <time>2012-03-01T09:21:26Z</time>
      </trkpt>
      <trkpt lat="46.427955273538828" lon="8.424337394535542">
        <ele>2055.9200000000001</ele>
        <time>2012-03-01T09:21:35Z</time>
      </trkpt>
      <trkpt lat="46.428005062043667" lon="8.424297077581286">
        <ele>2057.8400000000001</ele>
        <time>2012-03-01T09:21:46Z</time>
      </trkpt>
      <trkpt lat="46.428096760064363" lon="8.424301268532872">
        <ele>2060.2399999999998</ele>
        <time>2012-03-01T09:22:00Z</time>
      </trkpt>
      <trkpt lat="46.428189966827631" lon="8.424286097288132">
        <ele>2062.1700000000001</ele>
        <time>2012-03-01T09:22:15Z</time>
      </trkpt>
      <trkpt lat="46.42826565541327" lon="8.424252402037382">
        <ele>2064.0900000000001</ele>
        <time>2012-03-01T09:22:28Z</time>
      </trkpt>
      <trkpt lat="46.428325334563851" lon="8.424242846667767">
        <ele>2065.0500000000002</ele>
        <time>2012-03-01T09:22:37Z</time>
      </trkpt>
      <trkpt lat="46.428330698981881" lon="8.424253072589636">
        <ele>2064.5700000000002</ele>
        <time>2012-03-01T09:22:47Z</time>
      </trkpt>
      <trkpt lat="46.428336566314101" lon="8.424263466149569">
        <ele>2064.5700000000002</ele>
        <time>2012-03-01T09:23:06Z</time>
      </trkpt>
      <trkpt lat="46.428342098370194" lon="8.424256341531873">
        <ele>2064.5700000000002</ele>
        <time>2012-03-01T09:23:15Z</time>
      </trkpt>
      <trkpt lat="46.428346876055002" lon="8.424285091459751">
        <ele>2064.5700000000002</ele>
        <time>2012-03-01T09:23:36Z</time>
      </trkpt>
      <trkpt lat="46.428328771144152" lon="8.424280229955912">
        <ele>2066.0100000000002</ele>
        <time>2012-03-01T09:23:51Z</time>
      </trkpt>
      <trkpt lat="46.428335811942816" lon="8.424267154186964">
        <ele>2065.5300000000002</ele>
        <time>2012-03-01T09:24:07Z</time>
      </trkpt>
      <trkpt lat="46.42834092490375" lon="8.424282157793641">
        <ele>2065.0500000000002</ele>
        <time>2012-03-01T09:24:19Z</time>
      </trkpt>
      <trkpt lat="46.428343439474702" lon="8.424282409250736">
        <ele>2065.5300000000002</ele>
        <time>2012-03-01T09:24:35Z</time>
      </trkpt>
      <trkpt lat="46.428344445303082" lon="8.424278134480119">
        <ele>2066.0100000000002</ele>
        <time>2012-03-01T09:24:51Z</time>
      </trkpt>
      <trkpt lat="46.4283452834934" lon="8.42426598072052">
        <ele>2066.0100000000002</ele>
        <time>2012-03-01T09:25:02Z</time>
      </trkpt>
      <trkpt lat="46.428335309028625" lon="8.424284923821688">
        <ele>2065.5300000000002</ele>
        <time>2012-03-01T09:25:21Z</time>
      </trkpt>
      <trkpt lat="46.428337907418609" lon="8.424268327653408">
        <ele>2065.5300000000002</ele>
        <time>2012-03-01T09:25:46Z</time>
      </trkpt>
      <trkpt lat="46.428332543000579" lon="8.424269836395979">
        <ele>2066.0100000000002</ele>
        <time>2012-03-01T09:26:11Z</time>
      </trkpt>
      <trkpt lat="46.42833941616118" lon="8.424275200814009">
        <ele>2066.4899999999998</ele>
        <time>2012-03-01T09:26:23Z</time>
      </trkpt>
      <trkpt lat="46.428397251293063" lon="8.424251647666097">
        <ele>2067.4499999999998</ele>
        <time>2012-03-01T09:26:34Z</time>
      </trkpt>
      <trkpt lat="46.428427174687386" lon="8.424242259934545">
        <ele>2067.9299999999998</ele>
        <time>2012-03-01T09:26:40Z</time>
      </trkpt>
      <trkpt lat="46.428505964577198" lon="8.424215354025364">
        <ele>2068.8899999999999</ele>
        <time>2012-03-01T09:26:54Z</time>
      </trkpt>
      <trkpt lat="46.428531613200903" lon="8.424199093133211">
        <ele>2069.3800000000001</ele>
        <time>2012-03-01T09:26:58Z</time>
      </trkpt>
      <trkpt lat="46.428613923490047" lon="8.424147209152579">
        <ele>2071.3000000000002</ele>
        <time>2012-03-01T09:27:12Z</time>
      </trkpt>
      <trkpt lat="46.428638231009245" lon="8.4241340495646">
        <ele>2071.7800000000002</ele>
        <time>2012-03-01T09:27:25Z</time>
      </trkpt>
      <trkpt lat="46.428693970665336" lon="8.42410035431385">
        <ele>2074.1799999999998</ele>
        <time>2012-03-01T09:27:37Z</time>
      </trkpt>
      <trkpt lat="46.428750297054648" lon="8.424064563587308">
        <ele>2078.0300000000002</ele>
        <time>2012-03-01T09:27:49Z</time>
      </trkpt>
      <trkpt lat="46.428789189085364" lon="8.42404805123806">
        <ele>2079.9499999999998</ele>
        <time>2012-03-01T09:28:02Z</time>
      </trkpt>
      <trkpt lat="46.428812826052308" lon="8.42402508482337">
        <ele>2082.8299999999999</ele>
        <time>2012-03-01T09:28:16Z</time>
      </trkpt>
      <trkpt lat="46.428868649527431" lon="8.424000274389982">
        <ele>2084.2800000000002</ele>
        <time>2012-03-01T09:28:26Z</time>
      </trkpt>
      <trkpt lat="46.428905194625258" lon="8.424005471169949">
        <ele>2086.6799999999998</ele>
        <time>2012-03-01T09:28:37Z</time>
      </trkpt>
      <trkpt lat="46.428930927067995" lon="8.424029191955924">
        <ele>2088.1199999999999</ele>
        <time>2012-03-01T09:28:47Z</time>
      </trkpt>
      <trkpt lat="46.428959090262651" lon="8.424001699313521">
        <ele>2090.04</ele>
        <time>2012-03-01T09:28:58Z</time>
      </trkpt>
      <trkpt lat="46.428975518792868" lon="8.423989042639732">
        <ele>2091.4899999999998</ele>
        <time>2012-03-01T09:29:06Z</time>
      </trkpt>
      <trkpt lat="46.429000496864319" lon="8.424014272168279">
        <ele>2092.9299999999998</ele>
        <time>2012-03-01T09:29:17Z</time>
      </trkpt>
      <trkpt lat="46.429016757756472" lon="8.42403925023973">
        <ele>2094.3699999999999</ele>
        <time>2012-03-01T09:29:27Z</time>
      </trkpt>
      <trkpt lat="46.429033940657973" lon="8.42407152056694">
        <ele>2095.3299999999999</ele>
        <time>2012-03-01T09:29:32Z</time>
      </trkpt>
      <trkpt lat="46.42904550768435" lon="8.424104209989309">
        <ele>2097.25</ele>
        <time>2012-03-01T09:29:42Z</time>
      </trkpt>
      <trkpt lat="46.429077107459307" lon="8.42406808398664">
        <ele>2098.21</ele>
        <time>2012-03-01T09:29:51Z</time>
      </trkpt>
      <trkpt lat="46.429095128551126" lon="8.424060791730881">
        <ele>2100.6199999999999</ele>
        <time>2012-03-01T09:30:02Z</time>
      </trkpt>
      <trkpt lat="46.429126979783177" lon="8.424032460898161">
        <ele>2103.02</ele>
        <time>2012-03-01T09:30:14Z</time>
      </trkpt>
      <trkpt lat="46.429141983389854" lon="8.424018044024706">
        <ele>2104.9400000000001</ele>
        <time>2012-03-01T09:30:25Z</time>
      </trkpt>
      <trkpt lat="46.429185066372156" lon="8.424009662121534">
        <ele>2106.8699999999999</ele>
        <time>2012-03-01T09:30:34Z</time>
      </trkpt>
      <trkpt lat="46.429216498509049" lon="8.4240338858217">
        <ele>2109.27</ele>
        <time>2012-03-01T09:30:45Z</time>
      </trkpt>
      <trkpt lat="46.429253546521068" lon="8.424001112580299">
        <ele>2110.71</ele>
        <time>2012-03-01T09:30:56Z</time>
      </trkpt>
      <trkpt lat="46.429285481572151" lon="8.423996418714523">
        <ele>2113.1199999999999</ele>
        <time>2012-03-01T09:31:10Z</time>
      </trkpt>
      <trkpt lat="46.429305681958795" lon="8.423969345167279">
        <ele>2115.04</ele>
        <time>2012-03-01T09:31:22Z</time>
      </trkpt>
      <trkpt lat="46.429306268692017" lon="8.42397135682404">
        <ele>2115.52</ele>
        <time>2012-03-01T09:31:36Z</time>
      </trkpt>
      <trkpt lat="46.429307190701365" lon="8.423961382359266">
        <ele>2115.04</ele>
        <time>2012-03-01T09:31:37Z</time>
      </trkpt>
      <trkpt lat="46.429337868466973" lon="8.423894243314862">
        <ele>2117.4400000000001</ele>
        <time>2012-03-01T09:31:49Z</time>
      </trkpt>
      <trkpt lat="46.429382627829909" lon="8.423891980201006">
        <ele>2118.4000000000001</ele>
        <time>2012-03-01T09:31:58Z</time>
      </trkpt>
      <trkpt lat="46.429408863186836" lon="8.423887873068452">
        <ele>2118.8800000000001</ele>
        <time>2012-03-01T09:32:02Z</time>
      </trkpt>
      <trkpt lat="46.42944322898984" lon="8.42387018725276">
        <ele>2119.8400000000001</ele>
        <time>2012-03-01T09:32:13Z</time>
      </trkpt>
      <trkpt lat="46.429442055523396" lon="8.423875384032726">
        <ele>2119.8400000000001</ele>
        <time>2012-03-01T09:32:23Z</time>
      </trkpt>
      <trkpt lat="46.429440462961793" lon="8.423872031271458">
        <ele>2119.8400000000001</ele>
        <time>2012-03-01T09:32:37Z</time>
      </trkpt>
      <trkpt lat="46.429434595629573" lon="8.423868007957935">
        <ele>2119.8400000000001</ele>
        <time>2012-03-01T09:33:01Z</time>
      </trkpt>
      <trkpt lat="46.429436774924397" lon="8.42387261800468">
        <ele>2120.3200000000002</ele>
        <time>2012-03-01T09:33:21Z</time>
      </trkpt>
      <trkpt lat="46.429440546780825" lon="8.423900865018368">
        <ele>2120.3200000000002</ele>
        <time>2012-03-01T09:33:32Z</time>
      </trkpt>
      <trkpt lat="46.429442893713713" lon="8.423925256356597">
        <ele>2119.3600000000001</ele>
        <time>2012-03-01T09:33:34Z</time>
      </trkpt>
      <trkpt lat="46.429417412728071" lon="8.42399331741035">
        <ele>2119.8400000000001</ele>
        <time>2012-03-01T09:33:45Z</time>
      </trkpt>
      <trkpt lat="46.429417328909039" lon="8.423998765647411">
        <ele>2119.8400000000001</ele>
        <time>2012-03-01T09:34:14Z</time>
      </trkpt>
      <trkpt lat="46.429417077451944" lon="8.42399382032454">
        <ele>2119.3600000000001</ele>
        <time>2012-03-01T09:34:30Z</time>
      </trkpt>
      <trkpt lat="46.429420514032245" lon="8.424009159207344">
        <ele>2119.3600000000001</ele>
        <time>2012-03-01T09:34:49Z</time>
      </trkpt>
      <trkpt lat="46.429422106593847" lon="8.424002956598997">
        <ele>2119.3600000000001</ele>
        <time>2012-03-01T09:34:53Z</time>
      </trkpt>
      <trkpt lat="46.429427554830909" lon="8.42398451641202">
        <ele>2119.3600000000001</ele>
        <time>2012-03-01T09:34:55Z</time>
      </trkpt>
      <trkpt lat="46.429444989189506" lon="8.423965573310852">
        <ele>2119.8400000000001</ele>
        <time>2012-03-01T09:35:08Z</time>
      </trkpt>
      <trkpt lat="46.429448341950774" lon="8.423963813111186">
        <ele>2119.8400000000001</ele>
        <time>2012-03-01T09:35:20Z</time>
      </trkpt>
      <trkpt lat="46.429430572316051" lon="8.42399868182838">
        <ele>2119.3600000000001</ele>
        <time>2012-03-01T09:35:23Z</time>
      </trkpt>
      <trkpt lat="46.429420430213213" lon="8.424054086208344">
        <ele>2119.8400000000001</ele>
        <time>2012-03-01T09:35:28Z</time>
      </trkpt>
      <trkpt lat="46.429398469626904" lon="8.424146370962262">
        <ele>2120.8099999999999</ele>
        <time>2012-03-01T09:35:35Z</time>
      </trkpt>
      <trkpt lat="46.429404001682997" lon="8.424181155860424">
        <ele>2120.8099999999999</ele>
        <time>2012-03-01T09:35:38Z</time>
      </trkpt>
      <trkpt lat="46.429399223998189" lon="8.424222059547901">
        <ele>2121.29</ele>
        <time>2012-03-01T09:35:41Z</time>
      </trkpt>
      <trkpt lat="46.429379191249609" lon="8.424249552190304">
        <ele>2121.77</ele>
        <time>2012-03-01T09:35:53Z</time>
      </trkpt>
      <trkpt lat="46.42937483265996" lon="8.424247372895479">
        <ele>2121.29</ele>
        <time>2012-03-01T09:36:09Z</time>
      </trkpt>
      <trkpt lat="46.429379694163799" lon="8.424254078418016">
        <ele>2121.29</ele>
        <time>2012-03-01T09:36:29Z</time>
      </trkpt>
      <trkpt lat="46.429380364716053" lon="8.424262963235378">
        <ele>2121.29</ele>
        <time>2012-03-01T09:36:30Z</time>
      </trkpt>
      <trkpt lat="46.429384388029575" lon="8.424419369548559">
        <ele>2122.25</ele>
        <time>2012-03-01T09:36:44Z</time>
      </trkpt>
      <trkpt lat="46.429317835718393" lon="8.424552893266082">
        <ele>2123.6900000000001</ele>
        <time>2012-03-01T09:36:59Z</time>
      </trkpt>
      <trkpt lat="46.429310962557793" lon="8.42456940561533">
        <ele>2124.6500000000001</ele>
        <time>2012-03-01T09:37:01Z</time>
      </trkpt>
      <trkpt lat="46.42929126508534" lon="8.42461047694087">
        <ele>2124.1700000000001</ele>
        <time>2012-03-01T09:37:05Z</time>
      </trkpt>
      <trkpt lat="46.429261676967144" lon="8.424698989838362">
        <ele>2124.6500000000001</ele>
        <time>2012-03-01T09:37:13Z</time>
      </trkpt>
      <trkpt lat="46.429251451045275" lon="8.424768056720495">
        <ele>2125.6100000000001</ele>
        <time>2012-03-01T09:37:23Z</time>
      </trkpt>
      <trkpt lat="46.429248517379165" lon="8.42481373809278">
        <ele>2125.6100000000001</ele>
        <time>2012-03-01T09:37:26Z</time>
      </trkpt>
      <trkpt lat="46.429259330034256" lon="8.424853049218655">
        <ele>2125.1300000000001</ele>
        <time>2012-03-01T09:37:29Z</time>
      </trkpt>
      <trkpt lat="46.429269472137094" lon="8.424904849380255">
        <ele>2126.0900000000001</ele>
        <time>2012-03-01T09:37:33Z</time>
      </trkpt>
      <trkpt lat="46.429287493228912" lon="8.424943489953876">
        <ele>2126.5700000000002</ele>
        <time>2012-03-01T09:37:36Z</time>
      </trkpt>
      <trkpt lat="46.429319512099028" lon="8.425023704767227">
        <ele>2127.5300000000002</ele>
        <time>2012-03-01T09:37:43Z</time>
      </trkpt>
      <trkpt lat="46.429332755506039" lon="8.425050526857376">
        <ele>2127.5300000000002</ele>
        <time>2012-03-01T09:37:45Z</time>
      </trkpt>
      <trkpt lat="46.429359996691346" lon="8.425132418051362">
        <ele>2128.02</ele>
        <time>2012-03-01T09:37:52Z</time>
      </trkpt>
      <trkpt lat="46.429391009733081" lon="8.425203580409288">
        <ele>2128.5</ele>
        <time>2012-03-01T09:38:00Z</time>
      </trkpt>
      <trkpt lat="46.429478097707033" lon="8.425365183502436">
        <ele>2129.9400000000001</ele>
        <time>2012-03-01T09:38:15Z</time>
      </trkpt>
      <trkpt lat="46.429549427703023" lon="8.425483116880059">
        <ele>2130.9000000000001</ele>
        <time>2012-03-01T09:38:26Z</time>
      </trkpt>
      <trkpt lat="46.429608184844255" lon="8.425598787143827">
        <ele>2130.9000000000001</ele>
        <time>2012-03-01T09:38:38Z</time>
      </trkpt>
      <trkpt lat="46.429632240906358" lon="8.425665255635977">
        <ele>2131.3800000000001</ele>
        <time>2012-03-01T09:38:44Z</time>
      </trkpt>
      <trkpt lat="46.429656213149428" lon="8.425714373588562">
        <ele>2131.8600000000001</ele>
        <time>2012-03-01T09:38:49Z</time>
      </trkpt>
      <trkpt lat="46.429720837622881" lon="8.425823589786887">
        <ele>2131.3800000000001</ele>
        <time>2012-03-01T09:39:01Z</time>
      </trkpt>
      <trkpt lat="46.429777247831225" lon="8.425917802378535">
        <ele>2132.3400000000001</ele>
        <time>2012-03-01T09:39:11Z</time>
      </trkpt>
      <trkpt lat="46.429814212024212" lon="8.425983767956495">
        <ele>2132.3400000000001</ele>
        <time>2012-03-01T09:39:16Z</time>
      </trkpt>
      <trkpt lat="46.429827706888318" lon="8.426016792654991">
        <ele>2132.3400000000001</ele>
        <time>2012-03-01T09:39:19Z</time>
      </trkpt>
      <trkpt lat="46.429905239492655" lon="8.426147634163499">
        <ele>2132.8200000000002</ele>
        <time>2012-03-01T09:39:31Z</time>
      </trkpt>
      <trkpt lat="46.429921500384808" lon="8.426192561164498">
        <ele>2132.8200000000002</ele>
        <time>2012-03-01T09:39:35Z</time>
      </trkpt>
      <trkpt lat="46.42993139103055" lon="8.426213515922427">
        <ele>2132.8200000000002</ele>
        <time>2012-03-01T09:39:37Z</time>
      </trkpt>
      <trkpt lat="46.42996215261519" lon="8.42627520672977">
        <ele>2132.8200000000002</ele>
        <time>2012-03-01T09:39:43Z</time>
      </trkpt>
      <trkpt lat="46.4299978595227" lon="8.426387188956142">
        <ele>2133.3000000000002</ele>
        <time>2012-03-01T09:39:53Z</time>
      </trkpt>
      <trkpt lat="46.430043373256922" lon="8.426526999101043">
        <ele>2134.2600000000002</ele>
        <time>2012-03-01T09:40:04Z</time>
      </trkpt>
      <trkpt lat="46.430055778473616" lon="8.426562286913395">
        <ele>2133.7800000000002</ele>
        <time>2012-03-01T09:40:07Z</time>
      </trkpt>
      <trkpt lat="46.430119816213846" lon="8.426728416234255">
        <ele>2133.7800000000002</ele>
        <time>2012-03-01T09:40:20Z</time>
      </trkpt>
      <trkpt lat="46.430177986621857" lon="8.426873004063964">
        <ele>2133.7800000000002</ele>
        <time>2012-03-01T09:40:31Z</time>
      </trkpt>
      <trkpt lat="46.430233810096979" lon="8.427018849179149">
        <ele>2133.3000000000002</ele>
        <time>2012-03-01T09:40:43Z</time>
      </trkpt>
      <trkpt lat="46.43024068325758" lon="8.427040223032236">
        <ele>2133.7800000000002</ele>
        <time>2012-03-01T09:40:45Z</time>
      </trkpt>
      <trkpt lat="46.430302290245891" lon="8.427178272977471">
        <ele>2134.2600000000002</ele>
        <time>2012-03-01T09:40:57Z</time>
      </trkpt>
      <trkpt lat="46.43034185282886" lon="8.427253542467952">
        <ele>2136.1900000000001</ele>
        <time>2012-03-01T09:41:07Z</time>
      </trkpt>
      <trkpt lat="46.430420810356736" lon="8.427353957667947">
        <ele>2136.6700000000001</ele>
        <time>2012-03-01T09:41:18Z</time>
      </trkpt>
      <trkpt lat="46.430503036826849" lon="8.42744498513639">
        <ele>2136.6700000000001</ele>
        <time>2012-03-01T09:41:28Z</time>
      </trkpt>
      <trkpt lat="46.430557351559401" lon="8.427525870501995">
        <ele>2138.1100000000001</ele>
        <time>2012-03-01T09:41:38Z</time>
      </trkpt>
      <trkpt lat="46.430619293823838" lon="8.427603989839554">
        <ele>2139.0700000000002</ele>
        <time>2012-03-01T09:41:47Z</time>
      </trkpt>
      <trkpt lat="46.430686432868242" lon="8.427661238238215">
        <ele>2139.5500000000002</ele>
        <time>2012-03-01T09:41:57Z</time>
      </trkpt>
      <trkpt lat="46.430703196674585" lon="8.427671380341053">
        <ele>2139.5500000000002</ele>
        <time>2012-03-01T09:41:59Z</time>
      </trkpt>
      <trkpt lat="46.430721050128341" lon="8.427682192996144">
        <ele>2139.5500000000002</ele>
        <time>2012-03-01T09:42:01Z</time>
      </trkpt>
      <trkpt lat="46.430776454508305" lon="8.427709434181452">
        <ele>2140.0300000000002</ele>
        <time>2012-03-01T09:42:07Z</time>
      </trkpt>
      <trkpt lat="46.4308250695467" lon="8.427730975672603">
        <ele>2140.0300000000002</ele>
        <time>2012-03-01T09:42:12Z</time>
      </trkpt>
      <trkpt lat="46.430859854444861" lon="8.427750086411834">
        <ele>2140.0300000000002</ele>
        <time>2012-03-01T09:42:16Z</time>
      </trkpt>
      <trkpt lat="46.430897070094943" lon="8.427762575447559">
        <ele>2140.0300000000002</ele>
        <time>2012-03-01T09:42:20Z</time>
      </trkpt>
      <trkpt lat="46.430989019572735" lon="8.427806412801147">
        <ele>2141.4699999999998</ele>
        <time>2012-03-01T09:42:30Z</time>
      </trkpt>
      <trkpt lat="46.431021457538009" lon="8.427834156900644">
        <ele>2141.4699999999998</ele>
        <time>2012-03-01T09:42:34Z</time>
      </trkpt>
      <trkpt lat="46.431111395359039" lon="8.427879251539707">
        <ele>2142.4400000000001</ele>
        <time>2012-03-01T09:42:44Z</time>
      </trkpt>
      <trkpt lat="46.431130841374397" lon="8.427888723090291">
        <ele>2142.4400000000001</ele>
        <time>2012-03-01T09:42:46Z</time>
      </trkpt>
      <trkpt lat="46.431145425885916" lon="8.427897859364748">
        <ele>2142.4400000000001</ele>
        <time>2012-03-01T09:42:48Z</time>
      </trkpt>
      <trkpt lat="46.431169984862208" lon="8.427914204075933">
        <ele>2142.9200000000001</ele>
        <time>2012-03-01T09:42:52Z</time>
      </trkpt>
      <trkpt lat="46.431263778358698" lon="8.428047895431519">
        <ele>2142.9200000000001</ele>
        <time>2012-03-01T09:43:04Z</time>
      </trkpt>
      <trkpt lat="46.431272998452187" lon="8.428059797734022">
        <ele>2142.9200000000001</ele>
        <time>2012-03-01T09:43:06Z</time>
      </trkpt>
      <trkpt lat="46.431323792785406" lon="8.428184520453215">
        <ele>2143.8800000000001</ele>
        <time>2012-03-01T09:43:17Z</time>
      </trkpt>
      <trkpt lat="46.431345418095589" lon="8.428245037794113">
        <ele>2144.3600000000001</ele>
        <time>2012-03-01T09:43:24Z</time>
      </trkpt>
      <trkpt lat="46.431388165801764" lon="8.428345620632172">
        <ele>2145.3200000000002</ele>
        <time>2012-03-01T09:43:34Z</time>
      </trkpt>
      <trkpt lat="46.431477349251509" lon="8.428491381928325">
        <ele>2146.2800000000002</ele>
        <time>2012-03-01T09:43:47Z</time>
      </trkpt>
      <trkpt lat="46.431539626792073" lon="8.428576625883579">
        <ele>2147.7199999999998</ele>
        <time>2012-03-01T09:43:56Z</time>
      </trkpt>
      <trkpt lat="46.431604586541653" lon="8.4286929666996">
        <ele>2149.1599999999999</ele>
        <time>2012-03-01T09:44:07Z</time>
      </trkpt>
      <trkpt lat="46.4316694624722" lon="8.428827412426472">
        <ele>2149.1599999999999</ele>
        <time>2012-03-01T09:44:19Z</time>
      </trkpt>
      <trkpt lat="46.431713970378041" lon="8.428953979164362">
        <ele>2149.6500000000001</ele>
        <time>2012-03-01T09:44:30Z</time>
      </trkpt>
      <trkpt lat="46.431718496605754" lon="8.429044671356678">
        <ele>2150.1300000000001</ele>
        <time>2012-03-01T09:44:37Z</time>
      </trkpt>
      <trkpt lat="46.431760657578707" lon="8.429185403510928">
        <ele>2150.1300000000001</ele>
        <time>2012-03-01T09:44:48Z</time>
      </trkpt>
      <trkpt lat="46.431759903207421" lon="8.429227313026786">
        <ele>2150.6100000000001</ele>
        <time>2012-03-01T09:44:51Z</time>
      </trkpt>
      <trkpt lat="46.431791000068188" lon="8.429347174242139">
        <ele>2151.0900000000001</ele>
        <time>2012-03-01T09:45:01Z</time>
      </trkpt>
      <trkpt lat="46.431853026151657" lon="8.429486062377691">
        <ele>2152.0500000000002</ele>
        <time>2012-03-01T09:45:12Z</time>
      </trkpt>
      <trkpt lat="46.431872807443142" lon="8.429523278027773">
        <ele>2152.0500000000002</ele>
        <time>2012-03-01T09:45:16Z</time>
      </trkpt>
      <trkpt lat="46.431876663118601" lon="8.429552614688873">
        <ele>2152.0500000000002</ele>
        <time>2012-03-01T09:45:19Z</time>
      </trkpt>
      <trkpt lat="46.43191228620708" lon="8.429621430113912">
        <ele>2152.0500000000002</ele>
        <time>2012-03-01T09:45:24Z</time>
      </trkpt>
      <trkpt lat="46.431928547099233" lon="8.429640373215079">
        <ele>2151.5700000000002</ele>
        <time>2012-03-01T09:45:26Z</time>
      </trkpt>
      <trkpt lat="46.431966349482536" lon="8.429684713482857">
        <ele>2152.0500000000002</ele>
        <time>2012-03-01T09:45:32Z</time>
      </trkpt>
      <trkpt lat="46.432030387222767" lon="8.429802814498544">
        <ele>2151.5700000000002</ele>
        <time>2012-03-01T09:45:42Z</time>
      </trkpt>
      <trkpt lat="46.432034661993384" lon="8.429809100925922">
        <ele>2151.5700000000002</ele>
        <time>2012-03-01T09:45:43Z</time>
      </trkpt>
      <trkpt lat="46.432071207091212" lon="8.42987297102809">
        <ele>2151.5700000000002</ele>
        <time>2012-03-01T09:45:48Z</time>
      </trkpt>
      <trkpt lat="46.432100543752313" lon="8.429922927170992">
        <ele>2151.5700000000002</ele>
        <time>2012-03-01T09:45:52Z</time>
      </trkpt>
      <trkpt lat="46.432149996981025" lon="8.430021665990353">
        <ele>2151.5700000000002</ele>
        <time>2012-03-01T09:46:02Z</time>
      </trkpt>
      <trkpt lat="46.432176567614079" lon="8.430075561627746">
        <ele>2152.0500000000002</ele>
        <time>2012-03-01T09:46:12Z</time>
      </trkpt>
      <trkpt lat="46.432183524593711" lon="8.430078579112887">
        <ele>2152.0500000000002</ele>
        <time>2012-03-01T09:46:13Z</time>
      </trkpt>
      <trkpt lat="46.43221378326416" lon="8.430108167231083">
        <ele>2151.5700000000002</ele>
        <time>2012-03-01T09:46:21Z</time>
      </trkpt>
      <trkpt lat="46.432236330583692" lon="8.43014026992023">
        <ele>2152.0500000000002</ele>
        <time>2012-03-01T09:46:24Z</time>
      </trkpt>
      <trkpt lat="46.432264745235443" lon="8.430197183042765">
        <ele>2152.0500000000002</ele>
        <time>2012-03-01T09:46:28Z</time>
      </trkpt>
      <trkpt lat="46.432263571768999" lon="8.43024387024343">
        <ele>2152.5300000000002</ele>
        <time>2012-03-01T09:46:45Z</time>
      </trkpt>
      <trkpt lat="46.43226164393127" lon="8.430245462805033">
        <ele>2152.5300000000002</ele>
        <time>2012-03-01T09:46:58Z</time>
      </trkpt>
      <trkpt lat="46.432301793247461" lon="8.430310171097517">
        <ele>2153.0100000000002</ele>
        <time>2012-03-01T09:47:09Z</time>
      </trkpt>
      <trkpt lat="46.432332219555974" lon="8.43035819940269">
        <ele>2153.0100000000002</ele>
        <time>2012-03-01T09:47:14Z</time>
      </trkpt>
      <trkpt lat="46.432394329458475" lon="8.430498093366623">
        <ele>2153.9699999999998</ele>
        <time>2012-03-01T09:47:26Z</time>
      </trkpt>
      <trkpt lat="46.432395586743951" lon="8.430504631251097">
        <ele>2153.4899999999998</ele>
        <time>2012-03-01T09:47:27Z</time>
      </trkpt>
      <trkpt lat="46.43241411074996" lon="8.43065676279366">
        <ele>2154.9299999999998</ele>
        <time>2012-03-01T09:47:40Z</time>
      </trkpt>
      <trkpt lat="46.432410422712564" lon="8.430781401693821">
        <ele>2156.8600000000001</ele>
        <time>2012-03-01T09:47:53Z</time>
      </trkpt>
      <trkpt lat="46.432395586743951" lon="8.430838063359261">
        <ele>2158.3000000000002</ele>
        <time>2012-03-01T09:48:00Z</time>
      </trkpt>
      <trkpt lat="46.432388126850128" lon="8.430910483002663">
        <ele>2160.2199999999998</ele>
        <time>2012-03-01T09:48:09Z</time>
      </trkpt>
      <trkpt lat="46.432386618107557" lon="8.431063536554575">
        <ele>2160.6999999999998</ele>
        <time>2012-03-01T09:48:21Z</time>
      </trkpt>
      <trkpt lat="46.432379828765988" lon="8.431228324770927">
        <ele>2161.6599999999999</ele>
        <time>2012-03-01T09:48:34Z</time>
      </trkpt>
      <trkpt lat="46.432375721633434" lon="8.431262271478772">
        <ele>2162.1399999999999</ele>
        <time>2012-03-01T09:48:37Z</time>
      </trkpt>
      <trkpt lat="46.432355269789696" lon="8.431351706385613">
        <ele>2162.6199999999999</ele>
        <time>2012-03-01T09:48:45Z</time>
      </trkpt>
      <trkpt lat="46.432291818782687" lon="8.431499982252717">
        <ele>2164.0599999999999</ele>
        <time>2012-03-01T09:48:59Z</time>
      </trkpt>
      <trkpt lat="46.432219399139285" lon="8.431564690545201">
        <ele>2166.4699999999998</ele>
        <time>2012-03-01T09:49:12Z</time>
      </trkpt>
      <trkpt lat="46.43213608302176" lon="8.431607354432344">
        <ele>2169.3499999999999</ele>
        <time>2012-03-01T09:49:27Z</time>
      </trkpt>
      <trkpt lat="46.432094676420093" lon="8.431632416322827">
        <ele>2171.27</ele>
        <time>2012-03-01T09:49:39Z</time>
      </trkpt>
      <trkpt lat="46.432027788832784" lon="8.43163937330246">
        <ele>2173.6799999999998</ele>
        <time>2012-03-01T09:49:51Z</time>
      </trkpt>
      <trkpt lat="46.431947238743305" lon="8.431673152372241">
        <ele>2176.5599999999999</ele>
        <time>2012-03-01T09:50:05Z</time>
      </trkpt>
      <trkpt lat="46.431891499087214" lon="8.431707182899118">
        <ele>2178</ele>
        <time>2012-03-01T09:50:16Z</time>
      </trkpt>
      <trkpt lat="46.431814972311258" lon="8.43174833804369">
        <ele>2180.4099999999999</ele>
        <time>2012-03-01T09:50:29Z</time>
      </trkpt>
      <trkpt lat="46.431759735569358" lon="8.43176007270813">
        <ele>2182.8099999999999</ele>
        <time>2012-03-01T09:50:39Z</time>
      </trkpt>
      <trkpt lat="46.431722184643149" lon="8.431767448782921">
        <ele>2184.25</ele>
        <time>2012-03-01T09:50:49Z</time>
      </trkpt>
      <trkpt lat="46.431661080569029" lon="8.431791169568896">
        <ele>2187.1399999999999</ele>
        <time>2012-03-01T09:51:02Z</time>
      </trkpt>
      <trkpt lat="46.431621098890901" lon="8.43178890645504">
        <ele>2189.54</ele>
        <time>2012-03-01T09:51:13Z</time>
      </trkpt>
      <trkpt lat="46.431538285687566" lon="8.431823775172234">
        <ele>2192.4200000000001</ele>
        <time>2012-03-01T09:51:29Z</time>
      </trkpt>
      <trkpt lat="46.431509535759687" lon="8.431785134598613">
        <ele>2194.3499999999999</ele>
        <time>2012-03-01T09:51:41Z</time>
      </trkpt>
      <trkpt lat="46.431515067815781" lon="8.431796282529831">
        <ele>2193.8699999999999</ele>
        <time>2012-03-01T09:51:54Z</time>
      </trkpt>
      <trkpt lat="46.431522276252508" lon="8.431789074093103">
        <ele>2194.3499999999999</ele>
        <time>2012-03-01T09:52:07Z</time>
      </trkpt>
      <trkpt lat="46.431520599871874" lon="8.431785888969898">
        <ele>2194.8299999999999</ele>
        <time>2012-03-01T09:52:23Z</time>
      </trkpt>
      <trkpt lat="46.431529233232141" lon="8.431797539815307">
        <ele>2194.3499999999999</ele>
        <time>2012-03-01T09:52:45Z</time>
      </trkpt>
      <trkpt lat="46.431528395041823" lon="8.431789325550199">
        <ele>2194.3499999999999</ele>
        <time>2012-03-01T09:53:09Z</time>
      </trkpt>
      <trkpt lat="46.431521940976381" lon="8.431790415197611">
        <ele>2193.8699999999999</ele>
        <time>2012-03-01T09:53:31Z</time>
      </trkpt>
      <trkpt lat="46.431495705619454" lon="8.431789660826325">
        <ele>2194.8299999999999</ele>
        <time>2012-03-01T09:53:41Z</time>
      </trkpt>
      <trkpt lat="46.431458070874214" lon="8.431795109063387">
        <ele>2195.79</ele>
        <time>2012-03-01T09:53:57Z</time>
      </trkpt>
      <trkpt lat="46.431375090032816" lon="8.431797288358212">
        <ele>2197.71</ele>
        <time>2012-03-01T09:54:08Z</time>
      </trkpt>
      <trkpt lat="46.431355224922299" lon="8.431797288358212">
        <ele>2198.6700000000001</ele>
        <time>2012-03-01T09:54:11Z</time>
      </trkpt>
      <trkpt lat="46.431326391175389" lon="8.431784883141518">
        <ele>2199.1500000000001</ele>
        <time>2012-03-01T09:54:15Z</time>
      </trkpt>
      <trkpt lat="46.431242572143674" lon="8.431754373013973">
        <ele>2202.04</ele>
        <time>2012-03-01T09:54:27Z</time>
      </trkpt>
      <trkpt lat="46.431194543838501" lon="8.431735597550869">
        <ele>2203</ele>
        <time>2012-03-01T09:54:34Z</time>
      </trkpt>
      <trkpt lat="46.431119190528989" lon="8.43169410713017">
        <ele>2204.9200000000001</ele>
        <time>2012-03-01T09:54:47Z</time>
      </trkpt>
      <trkpt lat="46.431053644046187" lon="8.431679271161556">
        <ele>2207.3200000000002</ele>
        <time>2012-03-01T09:54:59Z</time>
      </trkpt>
      <trkpt lat="46.430981140583754" lon="8.431678768247366">
        <ele>2209.73</ele>
        <time>2012-03-01T09:55:11Z</time>
      </trkpt>
      <trkpt lat="46.430915091186762" lon="8.431669967249036">
        <ele>2211.1700000000001</ele>
        <time>2012-03-01T09:55:22Z</time>
      </trkpt>
      <trkpt lat="46.430866559967399" lon="8.43166770413518">
        <ele>2212.6100000000001</ele>
        <time>2012-03-01T09:55:31Z</time>
      </trkpt>
      <trkpt lat="46.430776203051209" lon="8.431660244241357">
        <ele>2215.0100000000002</ele>
        <time>2012-03-01T09:55:44Z</time>
      </trkpt>
      <trkpt lat="46.430764216929674" lon="8.431654796004295">
        <ele>2215.0100000000002</ele>
        <time>2012-03-01T09:55:46Z</time>
      </trkpt>
      <trkpt lat="46.430709818378091" lon="8.431654376909137">
        <ele>2217.9000000000001</ele>
        <time>2012-03-01T09:55:57Z</time>
      </trkpt>
      <trkpt lat="46.430650809779763" lon="8.431636020541191">
        <ele>2219.8200000000002</ele>
        <time>2012-03-01T09:56:09Z</time>
      </trkpt>
      <trkpt lat="46.430568248033524" lon="8.431650353595614">
        <ele>2221.2600000000002</ele>
        <time>2012-03-01T09:56:22Z</time>
      </trkpt>
      <trkpt lat="46.430549556389451" lon="8.431690251454711">
        <ele>2221.2600000000002</ele>
        <time>2012-03-01T09:56:31Z</time>
      </trkpt>
      <trkpt lat="46.430529020726681" lon="8.431716235354543">
        <ele>2220.7800000000002</ele>
        <time>2012-03-01T09:56:35Z</time>
      </trkpt>
      <trkpt lat="46.430480321869254" lon="8.431725203990936">
        <ele>2220.7800000000002</ele>
        <time>2012-03-01T09:56:40Z</time>
      </trkpt>
      <trkpt lat="46.430344451218843" lon="8.431753367185593">
        <ele>2222.71</ele>
        <time>2012-03-01T09:56:56Z</time>
      </trkpt>
      <trkpt lat="46.430250238627195" lon="8.431794941425324">
        <ele>2224.6300000000001</ele>
        <time>2012-03-01T09:57:08Z</time>
      </trkpt>
      <trkpt lat="46.430160133168101" lon="8.431832240894437">
        <ele>2227.0300000000002</ele>
        <time>2012-03-01T09:57:22Z</time>
      </trkpt>
      <trkpt lat="46.430094670504332" lon="8.431853614747524">
        <ele>2227.9899999999998</ele>
        <time>2012-03-01T09:57:33Z</time>
      </trkpt>
      <trkpt lat="46.430074637755752" lon="8.431852776557207">
        <ele>2227.9899999999998</ele>
        <time>2012-03-01T09:57:44Z</time>
      </trkpt>
      <trkpt lat="46.43007799051702" lon="8.431860655546188">
        <ele>2228.4699999999998</ele>
        <time>2012-03-01T09:57:59Z</time>
      </trkpt>
      <trkpt lat="46.430078074336052" lon="8.43185973353684">
        <ele>2228.4699999999998</ele>
        <time>2012-03-01T09:58:03Z</time>
      </trkpt>
      <trkpt lat="46.430064998567104" lon="8.431872054934502">
        <ele>2228.4699999999998</ele>
        <time>2012-03-01T09:58:05Z</time>
      </trkpt>
      <trkpt lat="46.430004481226206" lon="8.431894099339843">
        <ele>2228.9499999999998</ele>
        <time>2012-03-01T09:58:12Z</time>
      </trkpt>
      <trkpt lat="46.429943963885307" lon="8.431903822347522">
        <ele>2230.4000000000001</ele>
        <time>2012-03-01T09:58:18Z</time>
      </trkpt>
      <trkpt lat="46.429868778213859" lon="8.431858476251364">
        <ele>2231.8400000000001</ele>
        <time>2012-03-01T09:58:30Z</time>
      </trkpt>
      <trkpt lat="46.429857211187482" lon="8.431811537593603">
        <ele>2232.3200000000002</ele>
        <time>2012-03-01T09:58:35Z</time>
      </trkpt>
      <trkpt lat="46.42981605604291" lon="8.43171221204102">
        <ele>2233.7600000000002</ele>
        <time>2012-03-01T09:58:46Z</time>
      </trkpt>
      <trkpt lat="46.429800465703011" lon="8.431679019704461">
        <ele>2234.2399999999998</ele>
        <time>2012-03-01T09:58:59Z</time>
      </trkpt>
      <trkpt lat="46.42977062612772" lon="8.43157441355288">
        <ele>2236.1599999999999</ele>
        <time>2012-03-01T09:59:10Z</time>
      </trkpt>
      <trkpt lat="46.429723519831896" lon="8.431461760774255">
        <ele>2238.5700000000002</ele>
        <time>2012-03-01T09:59:22Z</time>
      </trkpt>
      <trkpt lat="46.429696613922715" lon="8.43140535056591">
        <ele>2238.5700000000002</ele>
        <time>2012-03-01T09:59:27Z</time>
      </trkpt>
      <trkpt lat="46.429685465991497" lon="8.431365033611655">
        <ele>2240.0100000000002</ele>
        <time>2012-03-01T09:59:32Z</time>
      </trkpt>
      <trkpt lat="46.429679011926055" lon="8.431350449100137">
        <ele>2240.4899999999998</ele>
        <time>2012-03-01T09:59:34Z</time>
      </trkpt>
      <trkpt lat="46.429614303633571" lon="8.431216506287456">
        <ele>2242.8899999999999</ele>
        <time>2012-03-01T09:59:49Z</time>
      </trkpt>
      <trkpt lat="46.429600808769464" lon="8.431135201826692">
        <ele>2244.3299999999999</ele>
        <time>2012-03-01T09:59:59Z</time>
      </trkpt>
      <trkpt lat="46.429552612826228" lon="8.431018106639385">
        <ele>2246.2600000000002</ele>
        <time>2012-03-01T10:00:13Z</time>
      </trkpt>
      <trkpt lat="46.429522102698684" lon="8.430921211838722">
        <ele>2247.6999999999998</ele>
        <time>2012-03-01T10:00:25Z</time>
      </trkpt>
      <trkpt lat="46.429510954767466" lon="8.430900759994984">
        <ele>2247.2199999999998</ele>
        <time>2012-03-01T10:00:41Z</time>
      </trkpt>
      <trkpt lat="46.429471811279655" lon="8.430804284289479">
        <ele>2249.6199999999999</ele>
        <time>2012-03-01T10:00:54Z</time>
      </trkpt>
      <trkpt lat="46.429430572316051" lon="8.430701186880469">
        <ele>2252.0300000000002</ele>
        <time>2012-03-01T10:01:07Z</time>
      </trkpt>
      <trkpt lat="46.429377431049943" lon="8.430591467767954">
        <ele>2253.9499999999998</ele>
        <time>2012-03-01T10:01:19Z</time>
      </trkpt>
      <trkpt lat="46.42933233641088" lon="8.430499015375972">
        <ele>2254.9099999999999</ele>
        <time>2012-03-01T10:01:31Z</time>
      </trkpt>
      <trkpt lat="46.429313644766808" lon="8.430464398115873">
        <ele>2255.3899999999999</ele>
        <time>2012-03-01T10:01:45Z</time>
      </trkpt>
      <trkpt lat="46.429243069142103" lon="8.430410418659449">
        <ele>2257.79</ele>
        <time>2012-03-01T10:01:59Z</time>
      </trkpt>
      <trkpt lat="46.429191352799535" lon="8.430430954322219">
        <ele>2260.1999999999998</ele>
        <time>2012-03-01T10:02:12Z</time>
      </trkpt>
      <trkpt lat="46.429168805480003" lon="8.430451154708862">
        <ele>2263.5599999999999</ele>
        <time>2012-03-01T10:02:25Z</time>
      </trkpt>
      <trkpt lat="46.429067132994533" lon="8.430445622652769">
        <ele>2265.96</ele>
        <time>2012-03-01T10:02:39Z</time>
      </trkpt>
      <trkpt lat="46.429042993113399" lon="8.430445119738579">
        <ele>2265.96</ele>
        <time>2012-03-01T10:02:42Z</time>
      </trkpt>
      <trkpt lat="46.428972082212567" lon="8.430431373417378">
        <ele>2266.9299999999998</ele>
        <time>2012-03-01T10:02:51Z</time>
      </trkpt>
      <trkpt lat="46.428948529064655" lon="8.430421398952603">
        <ele>2266.9299999999998</ele>
        <time>2012-03-01T10:02:54Z</time>
      </trkpt>
      <trkpt lat="46.428865548223257" lon="8.430377226322889">
        <ele>2268.3699999999999</ele>
        <time>2012-03-01T10:03:07Z</time>
      </trkpt>
      <trkpt lat="46.42883931286633" lon="8.430435312911868">
        <ele>2270.29</ele>
        <time>2012-03-01T10:03:20Z</time>
      </trkpt>
      <trkpt lat="46.428843671455979" lon="8.430435145273805">
        <ele>2269.8099999999999</ele>
        <time>2012-03-01T10:03:42Z</time>
      </trkpt>
      <trkpt lat="46.428806120529771" lon="8.430414190515876">
        <ele>2269.8099999999999</ele>
        <time>2012-03-01T10:03:46Z</time>
      </trkpt>
      <trkpt lat="46.428743926808238" lon="8.430360127240419">
        <ele>2270.29</ele>
        <time>2012-03-01T10:03:52Z</time>
      </trkpt>
      <trkpt lat="46.428731689229608" lon="8.430341770872474">
        <ele>2270.29</ele>
        <time>2012-03-01T10:03:54Z</time>
      </trkpt>
      <trkpt lat="46.428598668426275" lon="8.430274045094848">
        <ele>2269.8099999999999</ele>
        <time>2012-03-01T10:04:07Z</time>
      </trkpt>
      <trkpt lat="46.428486434742808" lon="8.43020866625011">
        <ele>2269.3299999999999</ele>
        <time>2012-03-01T10:04:18Z</time>
      </trkpt>
      <trkpt lat="46.428421307355165" lon="8.430112944915891">
        <ele>2269.8099999999999</ele>
        <time>2012-03-01T10:04:30Z</time>
      </trkpt>
      <trkpt lat="46.42835408449173" lon="8.430014625191689">
        <ele>2269.8099999999999</ele>
        <time>2012-03-01T10:04:40Z</time>
      </trkpt>
      <trkpt lat="46.428282670676708" lon="8.429920915514231">
        <ele>2270.77</ele>
        <time>2012-03-01T10:04:52Z</time>
      </trkpt>
      <trkpt lat="46.428234726190567" lon="8.429831648245454">
        <ele>2271.73</ele>
        <time>2012-03-01T10:05:03Z</time>
      </trkpt>
      <trkpt lat="46.428163480013609" lon="8.429766688495874">
        <ele>2272.6900000000001</ele>
        <time>2012-03-01T10:05:14Z</time>
      </trkpt>
      <trkpt lat="46.428092988207936" lon="8.429724862799048">
        <ele>2275.0999999999999</ele>
        <time>2012-03-01T10:05:27Z</time>
      </trkpt>
      <trkpt lat="46.428027441725135" lon="8.429668787866831">
        <ele>2275.0999999999999</ele>
        <time>2012-03-01T10:05:39Z</time>
      </trkpt>
      <trkpt lat="46.428017802536488" lon="8.429631991311908">
        <ele>2275.0999999999999</ele>
        <time>2012-03-01T10:05:42Z</time>
      </trkpt>
      <trkpt lat="46.427985448390245" lon="8.429495617747307">
        <ele>2275.5799999999999</ele>
        <time>2012-03-01T10:05:55Z</time>
      </trkpt>
      <trkpt lat="46.427945634350181" lon="8.42946887947619">
        <ele>2275.5799999999999</ele>
        <time>2012-03-01T10:06:00Z</time>
      </trkpt>
      <trkpt lat="46.427880758419633" lon="8.429431831464171">
        <ele>2275.0999999999999</ele>
        <time>2012-03-01T10:06:11Z</time>
      </trkpt>
      <trkpt lat="46.427886374294758" lon="8.429430825635791">
        <ele>2275.5799999999999</ele>
        <time>2012-03-01T10:06:13Z</time>
      </trkpt>
      <trkpt lat="46.42786156386137" lon="8.429418839514256">
        <ele>2275.5799999999999</ele>
        <time>2012-03-01T10:06:17Z</time>
      </trkpt>
      <trkpt lat="46.427770787850022" lon="8.429415989667177">
        <ele>2274.6199999999999</ele>
        <time>2012-03-01T10:06:25Z</time>
      </trkpt>
      <trkpt lat="46.427738098427653" lon="8.429401153698564">
        <ele>2274.6199999999999</ele>
        <time>2012-03-01T10:06:29Z</time>
      </trkpt>
      <trkpt lat="46.427606083452702" lon="8.429312473163009">
        <ele>2273.6599999999999</ele>
        <time>2012-03-01T10:06:43Z</time>
      </trkpt>
      <trkpt lat="46.427559312433004" lon="8.429259164258838">
        <ele>2272.6900000000001</ele>
        <time>2012-03-01T10:06:49Z</time>
      </trkpt>
      <trkpt lat="46.427480690181255" lon="8.429129160940647">
        <ele>2271.73</ele>
        <time>2012-03-01T10:07:01Z</time>
      </trkpt>
      <trkpt lat="46.427472559735179" lon="8.429113235324621">
        <ele>2272.21</ele>
        <time>2012-03-01T10:07:03Z</time>
      </trkpt>
      <trkpt lat="46.427428890019655" lon="8.429083814844489">
        <ele>2272.21</ele>
        <time>2012-03-01T10:07:08Z</time>
      </trkpt>
      <trkpt lat="46.427405336871743" lon="8.429054813459516">
        <ele>2272.21</ele>
        <time>2012-03-01T10:07:11Z</time>
      </trkpt>
      <trkpt lat="46.427371557801962" lon="8.42902715317905">
        <ele>2272.21</ele>
        <time>2012-03-01T10:07:15Z</time>
      </trkpt>
      <trkpt lat="46.427344232797623" lon="8.428980968892574">
        <ele>2272.21</ele>
        <time>2012-03-01T10:07:20Z</time>
      </trkpt>
      <trkpt lat="46.427293103188276" lon="8.428932689130306">
        <ele>2271.73</ele>
        <time>2012-03-01T10:07:27Z</time>
      </trkpt>
      <trkpt lat="46.427263263612986" lon="8.428931431844831">
        <ele>2271.73</ele>
        <time>2012-03-01T10:07:30Z</time>
      </trkpt>
      <trkpt lat="46.427205512300134" lon="8.428934365510941">
        <ele>2271.73</ele>
        <time>2012-03-01T10:07:36Z</time>
      </trkpt>
      <trkpt lat="46.427182462066412" lon="8.428938053548336">
        <ele>2271.25</ele>
        <time>2012-03-01T10:07:38Z</time>
      </trkpt>
      <trkpt lat="46.42710174433887" lon="8.428909722715616">
        <ele>2271.73</ele>
        <time>2012-03-01T10:07:50Z</time>
      </trkpt>
      <trkpt lat="46.42710811458528" lon="8.428897820413113">
        <ele>2272.21</ele>
        <time>2012-03-01T10:08:01Z</time>
      </trkpt>
      <trkpt lat="46.427102833986282" lon="8.428898742422462">
        <ele>2271.73</ele>
        <time>2012-03-01T10:08:15Z</time>
      </trkpt>
      <trkpt lat="46.427095038816333" lon="8.428883319720626">
        <ele>2271.73</ele>
        <time>2012-03-01T10:08:33Z</time>
      </trkpt>
      <trkpt lat="46.427098223939538" lon="8.428884074091911">
        <ele>2271.25</ele>
        <time>2012-03-01T10:09:00Z</time>
      </trkpt>
      <trkpt lat="46.427095457911491" lon="8.428861442953348">
        <ele>2271.73</ele>
        <time>2012-03-01T10:09:15Z</time>
      </trkpt>
      <trkpt lat="46.4271071087569" lon="8.428879380226135">
        <ele>2271.73</ele>
        <time>2012-03-01T10:09:41Z</time>
      </trkpt>
      <trkpt lat="46.427111802622676" lon="8.428887510672212">
        <ele>2271.73</ele>
        <time>2012-03-01T10:09:48Z</time>
      </trkpt>
      <trkpt lat="46.426965706050396" lon="8.428896060213447">
        <ele>2271.73</ele>
        <time>2012-03-01T10:10:02Z</time>
      </trkpt>
      <trkpt lat="46.42685791477561" lon="8.42885616235435">
        <ele>2270.77</ele>
        <time>2012-03-01T10:10:15Z</time>
      </trkpt>
      <trkpt lat="46.426756074652076" lon="8.428813079372048">
        <ele>2270.29</ele>
        <time>2012-03-01T10:10:26Z</time>
      </trkpt>
      <trkpt lat="46.426739813759923" lon="8.428801512345672">
        <ele>2270.29</ele>
        <time>2012-03-01T10:10:28Z</time>
      </trkpt>
      <trkpt lat="46.4266736805439" lon="8.428790029138327">
        <ele>2269.3299999999999</ele>
        <time>2012-03-01T10:10:34Z</time>
      </trkpt>
      <trkpt lat="46.426562368869781" lon="8.428760524839163">
        <ele>2267.8899999999999</ele>
        <time>2012-03-01T10:10:45Z</time>
      </trkpt>
      <trkpt lat="46.42645332030952" lon="8.428723560646176">
        <ele>2265.96</ele>
        <time>2012-03-01T10:10:57Z</time>
      </trkpt>
      <trkpt lat="46.426446111872792" lon="8.428707048296928">
        <ele>2266.9299999999998</ele>
        <time>2012-03-01T10:11:01Z</time>
      </trkpt>
      <trkpt lat="46.426435047760606" lon="8.428716436028481">
        <ele>2266.4499999999998</ele>
        <time>2012-03-01T10:11:03Z</time>
      </trkpt>
      <trkpt lat="46.42641962505877" lon="8.428726997226477">
        <ele>2265.96</ele>
        <time>2012-03-01T10:11:05Z</time>
      </trkpt>
      <trkpt lat="46.426337650045753" lon="8.428765805438161">
        <ele>2263.5599999999999</ele>
        <time>2012-03-01T10:11:16Z</time>
      </trkpt>
      <trkpt lat="46.426317198202014" lon="8.428771337494254">
        <ele>2263.0799999999999</ele>
        <time>2012-03-01T10:11:19Z</time>
      </trkpt>
      <trkpt lat="46.426278222352266" lon="8.428782150149345">
        <ele>2261.6399999999999</ele>
        <time>2012-03-01T10:11:29Z</time>
      </trkpt>
      <trkpt lat="46.426252657547593" lon="8.428796818479896">
        <ele>2261.1599999999999</ele>
        <time>2012-03-01T10:11:33Z</time>
      </trkpt>
      <trkpt lat="46.426224661991" lon="8.428814252838492">
        <ele>2260.1999999999998</ele>
        <time>2012-03-01T10:11:36Z</time>
      </trkpt>
      <trkpt lat="46.426189877092838" lon="8.428848115727305">
        <ele>2258.27</ele>
        <time>2012-03-01T10:11:45Z</time>
      </trkpt>
      <trkpt lat="46.42618216574192" lon="8.428851468488574">
        <ele>2257.79</ele>
        <time>2012-03-01T10:11:54Z</time>
      </trkpt>
      <trkpt lat="46.426167245954275" lon="8.42886982485652">
        <ele>2257.3099999999999</ele>
        <time>2012-03-01T10:11:56Z</time>
      </trkpt>
      <trkpt lat="46.426151823252439" lon="8.428883654996753">
        <ele>2257.3099999999999</ele>
        <time>2012-03-01T10:11:58Z</time>
      </trkpt>
      <trkpt lat="46.426070015877485" lon="8.428971664980054">
        <ele>2253.9499999999998</ele>
        <time>2012-03-01T10:12:11Z</time>
      </trkpt>
      <trkpt lat="46.426052749156952" lon="8.429002175107598">
        <ele>2252.9899999999998</ele>
        <time>2012-03-01T10:12:15Z</time>
      </trkpt>
      <trkpt lat="46.426035817712545" lon="8.429015586152673">
        <ele>2252.5100000000002</ele>
        <time>2012-03-01T10:12:17Z</time>
      </trkpt>
      <trkpt lat="46.426025843247771" lon="8.429037295281887">
        <ele>2252.0300000000002</ele>
        <time>2012-03-01T10:12:19Z</time>
      </trkpt>
      <trkpt lat="46.425912268459797" lon="8.42910778708756">
        <ele>2248.1799999999998</ele>
        <time>2012-03-01T10:12:31Z</time>
      </trkpt>
      <trkpt lat="46.425795676186681" lon="8.429113738238812">
        <ele>2246.2600000000002</ele>
        <time>2012-03-01T10:12:42Z</time>
      </trkpt>
      <trkpt lat="46.42565343528986" lon="8.429097896441817">
        <ele>2244.8200000000002</ele>
        <time>2012-03-01T10:12:55Z</time>
      </trkpt>
      <trkpt lat="46.425536591559649" lon="8.429069062694907">
        <ele>2247.2199999999998</ele>
        <time>2012-03-01T10:13:08Z</time>
      </trkpt>
      <trkpt lat="46.425465680658817" lon="8.429058333858848">
        <ele>2248.6599999999999</ele>
        <time>2012-03-01T10:13:23Z</time>
      </trkpt>
      <trkpt lat="46.425401894375682" lon="8.429032936692238">
        <ele>2249.6199999999999</ele>
        <time>2012-03-01T10:13:37Z</time>
      </trkpt>
      <trkpt lat="46.425279518589377" lon="8.428981890901923">
        <ele>2250.0999999999999</ele>
        <time>2012-03-01T10:13:49Z</time>
      </trkpt>
      <trkpt lat="46.425170386210084" lon="8.428924307227135">
        <ele>2249.6199999999999</ele>
        <time>2012-03-01T10:14:01Z</time>
      </trkpt>
      <trkpt lat="46.425155717879534" lon="8.428904777392745">
        <ele>2249.6199999999999</ele>
        <time>2012-03-01T10:14:03Z</time>
      </trkpt>
      <trkpt lat="46.425107941031456" lon="8.428881224244833">
        <ele>2250.0999999999999</ele>
        <time>2012-03-01T10:14:08Z</time>
      </trkpt>
      <trkpt lat="46.425088746473193" lon="8.428878542035818">
        <ele>2249.6199999999999</ele>
        <time>2012-03-01T10:14:10Z</time>
      </trkpt>
      <trkpt lat="46.425055805593729" lon="8.428846690803766">
        <ele>2249.6199999999999</ele>
        <time>2012-03-01T10:14:15Z</time>
      </trkpt>
      <trkpt lat="46.424912475049496" lon="8.42879899777472">
        <ele>2248.1799999999998</ele>
        <time>2012-03-01T10:14:29Z</time>
      </trkpt>
      <trkpt lat="46.424775430932641" lon="8.428795393556356">
        <ele>2248.6599999999999</ele>
        <time>2012-03-01T10:14:43Z</time>
      </trkpt>
      <trkpt lat="46.424766462296247" lon="8.428772008046508">
        <ele>2248.6599999999999</ele>
        <time>2012-03-01T10:14:52Z</time>
      </trkpt>
      <trkpt lat="46.424765707924962" lon="8.428772930055857">
        <ele>2248.1799999999998</ele>
        <time>2012-03-01T10:15:15Z</time>
      </trkpt>
      <trkpt lat="46.424757745116949" lon="8.428799584507942">
        <ele>2247.6999999999998</ele>
        <time>2012-03-01T10:15:26Z</time>
      </trkpt>
      <trkpt lat="46.424754811450839" lon="8.428789861500263">
        <ele>2247.2199999999998</ele>
        <time>2012-03-01T10:15:44Z</time>
      </trkpt>
      <trkpt lat="46.424720445647836" lon="8.428800506517291">
        <ele>2247.6999999999998</ele>
        <time>2012-03-01T10:15:48Z</time>
      </trkpt>
      <trkpt lat="46.424588179215789" lon="8.428812576457858">
        <ele>2245.7800000000002</ele>
        <time>2012-03-01T10:16:00Z</time>
      </trkpt>
      <trkpt lat="46.424482483416796" lon="8.428831854835153">
        <ele>2246.7399999999998</ele>
        <time>2012-03-01T10:16:12Z</time>
      </trkpt>
      <trkpt lat="46.424367064610124" lon="8.428825987502933">
        <ele>2247.6999999999998</ele>
        <time>2012-03-01T10:16:23Z</time>
      </trkpt>
      <trkpt lat="46.424259021878242" lon="8.428766895085573">
        <ele>2249.1399999999999</ele>
        <time>2012-03-01T10:16:37Z</time>
      </trkpt>
      <trkpt lat="46.424192050471902" lon="8.42872959561646">
        <ele>2250.0999999999999</ele>
        <time>2012-03-01T10:16:45Z</time>
      </trkpt>
      <trkpt lat="46.42409129999578" lon="8.428678633645177">
        <ele>2250.5799999999999</ele>
        <time>2012-03-01T10:16:57Z</time>
      </trkpt>
      <trkpt lat="46.424059197306633" lon="8.428670838475227">
        <ele>2251.0599999999999</ele>
        <time>2012-03-01T10:17:01Z</time>
      </trkpt>
      <trkpt lat="46.423942102119327" lon="8.428637646138668">
        <ele>2252.0300000000002</ele>
        <time>2012-03-01T10:17:14Z</time>
      </trkpt>
      <trkpt lat="46.423810087144375" lon="8.428606800734997">
        <ele>2252.0300000000002</ele>
        <time>2012-03-01T10:17:27Z</time>
      </trkpt>
      <trkpt lat="46.423698356375098" lon="8.428578721359372">
        <ele>2252.5100000000002</ele>
        <time>2012-03-01T10:17:39Z</time>
      </trkpt>
      <trkpt lat="46.423564916476607" lon="8.428593724966049">
        <ele>2251.54</ele>
        <time>2012-03-01T10:17:51Z</time>
      </trkpt>
      <trkpt lat="46.423447569832206" lon="8.428648207336664">
        <ele>2250.5799999999999</ele>
        <time>2012-03-01T10:18:02Z</time>
      </trkpt>
      <trkpt lat="46.423337599262595" lon="8.428717274218798">
        <ele>2248.1799999999998</ele>
        <time>2012-03-01T10:18:14Z</time>
      </trkpt>
      <trkpt lat="46.423221845179796" lon="8.428773768246174">
        <ele>2246.2600000000002</ele>
        <time>2012-03-01T10:18:25Z</time>
      </trkpt>
      <trkpt lat="46.423203907907009" lon="8.428796231746674">
        <ele>2245.7800000000002</ele>
        <time>2012-03-01T10:18:28Z</time>
      </trkpt>
      <trkpt lat="46.423090333119035" lon="8.428898490965366">
        <ele>2244.3299999999999</ele>
        <time>2012-03-01T10:18:42Z</time>
      </trkpt>
      <trkpt lat="46.423078514635563" lon="8.428893629461527">
        <ele>2245.3000000000002</ele>
        <time>2012-03-01T10:18:53Z</time>
      </trkpt>
      <trkpt lat="46.423081113025546" lon="8.428906286135316">
        <ele>2245.3000000000002</ele>
        <time>2012-03-01T10:19:02Z</time>
      </trkpt>
      <trkpt lat="46.423060325905681" lon="8.42891969718039">
        <ele>2245.3000000000002</ele>
        <time>2012-03-01T10:19:05Z</time>
      </trkpt>
      <trkpt lat="46.423044987022877" lon="8.428961439058185">
        <ele>2244.3299999999999</ele>
        <time>2012-03-01T10:19:09Z</time>
      </trkpt>
      <trkpt lat="46.423065355047584" lon="8.42900468967855">
        <ele>2244.3299999999999</ele>
        <time>2012-03-01T10:19:13Z</time>
      </trkpt>
      <trkpt lat="46.423089243471622" lon="8.429009215906262">
        <ele>2244.3299999999999</ele>
        <time>2012-03-01T10:19:29Z</time>
      </trkpt>
      <trkpt lat="46.423103576526046" lon="8.429015083238483">
        <ele>2244.3299999999999</ele>
        <time>2012-03-01T10:19:31Z</time>
      </trkpt>
      <trkpt lat="46.423133667558432" lon="8.429039306938648">
        <ele>2243.8499999999999</ele>
        <time>2012-03-01T10:19:34Z</time>
      </trkpt>
      <trkpt lat="46.423233915120363" lon="8.429066548123956">
        <ele>2243.8499999999999</ele>
        <time>2012-03-01T10:19:44Z</time>
      </trkpt>
      <trkpt lat="46.423328211531043" lon="8.429083228111267">
        <ele>2244.3299999999999</ele>
        <time>2012-03-01T10:19:54Z</time>
      </trkpt>
      <trkpt lat="46.423343466594815" lon="8.429105775430799">
        <ele>2243.8499999999999</ele>
        <time>2012-03-01T10:19:56Z</time>
      </trkpt>
      <trkpt lat="46.423364924266934" lon="8.42913662083447">
        <ele>2243.8499999999999</ele>
        <time>2012-03-01T10:20:09Z</time>
      </trkpt>
      <trkpt lat="46.423413706943393" lon="8.429175093770027">
        <ele>2243.8499999999999</ele>
        <time>2012-03-01T10:20:35Z</time>
      </trkpt>
      <trkpt lat="46.423525018617511" lon="8.429190767928958">
        <ele>2241.9299999999998</ele>
        <time>2012-03-01T10:20:47Z</time>
      </trkpt>
      <trkpt lat="46.42358067445457" lon="8.429204430431128">
        <ele>2242.4099999999999</ele>
        <time>2012-03-01T10:20:56Z</time>
      </trkpt>
      <trkpt lat="46.423591738566756" lon="8.429249692708254">
        <ele>2242.8899999999999</ele>
        <time>2012-03-01T10:21:07Z</time>
      </trkpt>
      <trkpt lat="46.423598863184452" lon="8.429299229755998">
        <ele>2242.4099999999999</ele>
        <time>2012-03-01T10:21:14Z</time>
      </trkpt>
      <trkpt lat="46.423591235652566" lon="8.429313730448484">
        <ele>2242.4099999999999</ele>
        <time>2012-03-01T10:21:16Z</time>
      </trkpt>
      <trkpt lat="46.423586960881948" lon="8.42932814732194">
        <ele>2242.4099999999999</ele>
        <time>2012-03-01T10:21:29Z</time>
      </trkpt>
      <trkpt lat="46.423577656969428" lon="8.429311299696565">
        <ele>2241.9299999999998</ele>
        <time>2012-03-01T10:21:46Z</time>
      </trkpt>
      <trkpt lat="46.423580590635538" lon="8.429325046017766">
        <ele>2242.4099999999999</ele>
        <time>2012-03-01T10:22:01Z</time>
      </trkpt>
      <trkpt lat="46.423590397462249" lon="8.42930861748755">
        <ele>2242.4099999999999</ele>
        <time>2012-03-01T10:22:14Z</time>
      </trkpt>
      <trkpt lat="46.423586290329695" lon="8.429318927228451">
        <ele>2242.4099999999999</ele>
        <time>2012-03-01T10:22:27Z</time>
      </trkpt>
      <trkpt lat="46.423591403290629" lon="8.429323956370354">
        <ele>2242.4099999999999</ele>
        <time>2012-03-01T10:22:44Z</time>
      </trkpt>
      <trkpt lat="46.423591319471598" lon="8.429312473163009">
        <ele>2242.8899999999999</ele>
        <time>2012-03-01T10:22:57Z</time>
      </trkpt>
      <trkpt lat="46.423592157661915" lon="8.429301660507917">
        <ele>2242.4099999999999</ele>
        <time>2012-03-01T10:23:16Z</time>
      </trkpt>
      <trkpt lat="46.423597857356071" lon="8.429321525618434">
        <ele>2242.4099999999999</ele>
        <time>2012-03-01T10:23:26Z</time>
      </trkpt>
      <trkpt lat="46.423614034429193" lon="8.429335271939635">
        <ele>2241.9299999999998</ele>
        <time>2012-03-01T10:23:38Z</time>
      </trkpt>
      <trkpt lat="46.42360758036375" lon="8.429336696863174">
        <ele>2241.9299999999998</ele>
        <time>2012-03-01T10:23:47Z</time>
      </trkpt>
      <trkpt lat="46.423602886497974" lon="8.429345246404409">
        <ele>2241.9299999999998</ele>
        <time>2012-03-01T10:24:03Z</time>
      </trkpt>
      <trkpt lat="46.423598695546389" lon="8.42933988198638">
        <ele>2242.4099999999999</ele>
        <time>2012-03-01T10:24:21Z</time>
      </trkpt>
      <trkpt lat="46.423601293936372" lon="8.429343486204743">
        <ele>2241.9299999999998</ele>
        <time>2012-03-01T10:24:23Z</time>
      </trkpt>
      <trkpt lat="46.42361051402986" lon="8.429351029917598">
        <ele>2240.9699999999998</ele>
        <time>2012-03-01T10:24:32Z</time>
      </trkpt>
      <trkpt lat="46.423610430210829" lon="8.429357148706913">
        <ele>2240.9699999999998</ele>
        <time>2012-03-01T10:25:03Z</time>
      </trkpt>
      <trkpt lat="46.423611268401146" lon="8.429357903078198">
        <ele>2241.4499999999998</ele>
        <time>2012-03-01T10:25:21Z</time>
      </trkpt>
      <trkpt lat="46.423619650304317" lon="8.429377935826778">
        <ele>2242.4099999999999</ele>
        <time>2012-03-01T10:25:30Z</time>
      </trkpt>
      <trkpt lat="46.423611268401146" lon="8.429365279152989">
        <ele>2241.9299999999998</ele>
        <time>2012-03-01T10:25:49Z</time>
      </trkpt>
      <trkpt lat="46.42360707744956" lon="8.429365279152989">
        <ele>2241.9299999999998</ele>
        <time>2012-03-01T10:26:15Z</time>
      </trkpt>
      <trkpt lat="46.423607245087624" lon="8.429356813430786">
        <ele>2242.4099999999999</ele>
        <time>2012-03-01T10:26:33Z</time>
      </trkpt>
      <trkpt lat="46.423608334735036" lon="8.429364608600736">
        <ele>2242.4099999999999</ele>
        <time>2012-03-01T10:26:47Z</time>
      </trkpt>
      <trkpt lat="46.423608921468258" lon="8.42936628498137">
        <ele>2241.9299999999998</ele>
        <time>2012-03-01T10:27:04Z</time>
      </trkpt>
      <trkpt lat="46.42360900528729" lon="8.42936041764915">
        <ele>2241.9299999999998</ele>
        <time>2012-03-01T10:27:16Z</time>
      </trkpt>
      <trkpt lat="46.423611184582114" lon="8.429361004382372">
        <ele>2242.4099999999999</ele>
        <time>2012-03-01T10:27:42Z</time>
      </trkpt>
      <trkpt lat="46.423608837649226" lon="8.429356729611754">
        <ele>2241.9299999999998</ele>
        <time>2012-03-01T10:28:07Z</time>
      </trkpt>
      <trkpt lat="46.42360607162118" lon="8.429351784288883">
        <ele>2241.9299999999998</ele>
        <time>2012-03-01T10:28:33Z</time>
      </trkpt>
      <trkpt lat="46.423607664182782" lon="8.429346000775695">
        <ele>2241.9299999999998</ele>
        <time>2012-03-01T10:29:03Z</time>
      </trkpt>
      <trkpt lat="46.423602635040879" lon="8.429351365193725">
        <ele>2241.9299999999998</ele>
        <time>2012-03-01T10:29:27Z</time>
      </trkpt>
      <trkpt lat="46.423599449917674" lon="8.429349102079868">
        <ele>2241.9299999999998</ele>
        <time>2012-03-01T10:29:56Z</time>
      </trkpt>
      <trkpt lat="46.423600874841213" lon="8.429347844794393">
        <ele>2241.9299999999998</ele>
        <time>2012-03-01T10:30:17Z</time>
      </trkpt>
      <trkpt lat="46.423608753830194" lon="8.429348096251488">
        <ele>2241.9299999999998</ele>
        <time>2012-03-01T10:30:46Z</time>
      </trkpt>
      <trkpt lat="46.42361001111567" lon="8.429350862279534">
        <ele>2241.9299999999998</ele>
        <time>2012-03-01T10:31:14Z</time>
      </trkpt>
      <trkpt lat="46.423607412725687" lon="8.429358070716262">
        <ele>2241.9299999999998</ele>
        <time>2012-03-01T10:31:37Z</time>
      </trkpt>
      <trkpt lat="46.423605317249894" lon="8.429351868107915">
        <ele>2241.9299999999998</ele>
        <time>2012-03-01T10:32:05Z</time>
      </trkpt>
      <trkpt lat="46.42360020428896" lon="8.429356394335628">
        <ele>2241.9299999999998</ele>
        <time>2012-03-01T10:32:24Z</time>
      </trkpt>
      <trkpt lat="46.423605065792799" lon="8.429353460669518">
        <ele>2241.9299999999998</ele>
        <time>2012-03-01T10:32:47Z</time>
      </trkpt>
      <trkpt lat="46.423603557050228" lon="8.429366955533624">
        <ele>2242.4099999999999</ele>
        <time>2012-03-01T10:33:14Z</time>
      </trkpt>
      <trkpt lat="46.42360070720315" lon="8.429362513124943">
        <ele>2242.4099999999999</ele>
        <time>2012-03-01T10:33:37Z</time>
      </trkpt>
      <trkpt lat="46.423602215945721" lon="8.429357148706913">
        <ele>2242.8899999999999</ele>
        <time>2012-03-01T10:34:06Z</time>
      </trkpt>
      <trkpt lat="46.423602048307657" lon="8.429354215040803">
        <ele>2242.8899999999999</ele>
        <time>2012-03-01T10:34:30Z</time>
      </trkpt>
      <trkpt lat="46.423603221774101" lon="8.429353293031454">
        <ele>2242.4099999999999</ele>
        <time>2012-03-01T10:34:51Z</time>
      </trkpt>
      <trkpt lat="46.423635659739375" lon="8.429356645792723">
        <ele>2242.4099999999999</ele>
        <time>2012-03-01T10:35:08Z</time>
      </trkpt>
      <trkpt lat="46.423650998622179" lon="8.429356394335628">
        <ele>2241.9299999999998</ele>
        <time>2012-03-01T10:35:22Z</time>
      </trkpt>
      <trkpt lat="46.423665750771761" lon="8.42936921864748">
        <ele>2241.9299999999998</ele>
        <time>2012-03-01T10:35:38Z</time>
      </trkpt>
      <trkpt lat="46.423773793503642" lon="8.429450858384371">
        <ele>2239.5300000000002</ele>
        <time>2012-03-01T10:35:51Z</time>
      </trkpt>
      <trkpt lat="46.423877477645874" lon="8.429522775113583">
        <ele>2237.6100000000001</ele>
        <time>2012-03-01T10:36:03Z</time>
      </trkpt>
      <trkpt lat="46.423974791541696" lon="8.429558230563998">
        <ele>2235.6799999999998</ele>
        <time>2012-03-01T10:36:13Z</time>
      </trkpt>
      <trkpt lat="46.423985436558723" lon="8.429562589153647">
        <ele>2235.6799999999998</ele>
        <time>2012-03-01T10:36:14Z</time>
      </trkpt>
      <trkpt lat="46.424138071015477" lon="8.429534928873181">
        <ele>2233.2800000000002</ele>
        <time>2012-03-01T10:36:28Z</time>
      </trkpt>
      <trkpt lat="46.424240497872233" lon="8.429511962458491">
        <ele>2229.9200000000001</ele>
        <time>2012-03-01T10:36:41Z</time>
      </trkpt>
      <trkpt lat="46.424309983849525" lon="8.429572312161326">
        <ele>2227.5100000000002</ele>
        <time>2012-03-01T10:36:50Z</time>
      </trkpt>
      <trkpt lat="46.424377039074898" lon="8.429679935798049">
        <ele>2224.1500000000001</ele>
        <time>2012-03-01T10:37:02Z</time>
      </trkpt>
      <trkpt lat="46.424415428191423" lon="8.429759815335274">
        <ele>2222.71</ele>
        <time>2012-03-01T10:37:09Z</time>
      </trkpt>
      <trkpt lat="46.424427162855864" lon="8.42978848144412">
        <ele>2221.7399999999998</ele>
        <time>2012-03-01T10:37:12Z</time>
      </trkpt>
      <trkpt lat="46.424430934712291" lon="8.429822428151965">
        <ele>2221.7399999999998</ele>
        <time>2012-03-01T10:37:14Z</time>
      </trkpt>
      <trkpt lat="46.424435963854194" lon="8.429906498640776">
        <ele>2220.7800000000002</ele>
        <time>2012-03-01T10:37:19Z</time>
      </trkpt>
      <trkpt lat="46.424438478425145" lon="8.429965674877167">
        <ele>2219.8200000000002</ele>
        <time>2012-03-01T10:37:23Z</time>
      </trkpt>
      <trkpt lat="46.424443423748016" lon="8.430024599656463">
        <ele>2219.8200000000002</ele>
        <time>2012-03-01T10:37:27Z</time>
      </trkpt>
      <trkpt lat="46.424478711560369" lon="8.430213108658791">
        <ele>2219.8200000000002</ele>
        <time>2012-03-01T10:37:40Z</time>
      </trkpt>
      <trkpt lat="46.42448365688324" lon="8.430245127528906">
        <ele>2220.3000000000002</ele>
        <time>2012-03-01T10:37:52Z</time>
      </trkpt>
      <trkpt lat="46.424567895010114" lon="8.430325090885162">
        <ele>2219.8200000000002</ele>
        <time>2012-03-01T10:38:03Z</time>
      </trkpt>
      <trkpt lat="46.424627909436822" lon="8.430363228544593">
        <ele>2219.8200000000002</ele>
        <time>2012-03-01T10:38:10Z</time>
      </trkpt>
      <trkpt lat="46.42463905736804" lon="8.430367084220052">
        <ele>2219.8200000000002</ele>
        <time>2012-03-01T10:38:23Z</time>
      </trkpt>
      <trkpt lat="46.424635285511613" lon="8.430369347333908">
        <ele>2219.8200000000002</ele>
        <time>2012-03-01T10:38:33Z</time>
      </trkpt>
      <trkpt lat="46.424744920805097" lon="8.430391810834408">
        <ele>2219.8200000000002</ele>
        <time>2012-03-01T10:38:44Z</time>
      </trkpt>
      <trkpt lat="46.424872828647494" lon="8.430420896038413">
        <ele>2219.8200000000002</ele>
        <time>2012-03-01T10:38:57Z</time>
      </trkpt>
      <trkpt lat="46.424979530274868" lon="8.430482419207692">
        <ele>2220.3000000000002</ele>
        <time>2012-03-01T10:39:08Z</time>
      </trkpt>
      <trkpt lat="46.4251125510782" lon="8.430577218532562">
        <ele>2220.3000000000002</ele>
        <time>2012-03-01T10:39:21Z</time>
      </trkpt>
      <trkpt lat="46.425167117267847" lon="8.43062843196094">
        <ele>2219.8200000000002</ele>
        <time>2012-03-01T10:39:27Z</time>
      </trkpt>
      <trkpt lat="46.425278093665838" lon="8.430740162730217">
        <ele>2219.3400000000001</ele>
        <time>2012-03-01T10:39:40Z</time>
      </trkpt>
      <trkpt lat="46.425364846363664" lon="8.430806715041399">
        <ele>2219.8200000000002</ele>
        <time>2012-03-01T10:39:49Z</time>
      </trkpt>
      <trkpt lat="46.425487222149968" lon="8.43090302310884">
        <ele>2219.3400000000001</ele>
        <time>2012-03-01T10:40:02Z</time>
      </trkpt>
      <trkpt lat="46.425530472770333" lon="8.430945854634047">
        <ele>2219.3400000000001</ele>
        <time>2012-03-01T10:40:07Z</time>
      </trkpt>
      <trkpt lat="46.425651088356972" lon="8.431058926507831">
        <ele>2219.3400000000001</ele>
        <time>2012-03-01T10:40:20Z</time>
      </trkpt>
      <trkpt lat="46.425783019512892" lon="8.431150792166591">
        <ele>2219.3400000000001</ele>
        <time>2012-03-01T10:40:34Z</time>
      </trkpt>
      <trkpt lat="46.425897516310215" lon="8.431218937039375">
        <ele>2219.3400000000001</ele>
        <time>2012-03-01T10:40:46Z</time>
      </trkpt>
      <trkpt lat="46.425957446917892" lon="8.431256823241711">
        <ele>2219.3400000000001</ele>
        <time>2012-03-01T10:40:52Z</time>
      </trkpt>
      <trkpt lat="46.426093736663461" lon="8.431333433836699">
        <ele>2219.3400000000001</ele>
        <time>2012-03-01T10:41:05Z</time>
      </trkpt>
      <trkpt lat="46.426200941205025" lon="8.431382048875094">
        <ele>2219.8200000000002</ele>
        <time>2012-03-01T10:41:17Z</time>
      </trkpt>
      <trkpt lat="46.42629599198699" lon="8.43142437748611">
        <ele>2219.3400000000001</ele>
        <time>2012-03-01T10:41:27Z</time>
      </trkpt>
      <trkpt lat="46.426353910937905" lon="8.43145270831883">
        <ele>2219.3400000000001</ele>
        <time>2012-03-01T10:41:32Z</time>
      </trkpt>
      <trkpt lat="46.426478633657098" lon="8.431500988081098">
        <ele>2219.3400000000001</ele>
        <time>2012-03-01T10:41:44Z</time>
      </trkpt>
      <trkpt lat="46.426607212051749" lon="8.431560080498457">
        <ele>2219.3400000000001</ele>
        <time>2012-03-01T10:41:57Z</time>
      </trkpt>
      <trkpt lat="46.426738891750574" lon="8.431607019156218">
        <ele>2219.3400000000001</ele>
        <time>2012-03-01T10:42:10Z</time>
      </trkpt>
      <trkpt lat="46.426861770451069" lon="8.431671308353543">
        <ele>2219.3400000000001</ele>
        <time>2012-03-01T10:42:22Z</time>
      </trkpt>
      <trkpt lat="46.426987834274769" lon="8.431736854836345">
        <ele>2219.3400000000001</ele>
        <time>2012-03-01T10:42:35Z</time>
      </trkpt>
      <trkpt lat="46.427090931683779" lon="8.431797791272402">
        <ele>2218.8600000000001</ele>
        <time>2012-03-01T10:42:47Z</time>
      </trkpt>
      <trkpt lat="46.427119513973594" lon="8.431854117661715">
        <ele>2219.3400000000001</ele>
        <time>2012-03-01T10:43:00Z</time>
      </trkpt>
      <trkpt lat="46.427129739895463" lon="8.431861912831664">
        <ele>2219.3400000000001</ele>
        <time>2012-03-01T10:43:11Z</time>
      </trkpt>
      <trkpt lat="46.427214564755559" lon="8.431897284463048">
        <ele>2219.3400000000001</ele>
        <time>2012-03-01T10:43:23Z</time>
      </trkpt>
      <trkpt lat="46.427329732105136" lon="8.43196090310812">
        <ele>2218.8600000000001</ele>
        <time>2012-03-01T10:43:34Z</time>
      </trkpt>
      <trkpt lat="46.427436349913478" lon="8.43202686868608">
        <ele>2219.3400000000001</ele>
        <time>2012-03-01T10:43:46Z</time>
      </trkpt>
      <trkpt lat="46.427568448707461" lon="8.432123260572553">
        <ele>2219.3400000000001</ele>
        <time>2012-03-01T10:43:59Z</time>
      </trkpt>
      <trkpt lat="46.427699122577906" lon="8.432222669944167">
        <ele>2219.3400000000001</ele>
        <time>2012-03-01T10:44:13Z</time>
      </trkpt>
      <trkpt lat="46.427816050127149" lon="8.432310177013278">
        <ele>2219.3400000000001</ele>
        <time>2012-03-01T10:44:26Z</time>
      </trkpt>
      <trkpt lat="46.427943203598261" lon="8.432406317442656">
        <ele>2218.8600000000001</ele>
        <time>2012-03-01T10:44:40Z</time>
      </trkpt>
      <trkpt lat="46.428045378997922" lon="8.432489801198244">
        <ele>2219.3400000000001</ele>
        <time>2012-03-01T10:44:52Z</time>
      </trkpt>
      <trkpt lat="46.428142860531807" lon="8.432564316317439">
        <ele>2219.3400000000001</ele>
        <time>2012-03-01T10:45:03Z</time>
      </trkpt>
      <trkpt lat="46.428255178034306" lon="8.432647716253996">
        <ele>2219.8200000000002</ele>
        <time>2012-03-01T10:45:16Z</time>
      </trkpt>
      <trkpt lat="46.428355174139142" lon="8.432690631598234">
        <ele>2220.3000000000002</ele>
        <time>2012-03-01T10:45:28Z</time>
      </trkpt>
      <trkpt lat="46.428456092253327" lon="8.432752070948482">
        <ele>2221.7399999999998</ele>
        <time>2012-03-01T10:45:40Z</time>
      </trkpt>
      <trkpt lat="46.428508311510086" lon="8.432811750099063">
        <ele>2221.2600000000002</ele>
        <time>2012-03-01T10:45:46Z</time>
      </trkpt>
      <trkpt lat="46.428605876863003" lon="8.432931108400226">
        <ele>2221.7399999999998</ele>
        <time>2012-03-01T10:45:59Z</time>
      </trkpt>
      <trkpt lat="46.428653402253985" lon="8.433002103120089">
        <ele>2221.7399999999998</ele>
        <time>2012-03-01T10:46:06Z</time>
      </trkpt>
      <trkpt lat="46.428747195750475" lon="8.433112744241953">
        <ele>2222.2199999999998</ele>
        <time>2012-03-01T10:46:19Z</time>
      </trkpt>
      <trkpt lat="46.42881877720356" lon="8.433220200240612">
        <ele>2222.71</ele>
        <time>2012-03-01T10:46:31Z</time>
      </trkpt>
      <trkpt lat="46.428911816328764" lon="8.433362441137433">
        <ele>2222.2199999999998</ele>
        <time>2012-03-01T10:46:44Z</time>
      </trkpt>
      <trkpt lat="46.428928328678012" lon="8.433381970971823">
        <ele>2222.2199999999998</ele>
        <time>2012-03-01T10:46:46Z</time>
      </trkpt>
      <trkpt lat="46.428941320627928" lon="8.433406362310052">
        <ele>2221.7399999999998</ele>
        <time>2012-03-01T10:46:48Z</time>
      </trkpt>
      <trkpt lat="46.429034108296037" lon="8.43350644223392">
        <ele>2221.7399999999998</ele>
        <time>2012-03-01T10:47:01Z</time>
      </trkpt>
      <trkpt lat="46.429126560688019" lon="8.433559332042933">
        <ele>2222.2199999999998</ele>
        <time>2012-03-01T10:47:13Z</time>
      </trkpt>
      <trkpt lat="46.429192610085011" lon="8.43356410972774">
        <ele>2223.1900000000001</ele>
        <time>2012-03-01T10:47:25Z</time>
      </trkpt>
      <trkpt lat="46.429199483245611" lon="8.433560254052281">
        <ele>2222.71</ele>
        <time>2012-03-01T10:47:34Z</time>
      </trkpt>
      <trkpt lat="46.429298641160131" lon="8.433485068380833">
        <ele>2223.1900000000001</ele>
        <time>2012-03-01T10:47:48Z</time>
      </trkpt>
      <trkpt lat="46.429302245378494" lon="8.433475429192185">
        <ele>2223.1900000000001</ele>
        <time>2012-03-01T10:47:49Z</time>
      </trkpt>
      <trkpt lat="46.429363517090678" lon="8.433369230479002">
        <ele>2223.1900000000001</ele>
        <time>2012-03-01T10:48:00Z</time>
      </trkpt>
      <trkpt lat="46.42948916181922" lon="8.433318017050624">
        <ele>2222.2199999999998</ele>
        <time>2012-03-01T10:48:12Z</time>
      </trkpt>
      <trkpt lat="46.429506931453943" lon="8.433330003172159">
        <ele>2222.2199999999998</ele>
        <time>2012-03-01T10:48:14Z</time>
      </trkpt>
      <trkpt lat="46.429517325013876" lon="8.433326063677669">
        <ele>2222.2199999999998</ele>
        <time>2012-03-01T10:48:16Z</time>
      </trkpt>
      <trkpt lat="46.429646573960781" lon="8.433299576863647">
        <ele>2222.2199999999998</ele>
        <time>2012-03-01T10:48:30Z</time>
      </trkpt>
      <trkpt lat="46.42971002496779" lon="8.433292116969824">
        <ele>2221.7399999999998</ele>
        <time>2012-03-01T10:48:36Z</time>
      </trkpt>
      <trkpt lat="46.42972469329834" lon="8.433313155546784">
        <ele>2221.7399999999998</ele>
        <time>2012-03-01T10:48:38Z</time>
      </trkpt>
      <trkpt lat="46.429817648604512" lon="8.433269821107388">
        <ele>2221.7399999999998</ele>
        <time>2012-03-01T10:48:49Z</time>
      </trkpt>
      <trkpt lat="46.429852098226547" lon="8.433258840814233">
        <ele>2222.2199999999998</ele>
        <time>2012-03-01T10:48:53Z</time>
      </trkpt>
      <trkpt lat="46.429871628060937" lon="8.433226570487022">
        <ele>2222.71</ele>
        <time>2012-03-01T10:48:58Z</time>
      </trkpt>
      <trkpt lat="46.429954189807177" lon="8.433188516646624">
        <ele>2222.2199999999998</ele>
        <time>2012-03-01T10:49:06Z</time>
      </trkpt>
      <trkpt lat="46.429996183142066" lon="8.433189773932099">
        <ele>2221.2600000000002</ele>
        <time>2012-03-01T10:49:10Z</time>
      </trkpt>
      <trkpt lat="46.430114870890975" lon="8.433161862194538">
        <ele>2221.7399999999998</ele>
        <time>2012-03-01T10:49:23Z</time>
      </trkpt>
      <trkpt lat="46.430144878104329" lon="8.433154821395874">
        <ele>2221.2600000000002</ele>
        <time>2012-03-01T10:49:34Z</time>
      </trkpt>
      <trkpt lat="46.430142112076283" lon="8.433145685121417">
        <ele>2220.3000000000002</ele>
        <time>2012-03-01T10:49:55Z</time>
      </trkpt>
      <trkpt lat="46.430152170360088" lon="8.433164209127426">
        <ele>2220.7800000000002</ele>
        <time>2012-03-01T10:50:31Z</time>
      </trkpt>
      <trkpt lat="46.430152840912342" lon="8.433160940185189">
        <ele>2221.2600000000002</ele>
        <time>2012-03-01T10:50:40Z</time>
      </trkpt>
      <trkpt lat="46.430151667445898" lon="8.433157922700048">
        <ele>2221.7399999999998</ele>
        <time>2012-03-01T10:50:49Z</time>
      </trkpt>
      <trkpt lat="46.430136244744062" lon="8.433159934356809">
        <ele>2221.7399999999998</ele>
        <time>2012-03-01T10:51:04Z</time>
      </trkpt>
      <trkpt lat="46.430142028257251" lon="8.433160437270999">
        <ele>2221.2600000000002</ele>
        <time>2012-03-01T10:51:17Z</time>
      </trkpt>
      <trkpt lat="46.430137669667602" lon="8.433149876073003">
        <ele>2221.2600000000002</ele>
        <time>2012-03-01T10:51:37Z</time>
      </trkpt>
      <trkpt lat="46.430142028257251" lon="8.433168902993202">
        <ele>2221.7399999999998</ele>
        <time>2012-03-01T10:51:59Z</time>
      </trkpt>
      <trkpt lat="46.430138340219855" lon="8.433163370937109">
        <ele>2221.7399999999998</ele>
        <time>2012-03-01T10:52:14Z</time>
      </trkpt>
      <trkpt lat="46.43013859167695" lon="8.433159263804555">
        <ele>2221.2600000000002</ele>
        <time>2012-03-01T10:52:33Z</time>
      </trkpt>
      <trkpt lat="46.430142279714346" lon="8.433159431442618">
        <ele>2221.7399999999998</ele>
        <time>2012-03-01T10:52:57Z</time>
      </trkpt>
      <trkpt lat="46.430143034085631" lon="8.433169322088361">
        <ele>2221.7399999999998</ele>
        <time>2012-03-01T10:53:12Z</time>
      </trkpt>
      <trkpt lat="46.430139178410172" lon="8.433169322088361">
        <ele>2221.7399999999998</ele>
        <time>2012-03-01T10:53:30Z</time>
      </trkpt>
      <trkpt lat="46.430135909467936" lon="8.433165131136775">
        <ele>2221.7399999999998</ele>
        <time>2012-03-01T10:53:44Z</time>
      </trkpt>
      <trkpt lat="46.43014588393271" lon="8.433170495554805">
        <ele>2221.7399999999998</ele>
        <time>2012-03-01T10:53:59Z</time>
      </trkpt>
      <trkpt lat="46.430150829255581" lon="8.43315901234746">
        <ele>2221.7399999999998</ele>
        <time>2012-03-01T10:54:17Z</time>
      </trkpt>
      <trkpt lat="46.43016155809164" lon="8.433184241876006">
        <ele>2222.2199999999998</ele>
        <time>2012-03-01T10:54:31Z</time>
      </trkpt>
      <trkpt lat="46.430179579183459" lon="8.433221038430929">
        <ele>2221.2600000000002</ele>
        <time>2012-03-01T10:54:34Z</time>
      </trkpt>
      <trkpt lat="46.430174801498652" lon="8.433261020109057">
        <ele>2221.2600000000002</ele>
        <time>2012-03-01T10:54:37Z</time>
      </trkpt>
      <trkpt lat="46.430141273885965" lon="8.43331147916615">
        <ele>2221.7399999999998</ele>
        <time>2012-03-01T10:54:42Z</time>
      </trkpt>
      <trkpt lat="46.430139010772109" lon="8.433341737836599">
        <ele>2221.7399999999998</ele>
        <time>2012-03-01T10:54:44Z</time>
      </trkpt>
      <trkpt lat="46.430120067670941" lon="8.433517506346107">
        <ele>2221.7399999999998</ele>
        <time>2012-03-01T10:54:57Z</time>
      </trkpt>
      <trkpt lat="46.430107410997152" lon="8.433667123317719">
        <ele>2222.2199999999998</ele>
        <time>2012-03-01T10:55:08Z</time>
      </trkpt>
      <trkpt lat="46.430111518129706" lon="8.43382160179317">
        <ele>2222.71</ele>
        <time>2012-03-01T10:55:20Z</time>
      </trkpt>
      <trkpt lat="46.430133394896984" lon="8.433876419439912">
        <ele>2222.2199999999998</ele>
        <time>2012-03-01T10:55:26Z</time>
      </trkpt>
      <trkpt lat="46.430182429030538" lon="8.434012541547418">
        <ele>2222.2199999999998</ele>
        <time>2012-03-01T10:55:38Z</time>
      </trkpt>
      <trkpt lat="46.430242275819182" lon="8.434147322550416">
        <ele>2222.2199999999998</ele>
        <time>2012-03-01T10:55:50Z</time>
      </trkpt>
      <trkpt lat="46.430295333266258" lon="8.434277912601829">
        <ele>2222.2199999999998</ele>
        <time>2012-03-01T10:56:02Z</time>
      </trkpt>
      <trkpt lat="46.430307235568762" lon="8.43433172442019">
        <ele>2222.71</ele>
        <time>2012-03-01T10:56:13Z</time>
      </trkpt>
      <trkpt lat="46.430357107892632" lon="8.434433396905661">
        <ele>2222.71</ele>
        <time>2012-03-01T10:56:24Z</time>
      </trkpt>
      <trkpt lat="46.430411338806152" lon="8.434518305584788">
        <ele>2222.71</ele>
        <time>2012-03-01T10:56:37Z</time>
      </trkpt>
      <trkpt lat="46.430425923317671" lon="8.434549318626523">
        <ele>2222.71</ele>
        <time>2012-03-01T10:56:47Z</time>
      </trkpt>
      <trkpt lat="46.430460708215833" lon="8.43457505106926">
        <ele>2223.6700000000001</ele>
        <time>2012-03-01T10:56:51Z</time>
      </trkpt>
      <trkpt lat="46.430511083453894" lon="8.434659624472261">
        <ele>2223.6700000000001</ele>
        <time>2012-03-01T10:57:00Z</time>
      </trkpt>
      <trkpt lat="46.430635051801801" lon="8.434779904782772">
        <ele>2224.6300000000001</ele>
        <time>2012-03-01T10:57:14Z</time>
      </trkpt>
      <trkpt lat="46.430732617154717" lon="8.434876464307308">
        <ele>2225.1100000000001</ele>
        <time>2012-03-01T10:57:26Z</time>
      </trkpt>
      <trkpt lat="46.430779807269573" lon="8.434894485399127">
        <ele>2224.6300000000001</ele>
        <time>2012-03-01T10:57:31Z</time>
      </trkpt>
      <trkpt lat="46.430888688191772" lon="8.434989284723997">
        <ele>2225.1100000000001</ele>
        <time>2012-03-01T10:57:43Z</time>
      </trkpt>
      <trkpt lat="46.430948283523321" lon="8.435009233653545">
        <ele>2225.1100000000001</ele>
        <time>2012-03-01T10:57:51Z</time>
      </trkpt>
      <trkpt lat="46.430986085906625" lon="8.435002947226167">
        <ele>2225.1100000000001</ele>
        <time>2012-03-01T10:57:54Z</time>
      </trkpt>
      <trkpt lat="46.431093877181411" lon="8.435087101534009">
        <ele>2225.5900000000001</ele>
        <time>2012-03-01T10:58:06Z</time>
      </trkpt>
      <trkpt lat="46.43121600151062" lon="8.435186930000782">
        <ele>2224.6300000000001</ele>
        <time>2012-03-01T10:58:20Z</time>
      </trkpt>
      <trkpt lat="46.431291857734323" lon="8.435287093743682">
        <ele>2223.6700000000001</ele>
        <time>2012-03-01T10:58:32Z</time>
      </trkpt>
      <trkpt lat="46.431289929896593" lon="8.435297487303615">
        <ele>2224.6300000000001</ele>
        <time>2012-03-01T10:58:45Z</time>
      </trkpt>
      <trkpt lat="46.431272327899933" lon="8.435282232239842">
        <ele>2224.6300000000001</ele>
        <time>2012-03-01T10:59:00Z</time>
      </trkpt>
      <trkpt lat="46.43129906617105" lon="8.435296062380076">
        <ele>2224.6300000000001</ele>
        <time>2012-03-01T10:59:13Z</time>
      </trkpt>
      <trkpt lat="46.431328067556024" lon="8.435322213917971">
        <ele>2224.6300000000001</ele>
        <time>2012-03-01T10:59:17Z</time>
      </trkpt>
      <trkpt lat="46.431432254612446" lon="8.435405278578401">
        <ele>2224.6300000000001</ele>
        <time>2012-03-01T10:59:30Z</time>
      </trkpt>
      <trkpt lat="46.431547170504928" lon="8.435458084568381">
        <ele>2223.6700000000001</ele>
        <time>2012-03-01T10:59:42Z</time>
      </trkpt>
      <trkpt lat="46.431554798036814" lon="8.435457581654191">
        <ele>2223.6700000000001</ele>
        <time>2012-03-01T10:59:43Z</time>
      </trkpt>
      <trkpt lat="46.431692261248827" lon="8.435517260804772">
        <ele>2222.2199999999998</ele>
        <time>2012-03-01T10:59:56Z</time>
      </trkpt>
      <trkpt lat="46.431809943169355" lon="8.435591859742999">
        <ele>2219.8200000000002</ele>
        <time>2012-03-01T11:00:08Z</time>
      </trkpt>
      <trkpt lat="46.431909268721938" lon="8.435639468953013">
        <ele>2219.8200000000002</ele>
        <time>2012-03-01T11:00:19Z</time>
      </trkpt>
      <trkpt lat="46.432009348645806" lon="8.43571599572897">
        <ele>2218.8600000000001</ele>
        <time>2012-03-01T11:00:30Z</time>
      </trkpt>
      <trkpt lat="46.432096604257822" lon="8.435750948265195">
        <ele>2218.3800000000001</ele>
        <time>2012-03-01T11:00:38Z</time>
      </trkpt>
      <trkpt lat="46.432157289236784" lon="8.435752792283893">
        <ele>2216.9400000000001</ele>
        <time>2012-03-01T11:00:44Z</time>
      </trkpt>
      <trkpt lat="46.432178327813745" lon="8.435753211379051">
        <ele>2216.9400000000001</ele>
        <time>2012-03-01T11:00:46Z</time>
      </trkpt>
      <trkpt lat="46.432313192635775" lon="8.435748685151339">
        <ele>2215.5</ele>
        <time>2012-03-01T11:01:00Z</time>
      </trkpt>
      <trkpt lat="46.432419391348958" lon="8.435737369582057">
        <ele>2215.5</ele>
        <time>2012-03-01T11:01:13Z</time>
      </trkpt>
      <trkpt lat="46.432428443804383" lon="8.435739045962691">
        <ele>2215.0100000000002</ele>
        <time>2012-03-01T11:01:27Z</time>
      </trkpt>
      <trkpt lat="46.432529194280505" lon="8.435729071497917">
        <ele>2214.5300000000002</ele>
        <time>2012-03-01T11:01:39Z</time>
      </trkpt>
      <trkpt lat="46.43255970440805" lon="8.435724545270205">
        <ele>2214.5300000000002</ele>
        <time>2012-03-01T11:01:43Z</time>
      </trkpt>
      <trkpt lat="46.432654336094856" lon="8.43573996797204">
        <ele>2214.0500000000002</ele>
        <time>2012-03-01T11:01:53Z</time>
      </trkpt>
      <trkpt lat="46.432763217017055" lon="8.435759833082557">
        <ele>2214.5300000000002</ele>
        <time>2012-03-01T11:02:05Z</time>
      </trkpt>
      <trkpt lat="46.432853657752275" lon="8.435773411765695">
        <ele>2215.0100000000002</ele>
        <time>2012-03-01T11:02:17Z</time>
      </trkpt>
      <trkpt lat="46.432921383529902" lon="8.435751870274544">
        <ele>2215.0100000000002</ele>
        <time>2012-03-01T11:02:25Z</time>
      </trkpt>
      <trkpt lat="46.432954575866461" lon="8.435739045962691">
        <ele>2215.0100000000002</ele>
        <time>2012-03-01T11:02:30Z</time>
      </trkpt>
      <trkpt lat="46.433061864227057" lon="8.435688335448504">
        <ele>2214.5300000000002</ele>
        <time>2012-03-01T11:02:42Z</time>
      </trkpt>
      <trkpt lat="46.433186503127217" lon="8.435662351548672">
        <ele>2214.5300000000002</ele>
        <time>2012-03-01T11:02:56Z</time>
      </trkpt>
      <trkpt lat="46.433302089571953" lon="8.435647515580058">
        <ele>2215.98</ele>
        <time>2012-03-01T11:03:09Z</time>
      </trkpt>
      <trkpt lat="46.433440977707505" lon="8.435652460902929">
        <ele>2216.46</ele>
        <time>2012-03-01T11:03:24Z</time>
      </trkpt>
      <trkpt lat="46.433543404564261" lon="8.435651706531644">
        <ele>2217.4200000000001</ele>
        <time>2012-03-01T11:03:35Z</time>
      </trkpt>
      <trkpt lat="46.433661673218012" lon="8.435692023485899">
        <ele>2216.9400000000001</ele>
        <time>2012-03-01T11:03:47Z</time>
      </trkpt>
      <trkpt lat="46.433709533885121" lon="8.43569353222847">
        <ele>2216.9400000000001</ele>
        <time>2012-03-01T11:03:52Z</time>
      </trkpt>
      <trkpt lat="46.433793772011995" lon="8.435698393732309">
        <ele>2216.9400000000001</ele>
        <time>2012-03-01T11:04:02Z</time>
      </trkpt>
      <trkpt lat="46.433816654607654" lon="8.435707446187735">
        <ele>2217.4200000000001</ele>
        <time>2012-03-01T11:04:05Z</time>
      </trkpt>
      <trkpt lat="46.433881614357233" lon="8.43573460355401">
        <ele>2217.4200000000001</ele>
        <time>2012-03-01T11:04:11Z</time>
      </trkpt>
      <trkpt lat="46.433995105326176" lon="8.435816913843155">
        <ele>2217.9000000000001</ele>
        <time>2012-03-01T11:04:24Z</time>
      </trkpt>
      <trkpt lat="46.434009606018662" lon="8.435813477262855">
        <ele>2217.9000000000001</ele>
        <time>2012-03-01T11:04:26Z</time>
      </trkpt>
      <trkpt lat="46.434118989855051" lon="8.435878688469529">
        <ele>2217.9000000000001</ele>
        <time>2012-03-01T11:04:39Z</time>
      </trkpt>
      <trkpt lat="46.434113373979926" lon="8.435886902734637">
        <ele>2218.3800000000001</ele>
        <time>2012-03-01T11:04:54Z</time>
      </trkpt>
      <trkpt lat="46.43414530903101" lon="8.435889584943652">
        <ele>2217.4200000000001</ele>
        <time>2012-03-01T11:04:57Z</time>
      </trkpt>
      <trkpt lat="46.434221249073744" lon="8.435910874977708">
        <ele>2217.4200000000001</ele>
        <time>2012-03-01T11:05:07Z</time>
      </trkpt>
      <trkpt lat="46.434333063662052" lon="8.435908863320947">
        <ele>2217.4200000000001</ele>
        <time>2012-03-01T11:05:18Z</time>
      </trkpt>
      <trkpt lat="46.434352342039347" lon="8.435901654884219">
        <ele>2216.9400000000001</ele>
        <time>2012-03-01T11:05:20Z</time>
      </trkpt>
      <trkpt lat="46.434421073645353" lon="8.435914563015103">
        <ele>2215.98</ele>
        <time>2012-03-01T11:05:27Z</time>
      </trkpt>
      <trkpt lat="46.434503635391593" lon="8.435948425903916">
        <ele>2215.98</ele>
        <time>2012-03-01T11:05:35Z</time>
      </trkpt>
      <trkpt lat="46.434629531577229" lon="8.436006931588054">
        <ele>2214.0500000000002</ele>
        <time>2012-03-01T11:05:47Z</time>
      </trkpt>
      <trkpt lat="46.434749895706773" lon="8.436058480292559">
        <ele>2213.0900000000001</ele>
        <time>2012-03-01T11:05:59Z</time>
      </trkpt>
      <trkpt lat="46.434889789670706" lon="8.436104580760002">
        <ele>2211.6500000000001</ele>
        <time>2012-03-01T11:06:12Z</time>
      </trkpt>
      <trkpt lat="46.434952737763524" lon="8.436119668185711">
        <ele>2210.6900000000001</ele>
        <time>2012-03-01T11:06:18Z</time>
      </trkpt>
      <trkpt lat="46.434991797432303" lon="8.436137940734625">
        <ele>2210.21</ele>
        <time>2012-03-01T11:06:22Z</time>
      </trkpt>
      <trkpt lat="46.435023816302419" lon="8.436136683449149">
        <ele>2210.21</ele>
        <time>2012-03-01T11:06:25Z</time>
      </trkpt>
      <trkpt lat="46.435146946460009" lon="8.436144646257162">
        <ele>2209.25</ele>
        <time>2012-03-01T11:06:38Z</time>
      </trkpt>
      <trkpt lat="46.435166392475367" lon="8.436134504154325">
        <ele>2208.77</ele>
        <time>2012-03-01T11:06:40Z</time>
      </trkpt>
      <trkpt lat="46.435197237879038" lon="8.436129223555327">
        <ele>2208.77</ele>
        <time>2012-03-01T11:06:51Z</time>
      </trkpt>
      <trkpt lat="46.435205033048987" lon="8.436128217726946">
        <ele>2208.29</ele>
        <time>2012-03-01T11:07:08Z</time>
      </trkpt>
      <trkpt lat="46.435199165716767" lon="8.436121344566345">
        <ele>2208.29</ele>
        <time>2012-03-01T11:07:19Z</time>
      </trkpt>
      <trkpt lat="46.43524375744164" lon="8.43611815944314">
        <ele>2208.29</ele>
        <time>2012-03-01T11:07:28Z</time>
      </trkpt>
      <trkpt lat="46.435282900929451" lon="8.436122769489884">
        <ele>2207.8099999999999</ele>
        <time>2012-03-01T11:07:33Z</time>
      </trkpt>
      <trkpt lat="46.435395637527108" lon="8.436100725084543">
        <ele>2207.3200000000002</ele>
        <time>2012-03-01T11:07:45Z</time>
      </trkpt>
      <trkpt lat="46.435455484315753" lon="8.436070298776031">
        <ele>2206.8400000000001</ele>
        <time>2012-03-01T11:07:55Z</time>
      </trkpt>
      <trkpt lat="46.435568640008569" lon="8.436014475300908">
        <ele>2205.8800000000001</ele>
        <time>2012-03-01T11:08:07Z</time>
      </trkpt>
      <trkpt lat="46.435585571452975" lon="8.436006596311927">
        <ele>2205.8800000000001</ele>
        <time>2012-03-01T11:08:09Z</time>
      </trkpt>
      <trkpt lat="46.435615327209234" lon="8.435987317934632">
        <ele>2205.8800000000001</ele>
        <time>2012-03-01T11:08:13Z</time>
      </trkpt>
      <trkpt lat="46.435715323314071" lon="8.435911377891898">
        <ele>2206.3600000000001</ele>
        <time>2012-03-01T11:08:25Z</time>
      </trkpt>
      <trkpt lat="46.435731584206223" lon="8.435907438397408">
        <ele>2206.3600000000001</ele>
        <time>2012-03-01T11:08:27Z</time>
      </trkpt>
      <trkpt lat="46.435821438208222" lon="8.435852956026793">
        <ele>2206.8400000000001</ele>
        <time>2012-03-01T11:08:38Z</time>
      </trkpt>
      <trkpt lat="46.435914309695363" lon="8.435805095359683">
        <ele>2208.29</ele>
        <time>2012-03-01T11:08:52Z</time>
      </trkpt>
      <trkpt lat="46.435999386012554" lon="8.435729909688234">
        <ele>2208.77</ele>
        <time>2012-03-01T11:09:04Z</time>
      </trkpt>
      <trkpt lat="46.436097035184503" lon="8.435699734836817">
        <ele>2208.29</ele>
        <time>2012-03-01T11:09:17Z</time>
      </trkpt>
      <trkpt lat="46.436174651607871" lon="8.435647012665868">
        <ele>2207.3200000000002</ele>
        <time>2012-03-01T11:09:26Z</time>
      </trkpt>
      <trkpt lat="46.436201557517052" lon="8.43562706373632">
        <ele>2207.3200000000002</ele>
        <time>2012-03-01T11:09:29Z</time>
      </trkpt>
      <trkpt lat="46.436254028230906" lon="8.435582723468542">
        <ele>2205.8800000000001</ele>
        <time>2012-03-01T11:09:40Z</time>
      </trkpt>
      <trkpt lat="46.436263332143426" lon="8.435584316030145">
        <ele>2205.8800000000001</ele>
        <time>2012-03-01T11:10:01Z</time>
      </trkpt>
      <trkpt lat="46.436295686289668" lon="8.435530671849847">
        <ele>2204.9200000000001</ele>
        <time>2012-03-01T11:10:06Z</time>
      </trkpt>
      <trkpt lat="46.436328291893005" lon="8.435510387644172">
        <ele>2204.4400000000001</ele>
        <time>2012-03-01T11:10:15Z</time>
      </trkpt>
      <trkpt lat="46.436364082619548" lon="8.43551273457706">
        <ele>2203.96</ele>
        <time>2012-03-01T11:10:19Z</time>
      </trkpt>
      <trkpt lat="46.436377745121717" lon="8.435506029054523">
        <ele>2203.48</ele>
        <time>2012-03-01T11:10:21Z</time>
      </trkpt>
      <trkpt lat="46.43639006651938" lon="8.435489265248179">
        <ele>2203.48</ele>
        <time>2012-03-01T11:10:23Z</time>
      </trkpt>
      <trkpt lat="46.436402555555105" lon="8.435476440936327">
        <ele>2203</ele>
        <time>2012-03-01T11:10:25Z</time>
      </trkpt>
      <trkpt lat="46.436469526961446" lon="8.435402764007449">
        <ele>2200.5900000000001</ele>
        <time>2012-03-01T11:10:35Z</time>
      </trkpt>
      <trkpt lat="46.436483608558774" lon="8.435380635783076">
        <ele>2200.1100000000001</ele>
        <time>2012-03-01T11:10:38Z</time>
      </trkpt>
      <trkpt lat="46.436509592458606" lon="8.435315173119307">
        <ele>2198.1900000000001</ele>
        <time>2012-03-01T11:10:45Z</time>
      </trkpt>
      <trkpt lat="46.436521830037236" lon="8.435292625799775">
        <ele>2197.71</ele>
        <time>2012-03-01T11:10:47Z</time>
      </trkpt>
      <trkpt lat="46.43653909675777" lon="8.435271084308624">
        <ele>2196.75</ele>
        <time>2012-03-01T11:10:49Z</time>
      </trkpt>
      <trkpt lat="46.43655669875443" lon="8.43524887226522">
        <ele>2196.27</ele>
        <time>2012-03-01T11:10:51Z</time>
      </trkpt>
      <trkpt lat="46.436589304357767" lon="8.435213919728994">
        <ele>2196.27</ele>
        <time>2012-03-01T11:10:55Z</time>
      </trkpt>
      <trkpt lat="46.43665099516511" lon="8.435170585289598">
        <ele>2195.3099999999999</ele>
        <time>2012-03-01T11:11:01Z</time>
      </trkpt>
      <trkpt lat="46.436700113117695" lon="8.435144098475575">
        <ele>2195.3099999999999</ele>
        <time>2012-03-01T11:11:06Z</time>
      </trkpt>
      <trkpt lat="46.436798349022865" lon="8.435071343556047">
        <ele>2194.8299999999999</ele>
        <time>2012-03-01T11:11:18Z</time>
      </trkpt>
      <trkpt lat="46.436825674027205" lon="8.435055501759052">
        <ele>2194.8299999999999</ele>
        <time>2012-03-01T11:11:21Z</time>
      </trkpt>
      <trkpt lat="46.436853837221861" lon="8.435027254745364">
        <ele>2194.3499999999999</ele>
        <time>2012-03-01T11:11:25Z</time>
      </trkpt>
      <trkpt lat="46.436902787536383" lon="8.435042258352041">
        <ele>2194.3499999999999</ele>
        <time>2012-03-01T11:11:30Z</time>
      </trkpt>
      <trkpt lat="46.437003957107663" lon="8.434976125136018">
        <ele>2194.3499999999999</ele>
        <time>2012-03-01T11:11:41Z</time>
      </trkpt>
      <trkpt lat="46.437012339010835" lon="8.434970257803798">
        <ele>2194.3499999999999</ele>
        <time>2012-03-01T11:11:42Z</time>
      </trkpt>
      <trkpt lat="46.437024408951402" lon="8.43495181761682">
        <ele>2194.3499999999999</ele>
        <time>2012-03-01T11:11:44Z</time>
      </trkpt>
      <trkpt lat="46.437077214941382" lon="8.434924073517323">
        <ele>2194.8299999999999</ele>
        <time>2012-03-01T11:11:50Z</time>
      </trkpt>
      <trkpt lat="46.437110072001815" lon="8.434881074354053">
        <ele>2193.8699999999999</ele>
        <time>2012-03-01T11:11:54Z</time>
      </trkpt>
      <trkpt lat="46.437227167189121" lon="8.434782084077597">
        <ele>2191.9400000000001</ele>
        <time>2012-03-01T11:12:08Z</time>
      </trkpt>
      <trkpt lat="46.437250133603811" lon="8.434717208147049">
        <ele>2190.5</ele>
        <time>2012-03-01T11:12:15Z</time>
      </trkpt>
      <trkpt lat="46.437274944037199" lon="8.434650488197804">
        <ele>2190.02</ele>
        <time>2012-03-01T11:12:19Z</time>
      </trkpt>
      <trkpt lat="46.437307968735695" lon="8.434509169310331">
        <ele>2188.5799999999999</ele>
        <time>2012-03-01T11:12:31Z</time>
      </trkpt>
      <trkpt lat="46.437317440286279" lon="8.434482682496309">
        <ele>2188.5799999999999</ele>
        <time>2012-03-01T11:12:34Z</time>
      </trkpt>
      <trkpt lat="46.437321044504642" lon="8.434453597292304">
        <ele>2188.5799999999999</ele>
        <time>2012-03-01T11:12:36Z</time>
      </trkpt>
      <trkpt lat="46.437355494126678" lon="8.434304902330041">
        <ele>2189.0599999999999</ele>
        <time>2012-03-01T11:12:49Z</time>
      </trkpt>
      <trkpt lat="46.437385166063905" lon="8.434145478531718">
        <ele>2188.5799999999999</ele>
        <time>2012-03-01T11:13:02Z</time>
      </trkpt>
      <trkpt lat="46.43739421851933" lon="8.434091582894325">
        <ele>2189.0599999999999</ele>
        <time>2012-03-01T11:13:07Z</time>
      </trkpt>
      <trkpt lat="46.437396900728345" lon="8.434034837409854">
        <ele>2189.0599999999999</ele>
        <time>2012-03-01T11:13:12Z</time>
      </trkpt>
      <trkpt lat="46.4374147541821" lon="8.433878682553768">
        <ele>2189.0599999999999</ele>
        <time>2012-03-01T11:13:24Z</time>
      </trkpt>
      <trkpt lat="46.437410563230515" lon="8.433710876852274">
        <ele>2189.0599999999999</ele>
        <time>2012-03-01T11:13:36Z</time>
      </trkpt>
      <trkpt lat="46.437409557402134" lon="8.433520523831248">
        <ele>2188.5799999999999</ele>
        <time>2012-03-01T11:13:49Z</time>
      </trkpt>
      <trkpt lat="46.437412491068244" lon="8.433380126953125">
        <ele>2188.5799999999999</ele>
        <time>2012-03-01T11:13:58Z</time>
      </trkpt>
      <trkpt lat="46.437419364228845" lon="8.433198826387525">
        <ele>2189.0599999999999</ele>
        <time>2012-03-01T11:14:11Z</time>
      </trkpt>
      <trkpt lat="46.437416011467576" lon="8.433051975443959">
        <ele>2188.5799999999999</ele>
        <time>2012-03-01T11:14:22Z</time>
      </trkpt>
      <trkpt lat="46.43742011860013" lon="8.432905962690711">
        <ele>2189.0599999999999</ele>
        <time>2012-03-01T11:14:34Z</time>
      </trkpt>
      <trkpt lat="46.437412993982434" lon="8.432745197787881">
        <ele>2189.0599999999999</ele>
        <time>2012-03-01T11:14:46Z</time>
      </trkpt>
      <trkpt lat="46.437415676191449" lon="8.432573201134801">
        <ele>2189.0599999999999</ele>
        <time>2012-03-01T11:14:59Z</time>
      </trkpt>
      <trkpt lat="46.437412658706307" lon="8.432519054040313">
        <ele>2189.0599999999999</ele>
        <time>2012-03-01T11:15:03Z</time>
      </trkpt>
      <trkpt lat="46.437409305945039" lon="8.432468930259347">
        <ele>2189.0599999999999</ele>
        <time>2012-03-01T11:15:07Z</time>
      </trkpt>
      <trkpt lat="46.437388686463237" lon="8.432275224477053">
        <ele>2189.0599999999999</ele>
        <time>2012-03-01T11:15:21Z</time>
      </trkpt>
      <trkpt lat="46.43737955018878" lon="8.432102389633656">
        <ele>2189.0599999999999</ele>
        <time>2012-03-01T11:15:33Z</time>
      </trkpt>
      <trkpt lat="46.437378041446209" lon="8.432026701048017">
        <ele>2189.0599999999999</ele>
        <time>2012-03-01T11:15:39Z</time>
      </trkpt>
      <trkpt lat="46.437376784160733" lon="8.43192033469677">
        <ele>2189.0599999999999</ele>
        <time>2012-03-01T11:15:51Z</time>
      </trkpt>
      <trkpt lat="46.437388602644205" lon="8.431923352181912">
        <ele>2189.0599999999999</ele>
        <time>2012-03-01T11:16:08Z</time>
      </trkpt>
      <trkpt lat="46.437385501340032" lon="8.431893931701779">
        <ele>2189.0599999999999</ele>
        <time>2012-03-01T11:16:10Z</time>
      </trkpt>
      <trkpt lat="46.437357505783439" lon="8.431715061888099">
        <ele>2189.0599999999999</ele>
        <time>2012-03-01T11:16:23Z</time>
      </trkpt>
      <trkpt lat="46.437339065596461" lon="8.4315250441432">
        <ele>2189.0599999999999</ele>
        <time>2012-03-01T11:16:37Z</time>
      </trkpt>
      <trkpt lat="46.43731651827693" lon="8.431365117430687">
        <ele>2189.54</ele>
        <time>2012-03-01T11:16:49Z</time>
      </trkpt>
      <trkpt lat="46.437284834682941" lon="8.431175770238042">
        <ele>2189.54</ele>
        <time>2012-03-01T11:17:03Z</time>
      </trkpt>
      <trkpt lat="46.437271758913994" lon="8.431083485484123">
        <ele>2190.02</ele>
        <time>2012-03-01T11:17:10Z</time>
      </trkpt>
      <trkpt lat="46.437249630689621" lon="8.43092012219131">
        <ele>2189.54</ele>
        <time>2012-03-01T11:17:23Z</time>
      </trkpt>
      <trkpt lat="46.437214761972427" lon="8.430851893499494">
        <ele>2190.98</ele>
        <time>2012-03-01T11:17:35Z</time>
      </trkpt>
      <trkpt lat="46.437189029529691" lon="8.430773438885808">
        <ele>2193.3899999999999</ele>
        <time>2012-03-01T11:17:50Z</time>
      </trkpt>
      <trkpt lat="46.437163883820176" lon="8.430732702836394">
        <ele>2195.3099999999999</ele>
        <time>2012-03-01T11:18:02Z</time>
      </trkpt>
      <trkpt lat="46.437160111963749" lon="8.430725829675794">
        <ele>2196.75</ele>
        <time>2012-03-01T11:18:17Z</time>
      </trkpt>
      <trkpt lat="46.437162877991796" lon="8.430710742250085">
        <ele>2196.75</ele>
        <time>2012-03-01T11:18:28Z</time>
      </trkpt>
      <trkpt lat="46.437168074771762" lon="8.430690290406346">
        <ele>2197.23</ele>
        <time>2012-03-01T11:18:37Z</time>
      </trkpt>
      <trkpt lat="46.437172684818506" lon="8.430689116939902">
        <ele>2197.23</ele>
        <time>2012-03-01T11:18:43Z</time>
      </trkpt>
      <trkpt lat="46.437160279601812" lon="8.430710742250085">
        <ele>2196.27</ele>
        <time>2012-03-01T11:18:52Z</time>
      </trkpt>
      <trkpt lat="46.43716455437243" lon="8.430707305669785">
        <ele>2196.27</ele>
        <time>2012-03-01T11:19:19Z</time>
      </trkpt>
      <trkpt lat="46.437174025923014" lon="8.430704036727548">
        <ele>2196.27</ele>
        <time>2012-03-01T11:19:56Z</time>
      </trkpt>
      <trkpt lat="46.437181904911995" lon="8.430702863261104">
        <ele>2196.27</ele>
        <time>2012-03-01T11:20:31Z</time>
      </trkpt>
      <trkpt lat="46.437185676768422" lon="8.430701103061438">
        <ele>2196.27</ele>
        <time>2012-03-01T11:21:13Z</time>
      </trkpt>
      <trkpt lat="46.437186263501644" lon="8.430695654824376">
        <ele>2196.27</ele>
        <time>2012-03-01T11:21:48Z</time>
      </trkpt>
      <trkpt lat="46.437187688425183" lon="8.430696744471788">
        <ele>2196.27</ele>
        <time>2012-03-01T11:22:24Z</time>
      </trkpt>
      <trkpt lat="46.437185173854232" lon="8.430692553520203">
        <ele>2195.79</ele>
        <time>2012-03-01T11:22:58Z</time>
      </trkpt>
      <trkpt lat="46.43719045445323" lon="8.430707473307848">
        <ele>2196.75</ele>
        <time>2012-03-01T11:23:19Z</time>
      </trkpt>
      <trkpt lat="46.437178552150726" lon="8.43068802729249">
        <ele>2197.23</ele>
        <time>2012-03-01T11:23:31Z</time>
      </trkpt>
      <trkpt lat="46.437173690646887" lon="8.430684171617031">
        <ele>2197.23</ele>
        <time>2012-03-01T11:23:46Z</time>
      </trkpt>
      <trkpt lat="46.437173690646887" lon="8.43069582246244">
        <ele>2197.23</ele>
        <time>2012-03-01T11:24:00Z</time>
      </trkpt>
      <trkpt lat="46.43717578612268" lon="8.430689368396998">
        <ele>2196.75</ele>
        <time>2012-03-01T11:24:20Z</time>
      </trkpt>
      <trkpt lat="46.437174361199141" lon="8.430687272921205">
        <ele>2197.23</ele>
        <time>2012-03-01T11:24:38Z</time>
      </trkpt>
      <trkpt lat="46.437201770022511" lon="8.430687775835395">
        <ele>2196.75</ele>
        <time>2012-03-01T11:24:50Z</time>
      </trkpt>
      <trkpt lat="46.437206296250224" lon="8.430679980665445">
        <ele>2197.23</ele>
        <time>2012-03-01T11:25:06Z</time>
      </trkpt>
      <trkpt lat="46.437207218259573" lon="8.430679310113192">
        <ele>2197.23</ele>
        <time>2012-03-01T11:25:21Z</time>
      </trkpt>
      <trkpt lat="46.437192466109991" lon="8.430622145533562">
        <ele>2197.23</ele>
        <time>2012-03-01T11:25:36Z</time>
      </trkpt>
      <trkpt lat="46.437171846628189" lon="8.430627593770623">
        <ele>2197.23</ele>
        <time>2012-03-01T11:25:54Z</time>
      </trkpt>
      <trkpt lat="46.437164805829525" lon="8.430614685639739">
        <ele>2197.23</ele>
        <time>2012-03-01T11:26:08Z</time>
      </trkpt>
      <trkpt lat="46.437115939334035" lon="8.430592138320208">
        <ele>2196.75</ele>
        <time>2012-03-01T11:26:17Z</time>
      </trkpt>
      <trkpt lat="46.437067743390799" lon="8.430560454726219">
        <ele>2195.79</ele>
        <time>2012-03-01T11:26:27Z</time>
      </trkpt>
      <trkpt lat="46.43702088855207" lon="8.430521227419376">
        <ele>2195.3099999999999</ele>
        <time>2012-03-01T11:26:32Z</time>
      </trkpt>
      <trkpt lat="46.436921814456582" lon="8.430430199950934">
        <ele>2193.8699999999999</ele>
        <time>2012-03-01T11:26:43Z</time>
      </trkpt>
      <trkpt lat="46.436890801414847" lon="8.430384853854775">
        <ele>2193.3899999999999</ele>
        <time>2012-03-01T11:26:48Z</time>
      </trkpt>
      <trkpt lat="46.436830619350076" lon="8.430333221331239">
        <ele>2192.4200000000001</ele>
        <time>2012-03-01T11:26:55Z</time>
      </trkpt>
      <trkpt lat="46.43678292632103" lon="8.430310003459454">
        <ele>2191.9400000000001</ele>
        <time>2012-03-01T11:27:00Z</time>
      </trkpt>
      <trkpt lat="46.436754930764437" lon="8.430317966267467">
        <ele>2191.9400000000001</ele>
        <time>2012-03-01T11:27:03Z</time>
      </trkpt>
      <trkpt lat="46.436710925772786" lon="8.430329030379653">
        <ele>2191.46</ele>
        <time>2012-03-01T11:27:07Z</time>
      </trkpt>
      <trkpt lat="46.436627693474293" lon="8.430345207452774">
        <ele>2190.02</ele>
        <time>2012-03-01T11:27:15Z</time>
      </trkpt>
      <trkpt lat="46.436551921069622" lon="8.430376891046763">
        <ele>2189.0599999999999</ele>
        <time>2012-03-01T11:27:22Z</time>
      </trkpt>
      <trkpt lat="46.436507580801845" lon="8.430379992350936">
        <ele>2188.5799999999999</ele>
        <time>2012-03-01T11:27:33Z</time>
      </trkpt>
      <trkpt lat="46.436500288546085" lon="8.430378315970302">
        <ele>2188.0999999999999</ele>
        <time>2012-03-01T11:27:34Z</time>
      </trkpt>
      <trkpt lat="46.436458881944418" lon="8.430379740893841">
        <ele>2188.0999999999999</ele>
        <time>2012-03-01T11:27:38Z</time>
      </trkpt>
      <trkpt lat="46.436414290219545" lon="8.430355014279485">
        <ele>2187.1399999999999</ele>
        <time>2012-03-01T11:27:43Z</time>
      </trkpt>
      <trkpt lat="46.436397191137075" lon="8.430348727852106">
        <ele>2187.6199999999999</ele>
        <time>2012-03-01T11:27:45Z</time>
      </trkpt>
      <trkpt lat="46.436336506158113" lon="8.430323246866465">
        <ele>2186.6599999999999</ele>
        <time>2012-03-01T11:27:51Z</time>
      </trkpt>
      <trkpt lat="46.436315970495343" lon="8.430318972095847">
        <ele>2186.6599999999999</ele>
        <time>2012-03-01T11:27:53Z</time>
      </trkpt>
      <trkpt lat="46.43624204210937" lon="8.430292820557952">
        <ele>2186.1799999999998</ele>
        <time>2012-03-01T11:28:00Z</time>
      </trkpt>
      <trkpt lat="46.436190325766802" lon="8.430279409512878">
        <ele>2185.21</ele>
        <time>2012-03-01T11:28:04Z</time>
      </trkpt>
      <trkpt lat="46.436165263876319" lon="8.43027806840837">
        <ele>2185.21</ele>
        <time>2012-03-01T11:28:06Z</time>
      </trkpt>
      <trkpt lat="46.436145147308707" lon="8.430267674848437">
        <ele>2185.21</ele>
        <time>2012-03-01T11:28:08Z</time>
      </trkpt>
      <trkpt lat="46.436123354360461" lon="8.430260298773646">
        <ele>2184.73</ele>
        <time>2012-03-01T11:28:10Z</time>
      </trkpt>
      <trkpt lat="46.436048671603203" lon="8.430225346237421">
        <ele>2184.25</ele>
        <time>2012-03-01T11:28:16Z</time>
      </trkpt>
      <trkpt lat="46.436005001887679" lon="8.430192321538925">
        <ele>2184.25</ele>
        <time>2012-03-01T11:28:20Z</time>
      </trkpt>
      <trkpt lat="46.435974156484008" lon="8.43016373924911">
        <ele>2183.77</ele>
        <time>2012-03-01T11:28:23Z</time>
      </trkpt>
      <trkpt lat="46.435888661071658" lon="8.430051086470485">
        <ele>2183.29</ele>
        <time>2012-03-01T11:28:37Z</time>
      </trkpt>
      <trkpt lat="46.435879524797201" lon="8.430028120055795">
        <ele>2182.8099999999999</ele>
        <time>2012-03-01T11:28:39Z</time>
      </trkpt>
      <trkpt lat="46.435822360217571" lon="8.429902642965317">
        <ele>2183.29</ele>
        <time>2012-03-01T11:28:51Z</time>
      </trkpt>
      <trkpt lat="46.43580911681056" lon="8.429866600781679">
        <ele>2183.29</ele>
        <time>2012-03-01T11:28:54Z</time>
      </trkpt>
      <trkpt lat="46.435772906988859" lon="8.42978454194963">
        <ele>2182.8099999999999</ele>
        <time>2012-03-01T11:29:03Z</time>
      </trkpt>
      <trkpt lat="46.43574507907033" lon="8.42970784753561">
        <ele>2181.8499999999999</ele>
        <time>2012-03-01T11:29:10Z</time>
      </trkpt>
      <trkpt lat="46.435721525922418" lon="8.429651185870171">
        <ele>2181.3699999999999</ele>
        <time>2012-03-01T11:29:23Z</time>
      </trkpt>
      <trkpt lat="46.435701744630933" lon="8.42961497604847">
        <ele>2180.8899999999999</ele>
        <time>2012-03-01T11:29:31Z</time>
      </trkpt>
      <trkpt lat="46.435683220624924" lon="8.429580610245466">
        <ele>2180.8899999999999</ele>
        <time>2012-03-01T11:29:34Z</time>
      </trkpt>
      <trkpt lat="46.435668300837278" lon="8.429556554183364">
        <ele>2179.9299999999998</ele>
        <time>2012-03-01T11:29:36Z</time>
      </trkpt>
      <trkpt lat="46.43564248457551" lon="8.429482793435454">
        <ele>2178.9699999999998</ele>
        <time>2012-03-01T11:29:43Z</time>
      </trkpt>
      <trkpt lat="46.435637287795544" lon="8.429456055164337">
        <ele>2178.48</ele>
        <time>2012-03-01T11:29:45Z</time>
      </trkpt>
      <trkpt lat="46.435622703284025" lon="8.429367206990719">
        <ele>2178</ele>
        <time>2012-03-01T11:29:53Z</time>
      </trkpt>
      <trkpt lat="46.435603424906731" lon="8.429316245019436">
        <ele>2178</ele>
        <time>2012-03-01T11:29:56Z</time>
      </trkpt>
      <trkpt lat="46.43559018149972" lon="8.429263522848487">
        <ele>2177.04</ele>
        <time>2012-03-01T11:30:00Z</time>
      </trkpt>
      <trkpt lat="46.435544332489371" lon="8.429116923362017">
        <ele>2176.5599999999999</ele>
        <time>2012-03-01T11:30:11Z</time>
      </trkpt>
      <trkpt lat="46.435532178729773" lon="8.429101835936308">
        <ele>2176.5599999999999</ele>
        <time>2012-03-01T11:30:13Z</time>
      </trkpt>
      <trkpt lat="46.435440899804235" lon="8.428988931700587">
        <ele>2173.6799999999998</ele>
        <time>2012-03-01T11:30:23Z</time>
      </trkpt>
      <trkpt lat="46.435426399111748" lon="8.428973173722625">
        <ele>2173.1999999999998</ele>
        <time>2012-03-01T11:30:24Z</time>
      </trkpt>
      <trkpt lat="46.435351045802236" lon="8.428829675540328">
        <ele>2171.7600000000002</ele>
        <time>2012-03-01T11:30:35Z</time>
      </trkpt>
      <trkpt lat="46.435262700542808" lon="8.428667318075895">
        <ele>2170.3099999999999</ele>
        <time>2012-03-01T11:30:47Z</time>
      </trkpt>
      <trkpt lat="46.43521886318922" lon="8.428587354719639">
        <ele>2168.8699999999999</ele>
        <time>2012-03-01T11:30:53Z</time>
      </trkpt>
      <trkpt lat="46.435184245929122" lon="8.428514851257205">
        <ele>2168.8699999999999</ele>
        <time>2012-03-01T11:30:59Z</time>
      </trkpt>
      <trkpt lat="46.435156334191561" lon="8.428475707769394">
        <ele>2167.9099999999999</ele>
        <time>2012-03-01T11:31:03Z</time>
      </trkpt>
      <trkpt lat="46.435144599527121" lon="8.428451232612133">
        <ele>2167.9099999999999</ele>
        <time>2012-03-01T11:31:05Z</time>
      </trkpt>
      <trkpt lat="46.435071425512433" lon="8.428355427458882">
        <ele>2166.4699999999998</ele>
        <time>2012-03-01T11:31:14Z</time>
      </trkpt>
      <trkpt lat="46.43498576246202" lon="8.428331036120653">
        <ele>2165.5100000000002</ele>
        <time>2012-03-01T11:31:21Z</time>
      </trkpt>
      <trkpt lat="46.434915773570538" lon="8.428288539871573">
        <ele>2165.0300000000002</ele>
        <time>2012-03-01T11:31:28Z</time>
      </trkpt>
      <trkpt lat="46.434897081926465" lon="8.42827420681715">
        <ele>2164.5500000000002</ele>
        <time>2012-03-01T11:31:30Z</time>
      </trkpt>
      <trkpt lat="46.434858357533813" lon="8.428267920389772">
        <ele>2164.5500000000002</ele>
        <time>2012-03-01T11:31:34Z</time>
      </trkpt>
      <trkpt lat="46.434757858514786" lon="8.428206313401461">
        <ele>2164.5500000000002</ele>
        <time>2012-03-01T11:31:45Z</time>
      </trkpt>
      <trkpt lat="46.434715362265706" lon="8.428161134943366">
        <ele>2164.5500000000002</ele>
        <time>2012-03-01T11:31:50Z</time>
      </trkpt>
      <trkpt lat="46.434672027826309" lon="8.428054936230183">
        <ele>2164.0599999999999</ele>
        <time>2012-03-01T11:32:03Z</time>
      </trkpt>
      <trkpt lat="46.434668255969882" lon="8.428057953715324">
        <ele>2164.5500000000002</ele>
        <time>2012-03-01T11:32:17Z</time>
      </trkpt>
      <trkpt lat="46.43466473557055" lon="8.428050326183438">
        <ele>2164.5500000000002</ele>
        <time>2012-03-01T11:32:28Z</time>
      </trkpt>
      <trkpt lat="46.434682169929147" lon="8.42802107334137">
        <ele>2164.5500000000002</ele>
        <time>2012-03-01T11:32:31Z</time>
      </trkpt>
      <trkpt lat="46.434689629822969" lon="8.428031550720334">
        <ele>2164.5500000000002</ele>
        <time>2012-03-01T11:32:33Z</time>
      </trkpt>
      <trkpt lat="46.434718715026975" lon="8.427986958995462">
        <ele>2164.0599999999999</ele>
        <time>2012-03-01T11:32:36Z</time>
      </trkpt>
      <trkpt lat="46.434744279831648" lon="8.427951503545046">
        <ele>2163.0999999999999</ele>
        <time>2012-03-01T11:32:49Z</time>
      </trkpt>
      <trkpt lat="46.434740843251348" lon="8.427960891276598">
        <ele>2163.0999999999999</ele>
        <time>2012-03-01T11:33:05Z</time>
      </trkpt>
      <trkpt lat="46.434736903756857" lon="8.427937002852559">
        <ele>2163.0999999999999</ele>
        <time>2012-03-01T11:33:27Z</time>
      </trkpt>
      <trkpt lat="46.43472827039659" lon="8.427971703931689">
        <ele>2162.1399999999999</ele>
        <time>2012-03-01T11:33:51Z</time>
      </trkpt>
      <trkpt lat="46.434715613722801" lon="8.428013529628515">
        <ele>2162.6199999999999</ele>
        <time>2012-03-01T11:34:13Z</time>
      </trkpt>
      <trkpt lat="46.434718631207943" lon="8.428032221272588">
        <ele>2163.0999999999999</ele>
        <time>2012-03-01T11:34:35Z</time>
      </trkpt>
      <trkpt lat="46.434716116636992" lon="8.428034316748381">
        <ele>2162.1399999999999</ele>
        <time>2012-03-01T11:34:57Z</time>
      </trkpt>
      <trkpt lat="46.43469700589776" lon="8.428041189908981">
        <ele>2162.6199999999999</ele>
        <time>2012-03-01T11:35:15Z</time>
      </trkpt>
      <trkpt lat="46.434714775532484" lon="8.428037166595459">
        <ele>2162.1399999999999</ele>
        <time>2012-03-01T11:35:32Z</time>
      </trkpt>
      <trkpt lat="46.434723241254687" lon="8.428042698651552">
        <ele>2162.1399999999999</ele>
        <time>2012-03-01T11:35:55Z</time>
      </trkpt>
      <trkpt lat="46.434742100536823" lon="8.42801864258945">
        <ele>2162.1399999999999</ele>
        <time>2012-03-01T11:36:10Z</time>
      </trkpt>
      <trkpt lat="46.434737322852015" lon="8.428022414445877">
        <ele>2162.1399999999999</ele>
        <time>2012-03-01T11:36:32Z</time>
      </trkpt>
      <trkpt lat="46.434731623157859" lon="8.428028197959065">
        <ele>2162.1399999999999</ele>
        <time>2012-03-01T11:36:58Z</time>
      </trkpt>
      <trkpt lat="46.434728940948844" lon="8.428024677559733">
        <ele>2162.1399999999999</ele>
        <time>2012-03-01T11:37:18Z</time>
      </trkpt>
      <trkpt lat="46.43471846356988" lon="8.42803381383419">
        <ele>2162.1399999999999</ele>
        <time>2012-03-01T11:37:45Z</time>
      </trkpt>
      <trkpt lat="46.434712177142501" lon="8.428032556548715">
        <ele>2161.6599999999999</ele>
        <time>2012-03-01T11:38:05Z</time>
      </trkpt>
      <trkpt lat="46.434711087495089" lon="8.428041189908981">
        <ele>2161.1799999999998</ele>
        <time>2012-03-01T11:38:31Z</time>
      </trkpt>
      <trkpt lat="46.434703879058361" lon="8.428051667287946">
        <ele>2161.1799999999998</ele>
        <time>2012-03-01T11:38:53Z</time>
      </trkpt>
      <trkpt lat="46.43470480106771" lon="8.428050661459565">
        <ele>2161.1799999999998</ele>
        <time>2012-03-01T11:39:18Z</time>
      </trkpt>
      <trkpt lat="46.434716619551182" lon="8.428046302869916">
        <ele>2161.1799999999998</ele>
        <time>2012-03-01T11:39:44Z</time>
      </trkpt>
      <trkpt lat="46.43471309915185" lon="8.428046638146043">
        <ele>2160.6999999999998</ele>
        <time>2012-03-01T11:40:07Z</time>
      </trkpt>
      <trkpt lat="46.434713853523135" lon="8.428045464679599">
        <ele>2161.1799999999998</ele>
        <time>2012-03-01T11:40:35Z</time>
      </trkpt>
      <trkpt lat="46.434711422771215" lon="8.428056947886944">
        <ele>2160.6999999999998</ele>
        <time>2012-03-01T11:41:03Z</time>
      </trkpt>
      <trkpt lat="46.434713182970881" lon="8.428053176030517">
        <ele>2160.6999999999998</ele>
        <time>2012-03-01T11:41:22Z</time>
      </trkpt>
      <trkpt lat="46.434716451913118" lon="8.428062312304974">
        <ele>2160.6999999999998</ele>
        <time>2012-03-01T11:41:47Z</time>
      </trkpt>
      <trkpt lat="46.434713685885072" lon="8.428070694208145">
        <ele>2160.6999999999998</ele>
        <time>2012-03-01T11:42:12Z</time>
      </trkpt>
      <trkpt lat="46.43471946939826" lon="8.428072538226843">
        <ele>2160.6999999999998</ele>
        <time>2012-03-01T11:42:35Z</time>
      </trkpt>
      <trkpt lat="46.434718128293753" lon="8.428066670894623">
        <ele>2160.6999999999998</ele>
        <time>2012-03-01T11:42:59Z</time>
      </trkpt>
      <trkpt lat="46.434700610116124" lon="8.42804454267025">
        <ele>2160.6999999999998</ele>
        <time>2012-03-01T11:43:22Z</time>
      </trkpt>
      <trkpt lat="46.434694491326809" lon="8.428043285384774">
        <ele>2160.6999999999998</ele>
        <time>2012-03-01T11:43:44Z</time>
      </trkpt>
      <trkpt lat="46.434691222384572" lon="8.428063150495291">
        <ele>2160.6999999999998</ele>
        <time>2012-03-01T11:44:08Z</time>
      </trkpt>
      <trkpt lat="46.434680996462703" lon="8.428072705864906">
        <ele>2161.1799999999998</ele>
        <time>2012-03-01T11:44:25Z</time>
      </trkpt>
      <trkpt lat="46.434703292325139" lon="8.428078908473253">
        <ele>2162.1399999999999</ele>
        <time>2012-03-01T11:44:36Z</time>
      </trkpt>
      <trkpt lat="46.434694742783904" lon="8.428060300648212">
        <ele>2161.6599999999999</ele>
        <time>2012-03-01T11:44:50Z</time>
      </trkpt>
      <trkpt lat="46.434696586802602" lon="8.428044375032187">
        <ele>2161.1799999999998</ele>
        <time>2012-03-01T11:45:11Z</time>
      </trkpt>
      <trkpt lat="46.434679990634322" lon="8.428086955100298">
        <ele>2161.6599999999999</ele>
        <time>2012-03-01T11:45:16Z</time>
      </trkpt>
      <trkpt lat="46.434642942622304" lon="8.428128613159061">
        <ele>2161.1799999999998</ele>
        <time>2012-03-01T11:45:21Z</time>
      </trkpt>
      <trkpt lat="46.434602374210954" lon="8.428177312016487">
        <ele>2161.1799999999998</ele>
        <time>2012-03-01T11:45:30Z</time>
      </trkpt>
      <trkpt lat="46.434555687010288" lon="8.428196422755718">
        <ele>2161.1799999999998</ele>
        <time>2012-03-01T11:45:43Z</time>
      </trkpt>
      <trkpt lat="46.434565326198936" lon="8.428174713626504">
        <ele>2161.6599999999999</ele>
        <time>2012-03-01T11:45:58Z</time>
      </trkpt>
      <trkpt lat="46.434635985642672" lon="8.428157614544034">
        <ele>2161.1799999999998</ele>
        <time>2012-03-01T11:46:07Z</time>
      </trkpt>
      <trkpt lat="46.434689546003938" lon="8.428074298426509">
        <ele>2161.1799999999998</ele>
        <time>2012-03-01T11:46:21Z</time>
      </trkpt>
      <trkpt lat="46.434733550995588" lon="8.427999448031187">
        <ele>2161.6599999999999</ele>
        <time>2012-03-01T11:46:36Z</time>
      </trkpt>
      <trkpt lat="46.435337886214256" lon="8.428859179839492">
        <ele>2161.6599999999999</ele>
        <time>2012-03-01T11:58:20Z</time>
      </trkpt>
      <trkpt lat="46.435239566490054" lon="8.428860018029809">
        <ele>2161.6599999999999</ele>
        <time>2012-03-01T11:58:49Z</time>
      </trkpt>
      <trkpt lat="46.435180138796568" lon="8.428765386343002">
        <ele>2162.1399999999999</ele>
        <time>2012-03-01T11:59:21Z</time>
      </trkpt>
      <trkpt lat="46.435147114098072" lon="8.428717190399766">
        <ele>2162.6199999999999</ele>
        <time>2012-03-01T11:59:49Z</time>
      </trkpt>
      <trkpt lat="46.435122555121779" lon="8.42872129753232">
        <ele>2162.6199999999999</ele>
        <time>2012-03-01T12:00:18Z</time>
      </trkpt>
      <trkpt lat="46.435144264250994" lon="8.428739905357361">
        <ele>2163.0999999999999</ele>
        <time>2012-03-01T12:00:47Z</time>
      </trkpt>
      <trkpt lat="46.435160022228956" lon="8.428750215098262">
        <ele>2163.5799999999999</ele>
        <time>2012-03-01T12:01:16Z</time>
      </trkpt>
      <trkpt lat="46.435130685567856" lon="8.428699839860201">
        <ele>2164.0599999999999</ele>
        <time>2012-03-01T12:01:40Z</time>
      </trkpt>
      <trkpt lat="46.43501459620893" lon="8.428542846813798">
        <ele>2164.5500000000002</ele>
        <time>2012-03-01T12:01:53Z</time>
      </trkpt>
      <trkpt lat="46.43501945771277" lon="8.428553156554699">
        <ele>2164.0599999999999</ele>
        <time>2012-03-01T12:02:05Z</time>
      </trkpt>
      <trkpt lat="46.435010908171535" lon="8.4285341296345">
        <ele>2164.0599999999999</ele>
        <time>2012-03-01T12:02:18Z</time>
      </trkpt>
      <trkpt lat="46.434989031404257" lon="8.42853169888258">
        <ele>2164.0599999999999</ele>
        <time>2012-03-01T12:02:38Z</time>
      </trkpt>
      <trkpt lat="46.434939997270703" lon="8.428425081074238">
        <ele>2164.5500000000002</ele>
        <time>2012-03-01T12:03:04Z</time>
      </trkpt>
      <trkpt lat="46.4349349681288" lon="8.42842223122716">
        <ele>2164.0599999999999</ele>
        <time>2012-03-01T12:03:21Z</time>
      </trkpt>
      <trkpt lat="46.43493446521461" lon="8.428423991426826">
        <ele>2164.0599999999999</ele>
        <time>2012-03-01T12:03:35Z</time>
      </trkpt>
      <trkpt lat="46.434898003935814" lon="8.428370431065559">
        <ele>2164.5500000000002</ele>
        <time>2012-03-01T12:03:56Z</time>
      </trkpt>
      <trkpt lat="46.434865817427635" lon="8.428343273699284">
        <ele>2164.5500000000002</ele>
        <time>2012-03-01T12:04:24Z</time>
      </trkpt>
      <trkpt lat="46.434823907911777" lon="8.428261717781425">
        <ele>2165.0300000000002</ele>
        <time>2012-03-01T12:04:57Z</time>
      </trkpt>
      <trkpt lat="46.434813095256686" lon="8.428240176290274">
        <ele>2164.5500000000002</ele>
        <time>2012-03-01T12:05:28Z</time>
      </trkpt>
      <trkpt lat="46.434806641191244" lon="8.428244115784764">
        <ele>2165.0300000000002</ele>
        <time>2012-03-01T12:05:56Z</time>
      </trkpt>
      <trkpt lat="46.434806389734149" lon="8.4282302018255">
        <ele>2165.0300000000002</ele>
        <time>2012-03-01T12:06:24Z</time>
      </trkpt>
      <trkpt lat="46.434790715575218" lon="8.428218215703964">
        <ele>2165.0300000000002</ele>
        <time>2012-03-01T12:06:56Z</time>
      </trkpt>
      <trkpt lat="46.434785518795252" lon="8.428207738325">
        <ele>2165.5100000000002</ele>
        <time>2012-03-01T12:07:27Z</time>
      </trkpt>
      <trkpt lat="46.434772778302431" lon="8.428188459947705">
        <ele>2165.5100000000002</ele>
        <time>2012-03-01T12:07:58Z</time>
      </trkpt>
      <trkpt lat="46.434768000617623" lon="8.428173288702965">
        <ele>2165.5100000000002</ele>
        <time>2012-03-01T12:08:28Z</time>
      </trkpt>
      <trkpt lat="46.434760373085737" lon="8.42817110940814">
        <ele>2165.5100000000002</ele>
        <time>2012-03-01T12:09:00Z</time>
      </trkpt>
      <trkpt lat="46.434761211276054" lon="8.428165074437857">
        <ele>2165.9899999999998</ele>
        <time>2012-03-01T12:09:29Z</time>
      </trkpt>
      <trkpt lat="46.43476246856153" lon="8.428157111629844">
        <ele>2165.0300000000002</ele>
        <time>2012-03-01T12:09:58Z</time>
      </trkpt>
      <trkpt lat="46.43475660122931" lon="8.428162727504969">
        <ele>2165.5100000000002</ele>
        <time>2012-03-01T12:10:28Z</time>
      </trkpt>
      <trkpt lat="46.434758612886071" lon="8.428172115236521">
        <ele>2165.5100000000002</ele>
        <time>2012-03-01T12:11:01Z</time>
      </trkpt>
      <trkpt lat="46.434765821322799" lon="8.428168427199125">
        <ele>2165.5100000000002</ele>
        <time>2012-03-01T12:11:34Z</time>
      </trkpt>
      <trkpt lat="46.434755260124803" lon="8.428166415542364">
        <ele>2165.0300000000002</ele>
        <time>2012-03-01T12:12:04Z</time>
      </trkpt>
      <trkpt lat="46.434750063344836" lon="8.428168091922998">
        <ele>2165.5100000000002</ele>
        <time>2012-03-01T12:12:37Z</time>
      </trkpt>
      <trkpt lat="46.434753080829978" lon="8.428163733333349">
        <ele>2165.5100000000002</ele>
        <time>2012-03-01T12:13:12Z</time>
      </trkpt>
      <trkpt lat="46.434751907363534" lon="8.428160967305303">
        <ele>2165.5100000000002</ele>
        <time>2012-03-01T12:13:46Z</time>
      </trkpt>
      <trkpt lat="46.434732796624303" lon="8.428165074437857">
        <ele>2165.9899999999998</ele>
        <time>2012-03-01T12:14:18Z</time>
      </trkpt>
      <trkpt lat="46.434730868786573" lon="8.428157027810812">
        <ele>2166.9499999999998</ele>
        <time>2012-03-01T12:14:50Z</time>
      </trkpt>
      <trkpt lat="46.43474243581295" lon="8.428155770525336">
        <ele>2166.4699999999998</ele>
        <time>2012-03-01T12:15:20Z</time>
      </trkpt>
      <trkpt lat="46.434743190184236" lon="8.428164655342698">
        <ele>2165.9899999999998</ele>
        <time>2012-03-01T12:15:51Z</time>
      </trkpt>
      <trkpt lat="46.43473950214684" lon="8.428167086094618">
        <ele>2166.4699999999998</ele>
        <time>2012-03-01T12:16:16Z</time>
      </trkpt>
      <trkpt lat="46.434732796624303" lon="8.42816524207592">
        <ele>2166.4699999999998</ele>
        <time>2012-03-01T12:16:46Z</time>
      </trkpt>
      <trkpt lat="46.43473019823432" lon="8.428158788010478">
        <ele>2166.9499999999998</ele>
        <time>2012-03-01T12:17:20Z</time>
      </trkpt>
      <trkpt lat="46.434719804674387" lon="8.428160129114986">
        <ele>2166.4699999999998</ele>
        <time>2012-03-01T12:17:53Z</time>
      </trkpt>
      <trkpt lat="46.434722151607275" lon="8.428150909021497">
        <ele>2166.4699999999998</ele>
        <time>2012-03-01T12:18:22Z</time>
      </trkpt>
      <trkpt lat="46.434694407507777" lon="8.428136240690947">
        <ele>2166.9499999999998</ele>
        <time>2012-03-01T12:18:51Z</time>
      </trkpt>
      <trkpt lat="46.434695916250348" lon="8.428123584017158">
        <ele>2166.9499999999998</ele>
        <time>2012-03-01T12:19:21Z</time>
      </trkpt>
      <trkpt lat="46.434699855744839" lon="8.42814571224153">
        <ele>2166.9499999999998</ele>
        <time>2012-03-01T12:19:53Z</time>
      </trkpt>
      <trkpt lat="46.434700442478061" lon="8.428143281489611">
        <ele>2166.4699999999998</ele>
        <time>2012-03-01T12:20:22Z</time>
      </trkpt>
      <trkpt lat="46.434699520468712" lon="8.42814470641315">
        <ele>2166.9499999999998</ele>
        <time>2012-03-01T12:20:52Z</time>
      </trkpt>
      <trkpt lat="46.434697760269046" lon="8.428145376965404">
        <ele>2167.4299999999998</ele>
        <time>2012-03-01T12:21:04Z</time>
      </trkpt>
      <trkpt lat="46.434686528518796" lon="8.428152501583099">
        <ele>2167.9099999999999</ele>
        <time>2012-03-01T12:21:11Z</time>
      </trkpt>
      <trkpt lat="46.43465987406671" lon="8.428154429420829">
        <ele>2167.9099999999999</ele>
        <time>2012-03-01T12:21:21Z</time>
      </trkpt>
      <trkpt lat="46.434660460799932" lon="8.428160045295954">
        <ele>2168.3899999999999</ele>
        <time>2012-03-01T12:21:30Z</time>
      </trkpt>
      <trkpt lat="46.434672866016626" lon="8.42815987765789">
        <ele>2168.3899999999999</ele>
        <time>2012-03-01T12:21:39Z</time>
      </trkpt>
      <trkpt lat="46.434687115252018" lon="8.428166750818491">
        <ele>2167.9099999999999</ele>
        <time>2012-03-01T12:21:51Z</time>
      </trkpt>
      <trkpt lat="46.434676805511117" lon="8.428165493533015">
        <ele>2167.9099999999999</ele>
        <time>2012-03-01T12:22:06Z</time>
      </trkpt>
      <trkpt lat="46.434661466628313" lon="8.428155602887273">
        <ele>2168.3899999999999</ele>
        <time>2012-03-01T12:22:27Z</time>
      </trkpt>
      <trkpt lat="46.434668255969882" lon="8.428163733333349">
        <ele>2168.8699999999999</ele>
        <time>2012-03-01T12:22:47Z</time>
      </trkpt>
      <trkpt lat="46.434662556275725" lon="8.428162056952715">
        <ele>2168.3899999999999</ele>
        <time>2012-03-01T12:23:02Z</time>
      </trkpt>
      <trkpt lat="46.434666076675057" lon="8.428166164085269">
        <ele>2168.3899999999999</ele>
        <time>2012-03-01T12:23:16Z</time>
      </trkpt>
      <trkpt lat="46.434662053361535" lon="8.42815987765789">
        <ele>2168.3899999999999</ele>
        <time>2012-03-01T12:23:33Z</time>
      </trkpt>
      <trkpt lat="46.434655180200934" lon="8.428162895143032">
        <ele>2168.3899999999999</ele>
        <time>2012-03-01T12:23:46Z</time>
      </trkpt>
      <trkpt lat="46.434665070846677" lon="8.428272614255548">
        <ele>2167.4299999999998</ele>
        <time>2012-03-01T12:24:01Z</time>
      </trkpt>
      <trkpt lat="46.434672446921468" lon="8.428315361961722">
        <ele>2167.4299999999998</ele>
        <time>2012-03-01T12:24:04Z</time>
      </trkpt>
      <trkpt lat="46.434683008119464" lon="8.428340256214142">
        <ele>2167.4299999999998</ele>
        <time>2012-03-01T12:24:06Z</time>
      </trkpt>
      <trkpt lat="46.434688791632652" lon="8.428370095789433">
        <ele>2166.9499999999998</ele>
        <time>2012-03-01T12:24:08Z</time>
      </trkpt>
      <trkpt lat="46.434729192405939" lon="8.428442850708962">
        <ele>2165.9899999999998</ele>
        <time>2012-03-01T12:24:14Z</time>
      </trkpt>
      <trkpt lat="46.434735311195254" lon="8.428568243980408">
        <ele>2166.4699999999998</ele>
        <time>2012-03-01T12:24:23Z</time>
      </trkpt>
      <trkpt lat="46.43476297147572" lon="8.428747029975057">
        <ele>2166.4699999999998</ele>
        <time>2012-03-01T12:24:37Z</time>
      </trkpt>
      <trkpt lat="46.434762803837657" lon="8.42876086011529">
        <ele>2165.9899999999998</ele>
        <time>2012-03-01T12:24:38Z</time>
      </trkpt>
      <trkpt lat="46.434764815494418" lon="8.428819701075554">
        <ele>2165.0300000000002</ele>
        <time>2012-03-01T12:24:42Z</time>
      </trkpt>
      <trkpt lat="46.434766827151179" lon="8.42888692393899">
        <ele>2164.5500000000002</ele>
        <time>2012-03-01T12:24:46Z</time>
      </trkpt>
      <trkpt lat="46.434779735282063" lon="8.429030673578382">
        <ele>2163.5799999999999</ele>
        <time>2012-03-01T12:24:55Z</time>
      </trkpt>
      <trkpt lat="46.434793062508106" lon="8.429135615006089">
        <ele>2163.5799999999999</ele>
        <time>2012-03-01T12:25:02Z</time>
      </trkpt>
      <trkpt lat="46.434797924011946" lon="8.429196132346988">
        <ele>2163.0999999999999</ele>
        <time>2012-03-01T12:25:06Z</time>
      </trkpt>
      <trkpt lat="46.434809407219291" lon="8.429240807890892">
        <ele>2163.5799999999999</ele>
        <time>2012-03-01T12:25:09Z</time>
      </trkpt>
      <trkpt lat="46.434820303693414" lon="8.429335858672857">
        <ele>2163.5799999999999</ele>
        <time>2012-03-01T12:25:16Z</time>
      </trkpt>
      <trkpt lat="46.434828350320458" lon="8.429362680763006">
        <ele>2164.0599999999999</ele>
        <time>2012-03-01T12:25:18Z</time>
      </trkpt>
      <trkpt lat="46.434841342270374" lon="8.429498886689544">
        <ele>2164.0599999999999</ele>
        <time>2012-03-01T12:25:28Z</time>
      </trkpt>
      <trkpt lat="46.434856597334146" lon="8.429579688236117">
        <ele>2163.5799999999999</ele>
        <time>2012-03-01T12:25:34Z</time>
      </trkpt>
      <trkpt lat="46.434860033914447" lon="8.429618496447802">
        <ele>2164.0599999999999</ele>
        <time>2012-03-01T12:25:37Z</time>
      </trkpt>
      <trkpt lat="46.434872942045331" lon="8.429805831983686">
        <ele>2163.0999999999999</ele>
        <time>2012-03-01T12:25:49Z</time>
      </trkpt>
      <trkpt lat="46.434876965358853" lon="8.429839946329594">
        <ele>2163.5799999999999</ele>
        <time>2012-03-01T12:25:51Z</time>
      </trkpt>
      <trkpt lat="46.434864979237318" lon="8.429885879158974">
        <ele>2163.5799999999999</ele>
        <time>2012-03-01T12:25:55Z</time>
      </trkpt>
      <trkpt lat="46.434867074713111" lon="8.42993407510221">
        <ele>2163.0999999999999</ele>
        <time>2012-03-01T12:25:58Z</time>
      </trkpt>
      <trkpt lat="46.434789709746838" lon="8.430090816691518">
        <ele>2163.5799999999999</ele>
        <time>2012-03-01T12:26:11Z</time>
      </trkpt>
      <trkpt lat="46.434778729453683" lon="8.430106826126576">
        <ele>2163.5799999999999</ele>
        <time>2012-03-01T12:26:13Z</time>
      </trkpt>
      <trkpt lat="46.434757271781564" lon="8.430122751742601">
        <ele>2163.0999999999999</ele>
        <time>2012-03-01T12:26:15Z</time>
      </trkpt>
      <trkpt lat="46.434725755825639" lon="8.430150579661131">
        <ele>2163.0999999999999</ele>
        <time>2012-03-01T12:26:26Z</time>
      </trkpt>
      <trkpt lat="46.434697424992919" lon="8.430156949907541">
        <ele>2163.0999999999999</ele>
        <time>2012-03-01T12:26:28Z</time>
      </trkpt>
      <trkpt lat="46.434585526585579" lon="8.430238924920559">
        <ele>2161.6599999999999</ele>
        <time>2012-03-01T12:26:40Z</time>
      </trkpt>
      <trkpt lat="46.434525512158871" lon="8.430339591577649">
        <ele>2162.6199999999999</ele>
        <time>2012-03-01T12:26:52Z</time>
      </trkpt>
      <trkpt lat="46.434491313993931" lon="8.430387200787664">
        <ele>2162.1399999999999</ele>
        <time>2012-03-01T12:27:04Z</time>
      </trkpt>
      <trkpt lat="46.434439849108458" lon="8.43042709864676">
        <ele>2161.1799999999998</ele>
        <time>2012-03-01T12:27:15Z</time>
      </trkpt>
      <trkpt lat="46.4344238396734" lon="8.43045249581337">
        <ele>2162.6199999999999</ele>
        <time>2012-03-01T12:27:30Z</time>
      </trkpt>
      <trkpt lat="46.43438327126205" lon="8.430502116680145">
        <ele>2163.5799999999999</ele>
        <time>2012-03-01T12:27:39Z</time>
      </trkpt>
      <trkpt lat="46.434341864660382" lon="8.430498680099845">
        <ele>2163.0999999999999</ele>
        <time>2012-03-01T12:27:43Z</time>
      </trkpt>
      <trkpt lat="46.434310264885426" lon="8.430494908243418">
        <ele>2163.5799999999999</ele>
        <time>2012-03-01T12:27:46Z</time>
      </trkpt>
      <trkpt lat="46.434180680662394" lon="8.430502619594336">
        <ele>2163.5799999999999</ele>
        <time>2012-03-01T12:27:59Z</time>
      </trkpt>
      <trkpt lat="46.434140531346202" lon="8.430493650957942">
        <ele>2163.5799999999999</ele>
        <time>2012-03-01T12:28:03Z</time>
      </trkpt>
      <trkpt lat="46.434074565768242" lon="8.430472444742918">
        <ele>2163.5799999999999</ele>
        <time>2012-03-01T12:28:10Z</time>
      </trkpt>
      <trkpt lat="46.434041038155556" lon="8.430445622652769">
        <ele>2163.5799999999999</ele>
        <time>2012-03-01T12:28:25Z</time>
      </trkpt>
      <trkpt lat="46.434002984315157" lon="8.430448975414038">
        <ele>2163.0999999999999</ele>
        <time>2012-03-01T12:28:29Z</time>
      </trkpt>
      <trkpt lat="46.43393374979496" lon="8.430441347882152">
        <ele>2163.0999999999999</ele>
        <time>2012-03-01T12:28:36Z</time>
      </trkpt>
      <trkpt lat="46.433821683749557" lon="8.430420896038413">
        <ele>2163.0999999999999</ele>
        <time>2012-03-01T12:28:48Z</time>
      </trkpt>
      <trkpt lat="46.433785473927855" lon="8.430417208001018">
        <ele>2163.0999999999999</ele>
        <time>2012-03-01T12:28:51Z</time>
      </trkpt>
      <trkpt lat="46.43376468680799" lon="8.430425086989999">
        <ele>2163.0999999999999</ele>
        <time>2012-03-01T12:28:53Z</time>
      </trkpt>
      <trkpt lat="46.433663684874773" lon="8.43040756881237">
        <ele>2162.6199999999999</ele>
        <time>2012-03-01T12:29:04Z</time>
      </trkpt>
      <trkpt lat="46.433635521680117" lon="8.430415699258447">
        <ele>2162.6199999999999</ele>
        <time>2012-03-01T12:29:07Z</time>
      </trkpt>
      <trkpt lat="46.433532759547234" lon="8.430397845804691">
        <ele>2163.0999999999999</ele>
        <time>2012-03-01T12:29:19Z</time>
      </trkpt>
      <trkpt lat="46.43350962549448" lon="8.430389380082488">
        <ele>2163.0999999999999</ele>
        <time>2012-03-01T12:29:21Z</time>
      </trkpt>
      <trkpt lat="46.433489844202995" lon="8.430389547720552">
        <ele>2163.0999999999999</ele>
        <time>2012-03-01T12:29:23Z</time>
      </trkpt>
      <trkpt lat="46.43344558775425" lon="8.430395917966962">
        <ele>2163.0999999999999</ele>
        <time>2012-03-01T12:29:27Z</time>
      </trkpt>
      <trkpt lat="46.433430751785636" lon="8.430390888825059">
        <ele>2163.0999999999999</ele>
        <time>2012-03-01T12:29:29Z</time>
      </trkpt>
      <trkpt lat="46.433301502838731" lon="8.43039583414793">
        <ele>2163.0999999999999</ele>
        <time>2012-03-01T12:29:44Z</time>
      </trkpt>
      <trkpt lat="46.433207290247083" lon="8.43040463514626">
        <ele>2162.6199999999999</ele>
        <time>2012-03-01T12:29:56Z</time>
      </trkpt>
      <trkpt lat="46.433183401823044" lon="8.430415028706193">
        <ele>2162.6199999999999</ele>
        <time>2012-03-01T12:29:59Z</time>
      </trkpt>
      <trkpt lat="46.433131266385317" lon="8.430418213829398">
        <ele>2163.0999999999999</ele>
        <time>2012-03-01T12:30:04Z</time>
      </trkpt>
      <trkpt lat="46.433103270828724" lon="8.43042366206646">
        <ele>2162.6199999999999</ele>
        <time>2012-03-01T12:30:07Z</time>
      </trkpt>
      <trkpt lat="46.433050632476807" lon="8.430430786684156">
        <ele>2162.6199999999999</ele>
        <time>2012-03-01T12:30:12Z</time>
      </trkpt>
      <trkpt lat="46.433023139834404" lon="8.430441347882152">
        <ele>2162.6199999999999</ele>
        <time>2012-03-01T12:30:15Z</time>
      </trkpt>
      <trkpt lat="46.43296773545444" lon="8.430469762533903">
        <ele>2162.6199999999999</ele>
        <time>2012-03-01T12:30:22Z</time>
      </trkpt>
      <trkpt lat="46.432939320802689" lon="8.430480491369963">
        <ele>2163.0999999999999</ele>
        <time>2012-03-01T12:30:25Z</time>
      </trkpt>
      <trkpt lat="46.432845694944263" lon="8.430556934326887">
        <ele>2163.0999999999999</ele>
        <time>2012-03-01T12:30:39Z</time>
      </trkpt>
      <trkpt lat="46.432790961116552" lon="8.43061032705009">
        <ele>2163.5799999999999</ele>
        <time>2012-03-01T12:30:47Z</time>
      </trkpt>
      <trkpt lat="46.432744357734919" lon="8.430639831349254">
        <ele>2163.5799999999999</ele>
        <time>2012-03-01T12:30:54Z</time>
      </trkpt>
      <trkpt lat="46.432706722989678" lon="8.430653242394328">
        <ele>2163.5799999999999</ele>
        <time>2012-03-01T12:30:58Z</time>
      </trkpt>
      <trkpt lat="46.432601949200034" lon="8.430683752521873">
        <ele>2163.0999999999999</ele>
        <time>2012-03-01T12:31:10Z</time>
      </trkpt>
      <trkpt lat="46.432575127109885" lon="8.430671766400337">
        <ele>2163.5799999999999</ele>
        <time>2012-03-01T12:31:13Z</time>
      </trkpt>
      <trkpt lat="46.432493822649121" lon="8.430581158027053">
        <ele>2163.0999999999999</ele>
        <time>2012-03-01T12:31:24Z</time>
      </trkpt>
      <trkpt lat="46.432416457682848" lon="8.430445706471801">
        <ele>2162.1399999999999</ele>
        <time>2012-03-01T12:31:38Z</time>
      </trkpt>
      <trkpt lat="46.432333057746291" lon="8.430312015116215">
        <ele>2161.6599999999999</ele>
        <time>2012-03-01T12:31:52Z</time>
      </trkpt>
      <trkpt lat="46.432267678901553" lon="8.430196261033416">
        <ele>2161.1799999999998</ele>
        <time>2012-03-01T12:32:04Z</time>
      </trkpt>
      <trkpt lat="46.432206323370337" lon="8.43009140342474">
        <ele>2161.1799999999998</ele>
        <time>2012-03-01T12:32:15Z</time>
      </trkpt>
      <trkpt lat="46.432140441611409" lon="8.430014289915562">
        <ele>2161.1799999999998</ele>
        <time>2012-03-01T12:32:24Z</time>
      </trkpt>
      <trkpt lat="46.432072129100561" lon="8.429903732612729">
        <ele>2160.2199999999998</ele>
        <time>2012-03-01T12:32:35Z</time>
      </trkpt>
      <trkpt lat="46.431982945650816" lon="8.429752187803388">
        <ele>2160.6999999999998</ele>
        <time>2012-03-01T12:32:49Z</time>
      </trkpt>
      <trkpt lat="46.43190641887486" lon="8.429641630500555">
        <ele>2160.6999999999998</ele>
        <time>2012-03-01T12:33:00Z</time>
      </trkpt>
      <trkpt lat="46.431815475225449" lon="8.429450606927276">
        <ele>2159.7399999999998</ele>
        <time>2012-03-01T12:33:16Z</time>
      </trkpt>
      <trkpt lat="46.431733248755336" lon="8.429280119016767">
        <ele>2159.7399999999998</ele>
        <time>2012-03-01T12:33:29Z</time>
      </trkpt>
      <trkpt lat="46.431707516312599" lon="8.429078701883555">
        <ele>2159.2600000000002</ele>
        <time>2012-03-01T12:33:43Z</time>
      </trkpt>
      <trkpt lat="46.431676167994738" lon="8.428871333599091">
        <ele>2159.2600000000002</ele>
        <time>2012-03-01T12:33:57Z</time>
      </trkpt>
      <trkpt lat="46.431604167446494" lon="8.428714256733656">
        <ele>2158.3000000000002</ele>
        <time>2012-03-01T12:34:10Z</time>
      </trkpt>
      <trkpt lat="46.431508865207434" lon="8.428579978644848">
        <ele>2157.3400000000001</ele>
        <time>2012-03-01T12:34:23Z</time>
      </trkpt>
      <trkpt lat="46.431412640959024" lon="8.428405215963721">
        <ele>2155.8899999999999</ele>
        <time>2012-03-01T12:34:38Z</time>
      </trkpt>
      <trkpt lat="46.431326391175389" lon="8.428235482424498">
        <ele>2153.9699999999998</ele>
        <time>2012-03-01T12:34:52Z</time>
      </trkpt>
      <trkpt lat="46.431302586570382" lon="8.428174713626504">
        <ele>2153.4899999999998</ele>
        <time>2012-03-01T12:34:56Z</time>
      </trkpt>
      <trkpt lat="46.43129856325686" lon="8.428151579573751">
        <ele>2153.4899999999998</ele>
        <time>2012-03-01T12:34:58Z</time>
      </trkpt>
      <trkpt lat="46.431271070614457" lon="8.428083937615156">
        <ele>2153.0100000000002</ele>
        <time>2012-03-01T12:35:03Z</time>
      </trkpt>
      <trkpt lat="46.431262604892254" lon="8.428063318133354">
        <ele>2153.0100000000002</ele>
        <time>2012-03-01T12:35:05Z</time>
      </trkpt>
      <trkpt lat="46.431266376748681" lon="8.428039345890284">
        <ele>2151.5700000000002</ele>
        <time>2012-03-01T12:35:16Z</time>
      </trkpt>
      <trkpt lat="46.431265119463205" lon="8.428028114140034">
        <ele>2151.5700000000002</ele>
        <time>2012-03-01T12:35:40Z</time>
      </trkpt>
      <trkpt lat="46.431265622377396" lon="8.428023084998131">
        <ele>2151.5700000000002</ele>
        <time>2012-03-01T12:35:52Z</time>
      </trkpt>
      <trkpt lat="46.431264700368047" lon="8.428040100261569">
        <ele>2153.0100000000002</ele>
        <time>2012-03-01T12:36:01Z</time>
      </trkpt>
      <trkpt lat="46.431261515244842" lon="8.42803917825222">
        <ele>2152.5300000000002</ele>
        <time>2012-03-01T12:36:06Z</time>
      </trkpt>
      <trkpt lat="46.431251959875226" lon="8.428027778863907">
        <ele>2152.5300000000002</ele>
        <time>2012-03-01T12:36:08Z</time>
      </trkpt>
      <trkpt lat="46.431234860792756" lon="8.428012020885944">
        <ele>2152.5300000000002</ele>
        <time>2012-03-01T12:36:10Z</time>
      </trkpt>
      <trkpt lat="46.431208122521639" lon="8.427977235987783">
        <ele>2152.0500000000002</ele>
        <time>2012-03-01T12:36:13Z</time>
      </trkpt>
      <trkpt lat="46.431177025660872" lon="8.42794437892735">
        <ele>2152.0500000000002</ele>
        <time>2012-03-01T12:36:16Z</time>
      </trkpt>
      <trkpt lat="46.431043837219477" lon="8.427860056981444">
        <ele>2151.0900000000001</ele>
        <time>2012-03-01T12:36:29Z</time>
      </trkpt>
      <trkpt lat="46.431009387597442" lon="8.42785251326859">
        <ele>2150.6100000000001</ele>
        <time>2012-03-01T12:36:32Z</time>
      </trkpt>
      <trkpt lat="46.430945266038179" lon="8.427829295396805">
        <ele>2149.6500000000001</ele>
        <time>2012-03-01T12:36:37Z</time>
      </trkpt>
      <trkpt lat="46.430908720940351" lon="8.42781437560916">
        <ele>2149.6500000000001</ele>
        <time>2012-03-01T12:36:40Z</time>
      </trkpt>
      <trkpt lat="46.43089204095304" lon="8.42781001701951">
        <ele>2149.6500000000001</ele>
        <time>2012-03-01T12:36:42Z</time>
      </trkpt>
      <trkpt lat="46.430744687095284" lon="8.427741369232535">
        <ele>2149.6500000000001</ele>
        <time>2012-03-01T12:36:56Z</time>
      </trkpt>
      <trkpt lat="46.43061401322484" lon="8.427634416148067">
        <ele>2149.1599999999999</ele>
        <time>2012-03-01T12:37:09Z</time>
      </trkpt>
      <trkpt lat="46.430580401793122" lon="8.427599798887968">
        <ele>2148.6799999999998</ele>
        <time>2012-03-01T12:37:12Z</time>
      </trkpt>
      <trkpt lat="46.43044101074338" lon="8.427420509979129">
        <ele>2146.2800000000002</ele>
        <time>2012-03-01T12:37:27Z</time>
      </trkpt>
      <trkpt lat="46.430322490632534" lon="8.427240885794163">
        <ele>2145.3200000000002</ele>
        <time>2012-03-01T12:37:42Z</time>
      </trkpt>
      <trkpt lat="46.430219896137714" lon="8.427019855007529">
        <ele>2143.4000000000001</ele>
        <time>2012-03-01T12:37:55Z</time>
      </trkpt>
      <trkpt lat="46.430132137611508" lon="8.42679220251739">
        <ele>2143.8800000000001</ele>
        <time>2012-03-01T12:38:10Z</time>
      </trkpt>
      <trkpt lat="46.430048821493983" lon="8.426546948030591">
        <ele>2142.9200000000001</ele>
        <time>2012-03-01T12:38:26Z</time>
      </trkpt>
      <trkpt lat="46.429963242262602" lon="8.42633044347167">
        <ele>2142.4400000000001</ele>
        <time>2012-03-01T12:38:42Z</time>
      </trkpt>
      <trkpt lat="46.429875232279301" lon="8.426161129027605">
        <ele>2142.4400000000001</ele>
        <time>2012-03-01T12:38:54Z</time>
      </trkpt>
      <trkpt lat="46.429762411862612" lon="8.425959041342139">
        <ele>2141.4699999999998</ele>
        <time>2012-03-01T12:39:09Z</time>
      </trkpt>
      <trkpt lat="46.42974715679884" lon="8.425934063270688">
        <ele>2141.4699999999998</ele>
        <time>2012-03-01T12:39:11Z</time>
      </trkpt>
      <trkpt lat="46.429647663608193" lon="8.425745721906424">
        <ele>2140.9899999999998</ele>
        <time>2012-03-01T12:39:25Z</time>
      </trkpt>
      <trkpt lat="46.429540039971471" lon="8.425541035830975">
        <ele>2140.5100000000002</ele>
        <time>2012-03-01T12:39:41Z</time>
      </trkpt>
      <trkpt lat="46.429437780752778" lon="8.425347413867712">
        <ele>2139.5500000000002</ele>
        <time>2012-03-01T12:39:55Z</time>
      </trkpt>
      <trkpt lat="46.429430237039924" lon="8.425307180732489">
        <ele>2139.5500000000002</ele>
        <time>2012-03-01T12:40:04Z</time>
      </trkpt>
      <trkpt lat="46.429431913420558" lon="8.425307013094425">
        <ele>2140.0300000000002</ele>
        <time>2012-03-01T12:40:05Z</time>
      </trkpt>
      <trkpt lat="46.429394530132413" lon="8.425232581794262">
        <ele>2138.5900000000001</ele>
        <time>2012-03-01T12:40:11Z</time>
      </trkpt>
      <trkpt lat="46.42935287207365" lon="8.425161419436336">
        <ele>2138.1100000000001</ele>
        <time>2012-03-01T12:40:17Z</time>
      </trkpt>
      <trkpt lat="46.429316159337759" lon="8.425098471343517">
        <ele>2137.6300000000001</ele>
        <time>2012-03-01T12:40:22Z</time>
      </trkpt>
      <trkpt lat="46.429229658097029" lon="8.424899065867066">
        <ele>2136.1900000000001</ele>
        <time>2012-03-01T12:40:36Z</time>
      </trkpt>
      <trkpt lat="46.429229909554124" lon="8.424646267667413">
        <ele>2135.23</ele>
        <time>2012-03-01T12:40:52Z</time>
      </trkpt>
      <trkpt lat="46.429235357791185" lon="8.424628078937531">
        <ele>2135.71</ele>
        <time>2012-03-01T12:40:53Z</time>
      </trkpt>
      <trkpt lat="46.42925220541656" lon="8.424553899094462">
        <ele>2134.7399999999998</ele>
        <time>2012-03-01T12:40:58Z</time>
      </trkpt>
      <trkpt lat="46.429345244541764" lon="8.424344770610333">
        <ele>2133.3000000000002</ele>
        <time>2012-03-01T12:41:12Z</time>
      </trkpt>
      <trkpt lat="46.429358068853617" lon="8.424233878031373">
        <ele>2132.3400000000001</ele>
        <time>2012-03-01T12:41:19Z</time>
      </trkpt>
      <trkpt lat="46.429359745234251" lon="8.423997089266777">
        <ele>2130.4200000000001</ele>
        <time>2012-03-01T12:41:34Z</time>
      </trkpt>
      <trkpt lat="46.429314482957125" lon="8.423765832558274">
        <ele>2128.98</ele>
        <time>2012-03-01T12:41:49Z</time>
      </trkpt>
      <trkpt lat="46.429266957566142" lon="8.423632141202688">
        <ele>2128.5</ele>
        <time>2012-03-01T12:41:58Z</time>
      </trkpt>
      <trkpt lat="46.429246757179499" lon="8.423496270552278">
        <ele>2127.5300000000002</ele>
        <time>2012-03-01T12:42:07Z</time>
      </trkpt>
      <trkpt lat="46.429243655875325" lon="8.423434160649777">
        <ele>2127.0500000000002</ele>
        <time>2012-03-01T12:42:11Z</time>
      </trkpt>
      <trkpt lat="46.429268466308713" lon="8.423211202025414">
        <ele>2124.6500000000001</ele>
        <time>2012-03-01T12:42:27Z</time>
      </trkpt>
      <trkpt lat="46.429270058870316" lon="8.423196533694863">
        <ele>2124.6500000000001</ele>
        <time>2012-03-01T12:42:28Z</time>
      </trkpt>
      <trkpt lat="46.429258994758129" lon="8.423132915049791">
        <ele>2124.6500000000001</ele>
        <time>2012-03-01T12:42:33Z</time>
      </trkpt>
      <trkpt lat="46.429260754957795" lon="8.423092346638441">
        <ele>2124.1700000000001</ele>
        <time>2012-03-01T12:42:36Z</time>
      </trkpt>
      <trkpt lat="46.429235609248281" lon="8.422886487096548">
        <ele>2123.21</ele>
        <time>2012-03-01T12:42:51Z</time>
      </trkpt>
      <trkpt lat="46.429232591763139" lon="8.422874920070171">
        <ele>2123.21</ele>
        <time>2012-03-01T12:42:52Z</time>
      </trkpt>
      <trkpt lat="46.42921113409102" lon="8.422704767435789">
        <ele>2119.8400000000001</ele>
        <time>2012-03-01T12:43:06Z</time>
      </trkpt>
      <trkpt lat="46.429205350577831" lon="8.422692781314254">
        <ele>2119.8400000000001</ele>
        <time>2012-03-01T12:43:07Z</time>
      </trkpt>
      <trkpt lat="46.429178528487682" lon="8.422669898718596">
        <ele>2119.3600000000001</ele>
        <time>2012-03-01T12:43:11Z</time>
      </trkpt>
      <trkpt lat="46.429144078865647" lon="8.422666545957327">
        <ele>2117.9200000000001</ele>
        <time>2012-03-01T12:43:15Z</time>
      </trkpt>
      <trkpt lat="46.42912220209837" lon="8.422667048871517">
        <ele>2117.9200000000001</ele>
        <time>2012-03-01T12:43:17Z</time>
      </trkpt>
      <trkpt lat="46.429095966741443" lon="8.422668976709247">
        <ele>2116.96</ele>
        <time>2012-03-01T12:43:20Z</time>
      </trkpt>
      <trkpt lat="46.429079454392195" lon="8.422661349177361">
        <ele>2116.48</ele>
        <time>2012-03-01T12:43:22Z</time>
      </trkpt>
      <trkpt lat="46.429064450785518" lon="8.422664366662502">
        <ele>2116</ele>
        <time>2012-03-01T12:43:24Z</time>
      </trkpt>
      <trkpt lat="46.429048273712397" lon="8.422663444653153">
        <ele>2115.04</ele>
        <time>2012-03-01T12:43:26Z</time>
      </trkpt>
      <trkpt lat="46.428995886817575" lon="8.422662271186709">
        <ele>2114.0799999999999</ele>
        <time>2012-03-01T12:43:32Z</time>
      </trkpt>
      <trkpt lat="46.428903434425592" lon="8.422639556229115">
        <ele>2110.23</ele>
        <time>2012-03-01T12:43:45Z</time>
      </trkpt>
      <trkpt lat="46.428870325908065" lon="8.422652631998062">
        <ele>2108.3099999999999</ele>
        <time>2012-03-01T12:43:49Z</time>
      </trkpt>
      <trkpt lat="46.42876697704196" lon="8.422626061365008">
        <ele>2106.3899999999999</ele>
        <time>2012-03-01T12:44:02Z</time>
      </trkpt>
      <trkpt lat="46.428733617067337" lon="8.422579457983375">
        <ele>2105.9099999999999</ele>
        <time>2012-03-01T12:44:14Z</time>
      </trkpt>
      <trkpt lat="46.42872741445899" lon="8.422576943412423">
        <ele>2105.9099999999999</ele>
        <time>2012-03-01T12:44:30Z</time>
      </trkpt>
      <trkpt lat="46.428725486621261" lon="8.422572333365679">
        <ele>2105.9099999999999</ele>
        <time>2012-03-01T12:44:44Z</time>
      </trkpt>
      <trkpt lat="46.428718445822597" lon="8.422558000311256">
        <ele>2105.4200000000001</ele>
        <time>2012-03-01T12:44:47Z</time>
      </trkpt>
      <trkpt lat="46.428739400580525" lon="8.422433193773031">
        <ele>2104.46</ele>
        <time>2012-03-01T12:45:00Z</time>
      </trkpt>
      <trkpt lat="46.428731186315417" lon="8.422307632863522">
        <ele>2103.98</ele>
        <time>2012-03-01T12:45:15Z</time>
      </trkpt>
      <trkpt lat="46.428729509934783" lon="8.422259772196412">
        <ele>2103.5</ele>
        <time>2012-03-01T12:45:18Z</time>
      </trkpt>
      <trkpt lat="46.428741496056318" lon="8.42215214855969">
        <ele>2101.5799999999999</ele>
        <time>2012-03-01T12:45:26Z</time>
      </trkpt>
      <trkpt lat="46.428724229335785" lon="8.421989791095257">
        <ele>2099.1799999999998</ele>
        <time>2012-03-01T12:45:40Z</time>
      </trkpt>
      <trkpt lat="46.428730431944132" lon="8.421990713104606">
        <ele>2099.1799999999998</ele>
        <time>2012-03-01T12:45:44Z</time>
      </trkpt>
      <trkpt lat="46.428706208243966" lon="8.421963891014457">
        <ele>2098.21</ele>
        <time>2012-03-01T12:45:48Z</time>
      </trkpt>
      <trkpt lat="46.428672848269343" lon="8.421937823295593">
        <ele>2097.25</ele>
        <time>2012-03-01T12:45:57Z</time>
      </trkpt>
      <trkpt lat="46.428598836064339" lon="8.421994401142001">
        <ele>2096.29</ele>
        <time>2012-03-01T12:46:06Z</time>
      </trkpt>
      <trkpt lat="46.428593387827277" lon="8.422033125534654">
        <ele>2096.29</ele>
        <time>2012-03-01T12:46:09Z</time>
      </trkpt>
      <trkpt lat="46.428594477474689" lon="8.422130942344666">
        <ele>2095.8099999999999</ele>
        <time>2012-03-01T12:46:15Z</time>
      </trkpt>
      <trkpt lat="46.428577965125442" lon="8.422313751652837">
        <ele>2094.8499999999999</ele>
        <time>2012-03-01T12:46:27Z</time>
      </trkpt>
      <trkpt lat="46.428572684526443" lon="8.422368317842484">
        <ele>2094.3699999999999</ele>
        <time>2012-03-01T12:46:31Z</time>
      </trkpt>
      <trkpt lat="46.42857008613646" lon="8.422456327825785">
        <ele>2093.4099999999999</ele>
        <time>2012-03-01T12:46:36Z</time>
      </trkpt>
      <trkpt lat="46.428563799709082" lon="8.422658080235124">
        <ele>2092.4499999999998</ele>
        <time>2012-03-01T12:46:48Z</time>
      </trkpt>
      <trkpt lat="46.428566817194223" lon="8.422824293375015">
        <ele>2091</ele>
        <time>2012-03-01T12:46:58Z</time>
      </trkpt>
      <trkpt lat="46.428577210754156" lon="8.422876428812742">
        <ele>2091</ele>
        <time>2012-03-01T12:47:02Z</time>
      </trkpt>
      <trkpt lat="46.428601685911417" lon="8.422946585342288">
        <ele>2090.04</ele>
        <time>2012-03-01T12:47:06Z</time>
      </trkpt>
      <trkpt lat="46.428633956238627" lon="8.423069296404719">
        <ele>2088.5999999999999</ele>
        <time>2012-03-01T12:47:14Z</time>
      </trkpt>
      <trkpt lat="46.428643679246306" lon="8.423118162900209">
        <ele>2088.5999999999999</ele>
        <time>2012-03-01T12:47:17Z</time>
      </trkpt>
      <trkpt lat="46.428659353405237" lon="8.423157809302211">
        <ele>2088.1199999999999</ele>
        <time>2012-03-01T12:47:20Z</time>
      </trkpt>
      <trkpt lat="46.428665723651648" lon="8.42318756505847">
        <ele>2087.6399999999999</ele>
        <time>2012-03-01T12:47:22Z</time>
      </trkpt>
      <trkpt lat="46.428687516599894" lon="8.423342546448112">
        <ele>2085.7199999999998</ele>
        <time>2012-03-01T12:47:31Z</time>
      </trkpt>
      <trkpt lat="46.428685756400228" lon="8.423388982191682">
        <ele>2083.79</ele>
        <time>2012-03-01T12:47:34Z</time>
      </trkpt>
      <trkpt lat="46.428704364225268" lon="8.423512196168304">
        <ele>2081.8699999999999</ele>
        <time>2012-03-01T12:47:41Z</time>
      </trkpt>
      <trkpt lat="46.428677793592215" lon="8.423723671585321">
        <ele>2078.9899999999998</ele>
        <time>2012-03-01T12:47:54Z</time>
      </trkpt>
      <trkpt lat="46.428659856319427" lon="8.423829870298505">
        <ele>2078.0300000000002</ele>
        <time>2012-03-01T12:48:00Z</time>
      </trkpt>
      <trkpt lat="46.42859204672277" lon="8.423984013497829">
        <ele>2076.5900000000001</ele>
        <time>2012-03-01T12:48:11Z</time>
      </trkpt>
      <trkpt lat="46.428542677313089" lon="8.424034304916859">
        <ele>2075.6199999999999</ele>
        <time>2012-03-01T12:48:16Z</time>
      </trkpt>
      <trkpt lat="46.428432371467352" lon="8.424123404547572">
        <ele>2075.1399999999999</ele>
        <time>2012-03-01T12:48:28Z</time>
      </trkpt>
      <trkpt lat="46.428329776972532" lon="8.424186604097486">
        <ele>2074.6599999999999</ele>
        <time>2012-03-01T12:48:39Z</time>
      </trkpt>
      <trkpt lat="46.428314270451665" lon="8.424201356247068">
        <ele>2074.6599999999999</ele>
        <time>2012-03-01T12:48:41Z</time>
      </trkpt>
      <trkpt lat="46.428280659019947" lon="8.424227759242058">
        <ele>2073.6999999999998</ele>
        <time>2012-03-01T12:48:45Z</time>
      </trkpt>
      <trkpt lat="46.428151577711105" lon="8.424273608252406">
        <ele>2071.3000000000002</ele>
        <time>2012-03-01T12:48:56Z</time>
      </trkpt>
      <trkpt lat="46.42809952609241" lon="8.424288192763925">
        <ele>2070.3400000000001</ele>
        <time>2012-03-01T12:49:01Z</time>
      </trkpt>
      <trkpt lat="46.42804772593081" lon="8.424283750355244">
        <ele>2068.8899999999999</ele>
        <time>2012-03-01T12:49:06Z</time>
      </trkpt>
      <trkpt lat="46.428029956296086" lon="8.424287773668766">
        <ele>2068.4099999999999</ele>
        <time>2012-03-01T12:49:08Z</time>
      </trkpt>
      <trkpt lat="46.428000200539827" lon="8.424300346523523">
        <ele>2067.9299999999998</ele>
        <time>2012-03-01T12:49:11Z</time>
      </trkpt>
      <trkpt lat="46.427881764248013" lon="8.424295149743557">
        <ele>2064.5700000000002</ele>
        <time>2012-03-01T12:49:23Z</time>
      </trkpt>
      <trkpt lat="46.42786055803299" lon="8.424303280189633">
        <ele>2064.0900000000001</ele>
        <time>2012-03-01T12:49:25Z</time>
      </trkpt>
      <trkpt lat="46.427774056792259" lon="8.424295987933874">
        <ele>2061.1999999999998</ele>
        <time>2012-03-01T12:49:35Z</time>
      </trkpt>
      <trkpt lat="46.427673222497106" lon="8.424292216077447">
        <ele>2057.3600000000001</ele>
        <time>2012-03-01T12:49:46Z</time>
      </trkpt>
      <trkpt lat="46.42760306596756" lon="8.424291126430035">
        <ele>2054.96</ele>
        <time>2012-03-01T12:49:54Z</time>
      </trkpt>
      <trkpt lat="46.427585212513804" lon="8.424282325431705">
        <ele>2053.9899999999998</ele>
        <time>2012-03-01T12:49:56Z</time>
      </trkpt>
      <trkpt lat="46.427540453150868" lon="8.424261873587966">
        <ele>2053.0300000000002</ele>
        <time>2012-03-01T12:50:00Z</time>
      </trkpt>
      <trkpt lat="46.427509523928165" lon="8.424241421744227">
        <ele>2051.5900000000001</ele>
        <time>2012-03-01T12:50:03Z</time>
      </trkpt>
      <trkpt lat="46.427409444004297" lon="8.424203116446734">
        <ele>2047.75</ele>
        <time>2012-03-01T12:50:13Z</time>
      </trkpt>
      <trkpt lat="46.427337778732181" lon="8.424145197495818">
        <ele>2045.3399999999999</ele>
        <time>2012-03-01T12:50:21Z</time>
      </trkpt>
      <trkpt lat="46.427214061841369" lon="8.424072191119194">
        <ele>2041.98</ele>
        <time>2012-03-01T12:50:33Z</time>
      </trkpt>
      <trkpt lat="46.427116747945547" lon="8.424054002389312">
        <ele>2041.98</ele>
        <time>2012-03-01T12:50:44Z</time>
      </trkpt>
      <trkpt lat="46.427115658298135" lon="8.424053499475122">
        <ele>2041.98</ele>
        <time>2012-03-01T12:50:45Z</time>
      </trkpt>
      <trkpt lat="46.427034186199307" lon="8.424189873039722">
        <ele>2040.05</ele>
        <time>2012-03-01T12:51:01Z</time>
      </trkpt>
      <trkpt lat="46.427021194249392" lon="8.424220131710172">
        <ele>2040.05</ele>
        <time>2012-03-01T12:51:03Z</time>
      </trkpt>
      <trkpt lat="46.427007531747222" lon="8.424279894679785">
        <ele>2039.5699999999999</ele>
        <time>2012-03-01T12:51:07Z</time>
      </trkpt>
      <trkpt lat="46.426998730748892" lon="8.424356086179614">
        <ele>2039.5699999999999</ele>
        <time>2012-03-01T12:51:11Z</time>
      </trkpt>
      <trkpt lat="46.426972495391965" lon="8.424527496099472">
        <ele>2039.0899999999999</ele>
        <time>2012-03-01T12:51:22Z</time>
      </trkpt>
      <trkpt lat="46.426970399916172" lon="8.424592539668083">
        <ele>2038.1300000000001</ele>
        <time>2012-03-01T12:51:26Z</time>
      </trkpt>
      <trkpt lat="46.426959335803986" lon="8.424713155254722">
        <ele>2039.0899999999999</ele>
        <time>2012-03-01T12:51:34Z</time>
      </trkpt>
      <trkpt lat="46.426888173446059" lon="8.42479077167809">
        <ele>2039.0899999999999</ele>
        <time>2012-03-01T12:51:47Z</time>
      </trkpt>
      <trkpt lat="46.426863111555576" lon="8.424819940701127">
        <ele>2037.6500000000001</ele>
        <time>2012-03-01T12:51:52Z</time>
      </trkpt>
      <trkpt lat="46.426849197596312" lon="8.424833435565233">
        <ele>2037.1700000000001</ele>
        <time>2012-03-01T12:51:55Z</time>
      </trkpt>
      <trkpt lat="46.426812652498484" lon="8.424868220463395">
        <ele>2035.73</ele>
        <time>2012-03-01T12:51:59Z</time>
      </trkpt>
      <trkpt lat="46.42674408853054" lon="8.424875428900123">
        <ele>2032.8399999999999</ele>
        <time>2012-03-01T12:52:12Z</time>
      </trkpt>
      <trkpt lat="46.426741825416684" lon="8.424877775833011">
        <ele>2032.8399999999999</ele>
        <time>2012-03-01T12:52:13Z</time>
      </trkpt>
      <trkpt lat="46.426731515675783" lon="8.424864532426">
        <ele>2032.3599999999999</ele>
        <time>2012-03-01T12:52:16Z</time>
      </trkpt>
      <trkpt lat="46.426720200106502" lon="8.424838129431009">
        <ele>2031.8800000000001</ele>
        <time>2012-03-01T12:52:18Z</time>
      </trkpt>
      <trkpt lat="46.426709471270442" lon="8.424790184944868">
        <ele>2030.4400000000001</ele>
        <time>2012-03-01T12:52:25Z</time>
      </trkpt>
      <trkpt lat="46.426683152094483" lon="8.424697900190949">
        <ele>2027.0799999999999</ele>
        <time>2012-03-01T12:52:36Z</time>
      </trkpt>
      <trkpt lat="46.426658509299159" lon="8.424683064222336">
        <ele>2024.6700000000001</ele>
        <time>2012-03-01T12:52:47Z</time>
      </trkpt>
      <trkpt lat="46.42663948237896" lon="8.424660013988614">
        <ele>2023.23</ele>
        <time>2012-03-01T12:52:59Z</time>
      </trkpt>
      <trkpt lat="46.426609307527542" lon="8.424643250182271">
        <ele>2021.79</ele>
        <time>2012-03-01T12:53:04Z</time>
      </trkpt>
      <trkpt lat="46.426559016108513" lon="8.42459580861032">
        <ele>2018.4300000000001</ele>
        <time>2012-03-01T12:53:12Z</time>
      </trkpt>
      <trkpt lat="46.426533199846745" lon="8.424592455849052">
        <ele>2017.46</ele>
        <time>2012-03-01T12:53:16Z</time>
      </trkpt>
      <trkpt lat="46.426495146006346" lon="8.424596646800637">
        <ele>2016.02</ele>
        <time>2012-03-01T12:53:21Z</time>
      </trkpt>
      <trkpt lat="46.42648508772254" lon="8.42460410669446">
        <ele>2015.54</ele>
        <time>2012-03-01T12:53:23Z</time>
      </trkpt>
      <trkpt lat="46.426463210955262" lon="8.42458751052618">
        <ele>2014.5799999999999</ele>
        <time>2012-03-01T12:53:26Z</time>
      </trkpt>
      <trkpt lat="46.426412081345916" lon="8.42457820661366">
        <ele>2012.1800000000001</ele>
        <time>2012-03-01T12:53:32Z</time>
      </trkpt>
      <trkpt lat="46.426336141303182" lon="8.424562951549888">
        <ele>2009.29</ele>
        <time>2012-03-01T12:53:41Z</time>
      </trkpt>
      <trkpt lat="46.426326083019376" lon="8.42451861128211">
        <ele>2008.3299999999999</ele>
        <time>2012-03-01T12:53:44Z</time>
      </trkpt>
      <trkpt lat="46.42629599198699" lon="8.424396235495806">
        <ele>2004.97</ele>
        <time>2012-03-01T12:53:54Z</time>
      </trkpt>
      <trkpt lat="46.426291801035404" lon="8.424371592700481">
        <ele>2004.01</ele>
        <time>2012-03-01T12:53:56Z</time>
      </trkpt>
      <trkpt lat="46.426263554021716" lon="8.424279140308499">
        <ele>2002.0799999999999</ele>
        <time>2012-03-01T12:54:07Z</time>
      </trkpt>
      <trkpt lat="46.426263805478811" lon="8.424270255491138">
        <ele>2000.6400000000001</ele>
        <time>2012-03-01T12:54:10Z</time>
      </trkpt>
      <trkpt lat="46.426261374726892" lon="8.424264388158917">
        <ele>2000.1600000000001</ele>
        <time>2012-03-01T12:54:11Z</time>
      </trkpt>
      <trkpt lat="46.426246957853436" lon="8.424259023740888">
        <ele>2000.1600000000001</ele>
        <time>2012-03-01T12:54:13Z</time>
      </trkpt>
      <trkpt lat="46.426226338371634" lon="8.424279894679785">
        <ele>2000.6400000000001</ele>
        <time>2012-03-01T12:54:17Z</time>
      </trkpt>
      <trkpt lat="46.426168419420719" lon="8.424366563558579">
        <ele>2000.6400000000001</ele>
        <time>2012-03-01T12:54:29Z</time>
      </trkpt>
      <trkpt lat="46.426107482984662" lon="8.424383662641048">
        <ele>1999.2</ele>
        <time>2012-03-01T12:54:39Z</time>
      </trkpt>
      <trkpt lat="46.426081331446767" lon="8.424390787258744">
        <ele>1997.76</ele>
        <time>2012-03-01T12:54:49Z</time>
      </trkpt>
      <trkpt lat="46.426050318405032" lon="8.424405539408326">
        <ele>1996.8</ele>
        <time>2012-03-01T12:55:00Z</time>
      </trkpt>
      <trkpt lat="46.425996003672481" lon="8.424428505823016">
        <ele>1995.8299999999999</ele>
        <time>2012-03-01T12:55:07Z</time>
      </trkpt>
      <trkpt lat="46.425960045307875" lon="8.424390368163586">
        <ele>1993.9100000000001</ele>
        <time>2012-03-01T12:55:13Z</time>
      </trkpt>
      <trkpt lat="46.425935905426741" lon="8.42438131570816">
        <ele>1992.95</ele>
        <time>2012-03-01T12:55:16Z</time>
      </trkpt>
      <trkpt lat="46.425831886008382" lon="8.424414927139878">
        <ele>1990.0699999999999</ele>
        <time>2012-03-01T12:55:28Z</time>
      </trkpt>
      <trkpt lat="46.425763741135597" lon="8.424421129748225">
        <ele>1989.0999999999999</ele>
        <time>2012-03-01T12:55:35Z</time>
      </trkpt>
      <trkpt lat="46.425704481080174" lon="8.42441501095891">
        <ele>1987.1800000000001</ele>
        <time>2012-03-01T12:55:42Z</time>
      </trkpt>
      <trkpt lat="46.425678329542279" lon="8.424410652369261">
        <ele>1987.1800000000001</ele>
        <time>2012-03-01T12:55:45Z</time>
      </trkpt>
      <trkpt lat="46.425660392269492" lon="8.424408808350563">
        <ele>1986.22</ele>
        <time>2012-03-01T12:55:47Z</time>
      </trkpt>
      <trkpt lat="46.425635246559978" lon="8.42438911087811">
        <ele>1985.74</ele>
        <time>2012-03-01T12:55:50Z</time>
      </trkpt>
      <trkpt lat="46.425594678148627" lon="8.424389529973269">
        <ele>1984.78</ele>
        <time>2012-03-01T12:55:55Z</time>
      </trkpt>
      <trkpt lat="46.425500297918916" lon="8.42436564154923">
        <ele>1981.9000000000001</ele>
        <time>2012-03-01T12:56:07Z</time>
      </trkpt>
      <trkpt lat="46.425476912409067" lon="8.424350554123521">
        <ele>1980.9300000000001</ele>
        <time>2012-03-01T12:56:10Z</time>
      </trkpt>
      <trkpt lat="46.425426118075848" lon="8.424329599365592">
        <ele>1978.05</ele>
        <time>2012-03-01T12:56:21Z</time>
      </trkpt>
      <trkpt lat="46.425378173589706" lon="8.424310404807329">
        <ele>1976.6099999999999</ele>
        <time>2012-03-01T12:56:30Z</time>
      </trkpt>
      <trkpt lat="46.425358476117253" lon="8.424267070367932">
        <ele>1975.1700000000001</ele>
        <time>2012-03-01T12:56:34Z</time>
      </trkpt>
      <trkpt lat="46.42529234290123" lon="8.424215773120523">
        <ele>1972.28</ele>
        <time>2012-03-01T12:56:44Z</time>
      </trkpt>
      <trkpt lat="46.425202740356326" lon="8.424142431467772">
        <ele>1969.4000000000001</ele>
        <time>2012-03-01T12:56:55Z</time>
      </trkpt>
      <trkpt lat="46.425165273249149" lon="8.424040172249079">
        <ele>1966.03</ele>
        <time>2012-03-01T12:57:05Z</time>
      </trkpt>
      <trkpt lat="46.425162591040134" lon="8.42402458190918">
        <ele>1965.55</ele>
        <time>2012-03-01T12:57:06Z</time>
      </trkpt>
      <trkpt lat="46.425146078690886" lon="8.423972530290484">
        <ele>1964.1099999999999</ele>
        <time>2012-03-01T12:57:11Z</time>
      </trkpt>
      <trkpt lat="46.425091763958335" lon="8.423865912482142">
        <ele>1960.27</ele>
        <time>2012-03-01T12:57:22Z</time>
      </trkpt>
      <trkpt lat="46.425057481974363" lon="8.423791565001011">
        <ele>1957.3800000000001</ele>
        <time>2012-03-01T12:57:29Z</time>
      </trkpt>
      <trkpt lat="46.425009537488222" lon="8.423753762617707">
        <ele>1955.46</ele>
        <time>2012-03-01T12:57:36Z</time>
      </trkpt>
      <trkpt lat="46.424949774518609" lon="8.423630632460117">
        <ele>1952.0899999999999</ele>
        <time>2012-03-01T12:57:47Z</time>
      </trkpt>
      <trkpt lat="46.424932256340981" lon="8.423590734601021">
        <ele>1950.6500000000001</ele>
        <time>2012-03-01T12:57:51Z</time>
      </trkpt>
      <trkpt lat="46.424915324896574" lon="8.423557374626398">
        <ele>1950.1700000000001</ele>
        <time>2012-03-01T12:57:54Z</time>
      </trkpt>
      <trkpt lat="46.424904009327292" lon="8.423542622476816">
        <ele>1949.21</ele>
        <time>2012-03-01T12:57:56Z</time>
      </trkpt>
      <trkpt lat="46.424876851961017" lon="8.423500210046768">
        <ele>1948.25</ele>
        <time>2012-03-01T12:58:00Z</time>
      </trkpt>
      <trkpt lat="46.424830667674541" lon="8.423468274995685">
        <ele>1945.8499999999999</ele>
        <time>2012-03-01T12:58:07Z</time>
      </trkpt>
      <trkpt lat="46.424801414832473" lon="8.423444554209709">
        <ele>1944.4000000000001</ele>
        <time>2012-03-01T12:58:20Z</time>
      </trkpt>
      <trkpt lat="46.424793787300587" lon="8.423452014103532">
        <ele>1944.4000000000001</ele>
        <time>2012-03-01T12:58:21Z</time>
      </trkpt>
      <trkpt lat="46.424765540286899" lon="8.42353549785912">
        <ele>1943.4400000000001</ele>
        <time>2012-03-01T12:58:33Z</time>
      </trkpt>
      <trkpt lat="46.424787165597081" lon="8.423524936661124">
        <ele>1944.4000000000001</ele>
        <time>2012-03-01T12:59:00Z</time>
      </trkpt>
      <trkpt lat="46.424783812835813" lon="8.423529462888837">
        <ele>1943.9200000000001</ele>
        <time>2012-03-01T12:59:04Z</time>
      </trkpt>
      <trkpt lat="46.424757745116949" lon="8.423475567251444">
        <ele>1944.4000000000001</ele>
        <time>2012-03-01T12:59:13Z</time>
      </trkpt>
      <trkpt lat="46.424714913591743" lon="8.423442877829075">
        <ele>1941.04</ele>
        <time>2012-03-01T12:59:21Z</time>
      </trkpt>
      <trkpt lat="46.424660850316286" lon="8.423373391851783">
        <ele>1937.6700000000001</ele>
        <time>2012-03-01T12:59:31Z</time>
      </trkpt>
      <trkpt lat="46.424654815346003" lon="8.423367692157626">
        <ele>1937.6700000000001</ele>
        <time>2012-03-01T12:59:32Z</time>
      </trkpt>
      <trkpt lat="46.424646181985736" lon="8.423357801511884">
        <ele>1937.1900000000001</ele>
        <time>2012-03-01T12:59:33Z</time>
      </trkpt>
      <trkpt lat="46.424594968557358" lon="8.423306923359633">
        <ele>1933.8299999999999</ele>
        <time>2012-03-01T12:59:42Z</time>
      </trkpt>
      <trkpt lat="46.424553142860532" lon="8.423252273350954">
        <ele>1932.3900000000001</ele>
        <time>2012-03-01T12:59:48Z</time>
      </trkpt>
      <trkpt lat="46.424541492015123" lon="8.423243137076497">
        <ele>1931.9100000000001</ele>
        <time>2012-03-01T12:59:50Z</time>
      </trkpt>
      <trkpt lat="46.424517771229148" lon="8.423204999417067">
        <ele>1929.98</ele>
        <time>2012-03-01T12:59:54Z</time>
      </trkpt>
      <trkpt lat="46.424485752359033" lon="8.423172729089856">
        <ele>1928.0599999999999</ele>
        <time>2012-03-01T13:00:01Z</time>
      </trkpt>
      <trkpt lat="46.424444345757365" lon="8.423142386600375">
        <ele>1925.6600000000001</ele>
        <time>2012-03-01T13:00:07Z</time>
      </trkpt>
      <trkpt lat="46.424405286088586" lon="8.423106176778674">
        <ele>1923.74</ele>
        <time>2012-03-01T13:00:12Z</time>
      </trkpt>
      <trkpt lat="46.42436153255403" lon="8.423012550920248">
        <ele>1919.8900000000001</ele>
        <time>2012-03-01T13:00:23Z</time>
      </trkpt>
      <trkpt lat="46.424352312460542" lon="8.423007437959313">
        <ele>1918.9300000000001</ele>
        <time>2012-03-01T13:00:24Z</time>
      </trkpt>
      <trkpt lat="46.424319539219141" lon="8.422941053286195">
        <ele>1916.04</ele>
        <time>2012-03-01T13:00:32Z</time>
      </trkpt>
      <trkpt lat="46.424264553934336" lon="8.422823203727603">
        <ele>1911.72</ele>
        <time>2012-03-01T13:00:42Z</time>
      </trkpt>
      <trkpt lat="46.424219878390431" lon="8.422733768820763">
        <ele>1909.3199999999999</ele>
        <time>2012-03-01T13:00:53Z</time>
      </trkpt>
      <trkpt lat="46.424220632761717" lon="8.422706443816423">
        <ele>1908.8299999999999</ele>
        <time>2012-03-01T13:00:56Z</time>
      </trkpt>
      <trkpt lat="46.424202276393771" lon="8.422621199861169">
        <ele>1906.4300000000001</ele>
        <time>2012-03-01T13:01:04Z</time>
      </trkpt>
      <trkpt lat="46.424193643033504" lon="8.422580882906914">
        <ele>1905.95</ele>
        <time>2012-03-01T13:01:16Z</time>
      </trkpt>
      <trkpt lat="46.424165479838848" lon="8.422578452154994">
        <ele>1906.4300000000001</ele>
        <time>2012-03-01T13:01:20Z</time>
      </trkpt>
      <trkpt lat="46.424081828445196" lon="8.422601167112589">
        <ele>1905.95</ele>
        <time>2012-03-01T13:01:33Z</time>
      </trkpt>
      <trkpt lat="46.424064813181758" lon="8.422609632834792">
        <ele>1904.99</ele>
        <time>2012-03-01T13:01:36Z</time>
      </trkpt>
      <trkpt lat="46.423958614468575" lon="8.422639472410083">
        <ele>1902.5899999999999</ele>
        <time>2012-03-01T13:01:47Z</time>
      </trkpt>
      <trkpt lat="46.423865994438529" lon="8.42259731143713">
        <ele>1899.7</ele>
        <time>2012-03-01T13:01:59Z</time>
      </trkpt>
      <trkpt lat="46.42382550984621" lon="8.422591863200069">
        <ele>1898.74</ele>
        <time>2012-03-01T13:02:04Z</time>
      </trkpt>
      <trkpt lat="46.423751413822174" lon="8.422532435506582">
        <ele>1895.8599999999999</ele>
        <time>2012-03-01T13:02:14Z</time>
      </trkpt>
      <trkpt lat="46.423709504306316" lon="8.422453897073865">
        <ele>1892.97</ele>
        <time>2012-03-01T13:02:23Z</time>
      </trkpt>
      <trkpt lat="46.423686034977436" lon="8.422461776062846">
        <ele>1891.53</ele>
        <time>2012-03-01T13:02:26Z</time>
      </trkpt>
      <trkpt lat="46.423671282827854" lon="8.422443252056837">
        <ele>1891.05</ele>
        <time>2012-03-01T13:02:28Z</time>
      </trkpt>
      <trkpt lat="46.423587631434202" lon="8.422441994771361">
        <ele>1888.6500000000001</ele>
        <time>2012-03-01T13:02:38Z</time>
      </trkpt>
      <trkpt lat="46.42356751486659" lon="8.422448029741645">
        <ele>1888.1700000000001</ele>
        <time>2012-03-01T13:02:40Z</time>
      </trkpt>
      <trkpt lat="46.423511607572436" lon="8.42248004861176">
        <ele>1886.72</ele>
        <time>2012-03-01T13:02:48Z</time>
      </trkpt>
      <trkpt lat="46.423419238999486" lon="8.422495890408754">
        <ele>1884.3199999999999</ele>
        <time>2012-03-01T13:02:59Z</time>
      </trkpt>
      <trkpt lat="46.423381520435214" lon="8.422479964792728">
        <ele>1882.8800000000001</ele>
        <time>2012-03-01T13:03:03Z</time>
      </trkpt>
      <trkpt lat="46.423313124105334" lon="8.422446772456169">
        <ele>1879.51</ele>
        <time>2012-03-01T13:03:13Z</time>
      </trkpt>
      <trkpt lat="46.423237100243568" lon="8.422444174066186">
        <ele>1877.5899999999999</ele>
        <time>2012-03-01T13:03:23Z</time>
      </trkpt>
      <trkpt lat="46.423154287040234" lon="8.422433193773031">
        <ele>1875.1900000000001</ele>
        <time>2012-03-01T13:03:36Z</time>
      </trkpt>
      <trkpt lat="46.423123190179467" lon="8.422385416924954">
        <ele>1874.71</ele>
        <time>2012-03-01T13:03:47Z</time>
      </trkpt>
      <trkpt lat="46.423110365867615" lon="8.422392876818776">
        <ele>1874.71</ele>
        <time>2012-03-01T13:04:04Z</time>
      </trkpt>
      <trkpt lat="46.423097793012857" lon="8.422394888475537">
        <ele>1874.23</ele>
        <time>2012-03-01T13:04:07Z</time>
      </trkpt>
      <trkpt lat="46.423080777749419" lon="8.422402264550328">
        <ele>1874.23</ele>
        <time>2012-03-01T13:04:10Z</time>
      </trkpt>
      <trkpt lat="46.423152610659599" lon="8.422367312014103">
        <ele>1874.71</ele>
        <time>2012-03-01T13:04:23Z</time>
      </trkpt>
      <trkpt lat="46.423110030591488" lon="8.42235934920609">
        <ele>1871.8199999999999</ele>
        <time>2012-03-01T13:04:33Z</time>
      </trkpt>
      <trkpt lat="46.423105001449585" lon="8.422356499359012">
        <ele>1871.8199999999999</ele>
        <time>2012-03-01T13:04:34Z</time>
      </trkpt>
      <trkpt lat="46.42307348549366" lon="8.422349458560348">
        <ele>1870.8599999999999</ele>
        <time>2012-03-01T13:04:43Z</time>
      </trkpt>
      <trkpt lat="46.423084633424878" lon="8.422246696427465">
        <ele>1867.98</ele>
        <time>2012-03-01T13:04:55Z</time>
      </trkpt>
      <trkpt lat="46.423088740557432" lon="8.422125829383731">
        <ele>1864.6099999999999</ele>
        <time>2012-03-01T13:05:06Z</time>
      </trkpt>
      <trkpt lat="46.423085136339068" lon="8.422115854918957">
        <ele>1864.1300000000001</ele>
        <time>2012-03-01T13:05:07Z</time>
      </trkpt>
      <trkpt lat="46.423067199066281" lon="8.422040082514286">
        <ele>1862.21</ele>
        <time>2012-03-01T13:05:14Z</time>
      </trkpt>
      <trkpt lat="46.423040628433228" lon="8.421968165785074">
        <ele>1860.29</ele>
        <time>2012-03-01T13:05:22Z</time>
      </trkpt>
      <trkpt lat="46.422992432489991" lon="8.421900440007448">
        <ele>1857.8900000000001</ele>
        <time>2012-03-01T13:05:30Z</time>
      </trkpt>
      <trkpt lat="46.422966197133064" lon="8.421892812475562">
        <ele>1856.9200000000001</ele>
        <time>2012-03-01T13:05:33Z</time>
      </trkpt>
      <trkpt lat="46.422902662307024" lon="8.421901613473892">
        <ele>1855</ele>
        <time>2012-03-01T13:05:41Z</time>
      </trkpt>
      <trkpt lat="46.422875253483653" lon="8.421916533261538">
        <ele>1854.52</ele>
        <time>2012-03-01T13:05:45Z</time>
      </trkpt>
      <trkpt lat="46.422817250713706" lon="8.421927932649851">
        <ele>1853.5599999999999</ele>
        <time>2012-03-01T13:05:53Z</time>
      </trkpt>
      <trkpt lat="46.422758074477315" lon="8.421930028125644">
        <ele>1851.1600000000001</ele>
        <time>2012-03-01T13:06:04Z</time>
      </trkpt>
      <trkpt lat="46.422692611813545" lon="8.421919802203775">
        <ele>1850.6800000000001</ele>
        <time>2012-03-01T13:06:11Z</time>
      </trkpt>
      <trkpt lat="46.422616085037589" lon="8.421932039782405">
        <ele>1848.75</ele>
        <time>2012-03-01T13:06:23Z</time>
      </trkpt>
      <trkpt lat="46.422561854124069" lon="8.421930028125644">
        <ele>1847.79</ele>
        <time>2012-03-01T13:06:29Z</time>
      </trkpt>
      <trkpt lat="46.422510389238596" lon="8.421954670920968">
        <ele>1846.8299999999999</ele>
        <time>2012-03-01T13:06:35Z</time>
      </trkpt>
      <trkpt lat="46.422472586855292" lon="8.421940924599767">
        <ele>1845.8699999999999</ele>
        <time>2012-03-01T13:06:40Z</time>
      </trkpt>
      <trkpt lat="46.422438388690352" lon="8.421880407258868">
        <ele>1842.98</ele>
        <time>2012-03-01T13:06:50Z</time>
      </trkpt>
      <trkpt lat="46.422429503872991" lon="8.421880155801773">
        <ele>1842.98</ele>
        <time>2012-03-01T13:06:51Z</time>
      </trkpt>
      <trkpt lat="46.42236546613276" lon="8.42188292182982">
        <ele>1840.5799999999999</ele>
        <time>2012-03-01T13:07:02Z</time>
      </trkpt>
      <trkpt lat="46.422358173877001" lon="8.421879485249519">
        <ele>1840.0999999999999</ele>
        <time>2012-03-01T13:07:03Z</time>
      </trkpt>
      <trkpt lat="46.422320874407887" lon="8.421862972900271">
        <ele>1839.1400000000001</ele>
        <time>2012-03-01T13:07:08Z</time>
      </trkpt>
      <trkpt lat="46.422271840274334" lon="8.421756774187088">
        <ele>1834.8099999999999</ele>
        <time>2012-03-01T13:07:18Z</time>
      </trkpt>
      <trkpt lat="46.422255663201213" lon="8.421742608770728">
        <ele>1834.8099999999999</ele>
        <time>2012-03-01T13:07:21Z</time>
      </trkpt>
      <trkpt lat="46.422198917716742" lon="8.421671614050865">
        <ele>1831.45</ele>
        <time>2012-03-01T13:07:32Z</time>
      </trkpt>
      <trkpt lat="46.422130521386862" lon="8.421621574088931">
        <ele>1828.0799999999999</ele>
        <time>2012-03-01T13:07:43Z</time>
      </trkpt>
      <trkpt lat="46.422105962410569" lon="8.4216024633497">
        <ele>1826.6400000000001</ele>
        <time>2012-03-01T13:07:48Z</time>
      </trkpt>
      <trkpt lat="46.422067070379853" lon="8.421585699543357">
        <ele>1824.24</ele>
        <time>2012-03-01T13:08:00Z</time>
      </trkpt>
      <trkpt lat="46.422030860558152" lon="8.421560721471906">
        <ele>1821.8399999999999</ele>
        <time>2012-03-01T13:08:12Z</time>
      </trkpt>
      <trkpt lat="46.421981155872345" lon="8.421534150838852">
        <ele>1818.95</ele>
        <time>2012-03-01T13:08:23Z</time>
      </trkpt>
      <trkpt lat="46.421923656016588" lon="8.42151403427124">
        <ele>1815.5899999999999</ele>
        <time>2012-03-01T13:08:33Z</time>
      </trkpt>
      <trkpt lat="46.421893732622266" lon="8.421504311263561">
        <ele>1814.1500000000001</ele>
        <time>2012-03-01T13:08:44Z</time>
      </trkpt>
      <trkpt lat="46.421888284385204" lon="8.421497521921992">
        <ele>1812.7</ele>
        <time>2012-03-01T13:08:48Z</time>
      </trkpt>
      <trkpt lat="46.42185140401125" lon="8.421482853591442">
        <ele>1811.26</ele>
        <time>2012-03-01T13:08:59Z</time>
      </trkpt>
      <trkpt lat="46.421798849478364" lon="8.421457707881928">
        <ele>1809.3399999999999</ele>
        <time>2012-03-01T13:09:11Z</time>
      </trkpt>
      <trkpt lat="46.421769764274359" lon="8.421457372605801">
        <ele>1807.9000000000001</ele>
        <time>2012-03-01T13:09:15Z</time>
      </trkpt>
      <trkpt lat="46.421702038496733" lon="8.421445637941361">
        <ele>1805.01</ele>
        <time>2012-03-01T13:09:26Z</time>
      </trkpt>
      <trkpt lat="46.421677647158504" lon="8.421438680961728">
        <ele>1803.5699999999999</ele>
        <time>2012-03-01T13:09:38Z</time>
      </trkpt>
      <trkpt lat="46.421635905280709" lon="8.421387635171413">
        <ele>1801.6500000000001</ele>
        <time>2012-03-01T13:09:47Z</time>
      </trkpt>
      <trkpt lat="46.421620985493064" lon="8.421347569674254">
        <ele>1799.73</ele>
        <time>2012-03-01T13:09:57Z</time>
      </trkpt>
      <trkpt lat="46.421614782884717" lon="8.421311527490616">
        <ele>1797.8</ele>
        <time>2012-03-01T13:10:08Z</time>
      </trkpt>
      <trkpt lat="46.421595001593232" lon="8.421238269656897">
        <ele>1795.4000000000001</ele>
        <time>2012-03-01T13:10:19Z</time>
      </trkpt>
      <trkpt lat="46.421581842005253" lon="8.421203652396798">
        <ele>1793</ele>
        <time>2012-03-01T13:10:27Z</time>
      </trkpt>
      <trkpt lat="46.421546302735806" lon="8.421149337664247">
        <ele>1790.5899999999999</ele>
        <time>2012-03-01T13:10:37Z</time>
      </trkpt>
      <trkpt lat="46.421530712395906" lon="8.421105584129691">
        <ele>1789.1500000000001</ele>
        <time>2012-03-01T13:10:47Z</time>
      </trkpt>
      <trkpt lat="46.421502130106091" lon="8.421062165871263">
        <ele>1787.23</ele>
        <time>2012-03-01T13:10:54Z</time>
      </trkpt>
      <trkpt lat="46.42148838378489" lon="8.420995278283954">
        <ele>1785.3099999999999</ele>
        <time>2012-03-01T13:11:00Z</time>
      </trkpt>
      <trkpt lat="46.421477319672704" lon="8.420959236100316">
        <ele>1784.3399999999999</ele>
        <time>2012-03-01T13:11:04Z</time>
      </trkpt>
      <trkpt lat="46.42146147787571" lon="8.420933838933706">
        <ele>1782.4200000000001</ele>
        <time>2012-03-01T13:11:07Z</time>
      </trkpt>
      <trkpt lat="46.421409845352173" lon="8.420847086235881">
        <ele>1779.54</ele>
        <time>2012-03-01T13:11:18Z</time>
      </trkpt>
      <trkpt lat="46.42139601521194" lon="8.420835351571441">
        <ele>1778.0999999999999</ele>
        <time>2012-03-01T13:11:21Z</time>
      </trkpt>
      <trkpt lat="46.421328457072377" lon="8.420725213363767">
        <ele>1776.1700000000001</ele>
        <time>2012-03-01T13:11:33Z</time>
      </trkpt>
      <trkpt lat="46.421243045479059" lon="8.420572578907013">
        <ele>1773.77</ele>
        <time>2012-03-01T13:11:48Z</time>
      </trkpt>
      <trkpt lat="46.421174984425306" lon="8.420392032712698">
        <ele>1770.8900000000001</ele>
        <time>2012-03-01T13:12:01Z</time>
      </trkpt>
      <trkpt lat="46.421166015788913" lon="8.420367809012532">
        <ele>1770.4100000000001</ele>
        <time>2012-03-01T13:12:03Z</time>
      </trkpt>
      <trkpt lat="46.421128464862704" lon="8.420253060758114">
        <ele>1768.48</ele>
        <time>2012-03-01T13:12:13Z</time>
      </trkpt>
      <trkpt lat="46.421080436557531" lon="8.420185083523393">
        <ele>1768</ele>
        <time>2012-03-01T13:12:26Z</time>
      </trkpt>
      <trkpt lat="46.421081777662039" lon="8.420174103230238">
        <ele>1766.5599999999999</ele>
        <time>2012-03-01T13:12:35Z</time>
      </trkpt>
      <trkpt lat="46.421077502891421" lon="8.420177204534411">
        <ele>1766.5599999999999</ele>
        <time>2012-03-01T13:13:09Z</time>
      </trkpt>
      <trkpt lat="46.421085381880403" lon="8.420187765732408">
        <ele>1766.5599999999999</ele>
        <time>2012-03-01T13:13:21Z</time>
      </trkpt>
      <trkpt lat="46.421083118766546" lon="8.420184245333076">
        <ele>1766.5599999999999</ele>
        <time>2012-03-01T13:13:30Z</time>
      </trkpt>
      <trkpt lat="46.421101475134492" lon="8.420156501233578">
        <ele>1767.52</ele>
        <time>2012-03-01T13:13:38Z</time>
      </trkpt>
      <trkpt lat="46.421083454042673" lon="8.420161781832576">
        <ele>1767.52</ele>
        <time>2012-03-01T13:13:52Z</time>
      </trkpt>
      <trkpt lat="46.421077502891421" lon="8.420136049389839">
        <ele>1767.52</ele>
        <time>2012-03-01T13:14:01Z</time>
      </trkpt>
      <trkpt lat="46.421057051047683" lon="8.420080645009875">
        <ele>1766.5599999999999</ele>
        <time>2012-03-01T13:14:06Z</time>
      </trkpt>
      <trkpt lat="46.421038191765547" lon="8.420035298913717">
        <ele>1766.0799999999999</ele>
        <time>2012-03-01T13:14:11Z</time>
      </trkpt>
      <trkpt lat="46.421005334705114" lon="8.419905714690685">
        <ele>1764.1600000000001</ele>
        <time>2012-03-01T13:14:23Z</time>
      </trkpt>
      <trkpt lat="46.420979266986251" lon="8.419755175709724">
        <ele>1762.71</ele>
        <time>2012-03-01T13:14:36Z</time>
      </trkpt>
      <trkpt lat="46.420949846506119" lon="8.419675715267658">
        <ele>1761.75</ele>
        <time>2012-03-01T13:14:49Z</time>
      </trkpt>
      <trkpt lat="46.42092696391046" lon="8.419654928147793">
        <ele>1761.27</ele>
        <time>2012-03-01T13:15:03Z</time>
      </trkpt>
      <trkpt lat="46.420856053009629" lon="8.419486368075013">
        <ele>1759.3499999999999</ele>
        <time>2012-03-01T13:15:17Z</time>
      </trkpt>
      <trkpt lat="46.420843228697777" lon="8.419453762471676">
        <ele>1758.8699999999999</ele>
        <time>2012-03-01T13:15:20Z</time>
      </trkpt>
      <trkpt lat="46.420816322788596" lon="8.419354101642966">
        <ele>1757.4300000000001</ele>
        <time>2012-03-01T13:15:30Z</time>
      </trkpt>
      <trkpt lat="46.420823447406292" lon="8.419224852696061">
        <ele>1756.47</ele>
        <time>2012-03-01T13:15:41Z</time>
      </trkpt>
      <trkpt lat="46.420894777402282" lon="8.419125359505415">
        <ele>1755.02</ele>
        <time>2012-03-01T13:15:55Z</time>
      </trkpt>
      <trkpt lat="46.420905338600278" lon="8.419077666476369">
        <ele>1754.54</ele>
        <time>2012-03-01T13:16:03Z</time>
      </trkpt>
      <trkpt lat="46.420851526781917" lon="8.419021004810929">
        <ele>1753.5799999999999</ele>
        <time>2012-03-01T13:16:10Z</time>
      </trkpt>
      <trkpt lat="46.420741137117147" lon="8.418943891301751">
        <ele>1752.6199999999999</ele>
        <time>2012-03-01T13:16:22Z</time>
      </trkpt>
      <trkpt lat="46.42061322927475" lon="8.418839704245329">
        <ele>1750.7</ele>
        <time>2012-03-01T13:16:36Z</time>
      </trkpt>
      <trkpt lat="46.420480627566576" lon="8.418716657906771">
        <ele>1748.78</ele>
        <time>2012-03-01T13:16:49Z</time>
      </trkpt>
      <trkpt lat="46.420410806313157" lon="8.418662594631314">
        <ele>1747.8099999999999</ele>
        <time>2012-03-01T13:16:59Z</time>
      </trkpt>
      <trkpt lat="46.420301171019673" lon="8.418582966551185">
        <ele>1746.8499999999999</ele>
        <time>2012-03-01T13:17:09Z</time>
      </trkpt>
      <trkpt lat="46.420224560424685" lon="8.418521946296096">
        <ele>1745.8900000000001</ele>
        <time>2012-03-01T13:17:16Z</time>
      </trkpt>
      <trkpt lat="46.42013537697494" lon="8.418488502502441">
        <ele>1744.45</ele>
        <time>2012-03-01T13:17:25Z</time>
      </trkpt>
      <trkpt lat="46.420107129961252" lon="8.418439636006951">
        <ele>1743.97</ele>
        <time>2012-03-01T13:17:29Z</time>
      </trkpt>
      <trkpt lat="46.420087600126863" lon="8.418425722047687">
        <ele>1744.45</ele>
        <time>2012-03-01T13:17:31Z</time>
      </trkpt>
      <trkpt lat="46.420055916532874" lon="8.418397223576903">
        <ele>1743.97</ele>
        <time>2012-03-01T13:17:35Z</time>
      </trkpt>
      <trkpt lat="46.420018365606666" lon="8.418389931321144">
        <ele>1743.97</ele>
        <time>2012-03-01T13:17:39Z</time>
      </trkpt>
      <trkpt lat="46.419911663979292" lon="8.418297981843352">
        <ele>1743.49</ele>
        <time>2012-03-01T13:17:50Z</time>
      </trkpt>
      <trkpt lat="46.41980211250484" lon="8.418205613270402">
        <ele>1742.05</ele>
        <time>2012-03-01T13:18:02Z</time>
      </trkpt>
      <trkpt lat="46.41971074976027" lon="8.418057672679424">
        <ele>1741.5699999999999</ele>
        <time>2012-03-01T13:18:14Z</time>
      </trkpt>
      <trkpt lat="46.419659284874797" lon="8.41787813231349">
        <ele>1741.0799999999999</ele>
        <time>2012-03-01T13:18:26Z</time>
      </trkpt>
      <trkpt lat="46.419663811102509" lon="8.417673194780946">
        <ele>1741.0799999999999</ele>
        <time>2012-03-01T13:18:39Z</time>
      </trkpt>
      <trkpt lat="46.419666493311524" lon="8.417656430974603">
        <ele>1741.0799999999999</ele>
        <time>2012-03-01T13:18:40Z</time>
      </trkpt>
      <trkpt lat="46.4196643140167" lon="8.417633464559913">
        <ele>1741.0799999999999</ele>
        <time>2012-03-01T13:18:42Z</time>
      </trkpt>
      <trkpt lat="46.419679820537567" lon="8.417518632486463">
        <ele>1740.5999999999999</ele>
        <time>2012-03-01T13:18:50Z</time>
      </trkpt>
      <trkpt lat="46.419692980125546" lon="8.417471023276448">
        <ele>1740.5999999999999</ele>
        <time>2012-03-01T13:18:54Z</time>
      </trkpt>
      <trkpt lat="46.419734051451087" lon="8.417355520650744">
        <ele>1741.0799999999999</ele>
        <time>2012-03-01T13:19:03Z</time>
      </trkpt>
      <trkpt lat="46.419740505516529" lon="8.417344372719526">
        <ele>1741.5699999999999</ele>
        <time>2012-03-01T13:19:19Z</time>
      </trkpt>
      <trkpt lat="46.4197454508394" lon="8.417347306385636">
        <ele>1741.0799999999999</ele>
        <time>2012-03-01T13:19:27Z</time>
      </trkpt>
      <trkpt lat="46.419770093634725" lon="8.417324339970946">
        <ele>1741.5699999999999</ele>
        <time>2012-03-01T13:19:30Z</time>
      </trkpt>
      <trkpt lat="46.419840417802334" lon="8.417254518717527">
        <ele>1741.0799999999999</ele>
        <time>2012-03-01T13:19:38Z</time>
      </trkpt>
      <trkpt lat="46.419943682849407" lon="8.417202802374959">
        <ele>1741.5699999999999</ele>
        <time>2012-03-01T13:19:49Z</time>
      </trkpt>
      <trkpt lat="46.419990286231041" lon="8.417168855667114">
        <ele>1742.05</ele>
        <time>2012-03-01T13:19:55Z</time>
      </trkpt>
      <trkpt lat="46.420104950666428" lon="8.417097358033061">
        <ele>1742.05</ele>
        <time>2012-03-01T13:20:08Z</time>
      </trkpt>
      <trkpt lat="46.420206874608994" lon="8.417048742994666">
        <ele>1742.05</ele>
        <time>2012-03-01T13:20:21Z</time>
      </trkpt>
      <trkpt lat="46.420205617323518" lon="8.417030973359942">
        <ele>1742.05</ele>
        <time>2012-03-01T13:20:23Z</time>
      </trkpt>
      <trkpt lat="46.420190278440714" lon="8.416955033317208">
        <ele>1742.05</ele>
        <time>2012-03-01T13:20:29Z</time>
      </trkpt>
      <trkpt lat="46.420178962871432" lon="8.416915135458112">
        <ele>1741.5699999999999</ele>
        <time>2012-03-01T13:20:33Z</time>
      </trkpt>
      <trkpt lat="46.420143088325858" lon="8.416856965050101">
        <ele>1742.05</ele>
        <time>2012-03-01T13:20:40Z</time>
      </trkpt>
      <trkpt lat="46.42007477581501" lon="8.416859060525894">
        <ele>1742.05</ele>
        <time>2012-03-01T13:20:49Z</time>
      </trkpt>
      <trkpt lat="46.42005130648613" lon="8.416865514591336">
        <ele>1741.5699999999999</ele>
        <time>2012-03-01T13:20:51Z</time>
      </trkpt>
      <trkpt lat="46.41999808140099" lon="8.416847158223391">
        <ele>1741.5699999999999</ele>
        <time>2012-03-01T13:20:57Z</time>
      </trkpt>
      <trkpt lat="46.4199164416641" lon="8.416839949786663">
        <ele>1740.5999999999999</ele>
        <time>2012-03-01T13:21:09Z</time>
      </trkpt>
      <trkpt lat="46.419934798032045" lon="8.41682804748416">
        <ele>1739.6400000000001</ele>
        <time>2012-03-01T13:21:23Z</time>
      </trkpt>
      <trkpt lat="46.419866066426039" lon="8.416825281456113">
        <ele>1740.5999999999999</ele>
        <time>2012-03-01T13:21:40Z</time>
      </trkpt>
      <trkpt lat="46.419864306226373" lon="8.416826454922557">
        <ele>1740.5999999999999</ele>
        <time>2012-03-01T13:21:48Z</time>
      </trkpt>
      <trkpt lat="46.419852823019028" lon="8.416835004463792">
        <ele>1740.1199999999999</ele>
        <time>2012-03-01T13:21:50Z</time>
      </trkpt>
      <trkpt lat="46.419716868549585" lon="8.41693458147347">
        <ele>1739.6400000000001</ele>
        <time>2012-03-01T13:22:05Z</time>
      </trkpt>
      <trkpt lat="46.419643107801676" lon="8.416961403563619">
        <ele>1740.1199999999999</ele>
        <time>2012-03-01T13:22:15Z</time>
      </trkpt>
      <trkpt lat="46.41961544752121" lon="8.417003564536572">
        <ele>1739.6400000000001</ele>
        <time>2012-03-01T13:22:25Z</time>
      </trkpt>
      <trkpt lat="46.419643610715866" lon="8.416964337229729">
        <ele>1739.6400000000001</ele>
        <time>2012-03-01T13:22:29Z</time>
      </trkpt>
      <trkpt lat="46.419659620150924" lon="8.416927708312869">
        <ele>1739.6400000000001</ele>
        <time>2012-03-01T13:22:42Z</time>
      </trkpt>
      <trkpt lat="46.419658279046416" lon="8.416934832930565">
        <ele>1740.1199999999999</ele>
        <time>2012-03-01T13:22:59Z</time>
      </trkpt>
      <trkpt lat="46.41966138035059" lon="8.416921924799681">
        <ele>1739.6400000000001</ele>
        <time>2012-03-01T13:23:01Z</time>
      </trkpt>
      <trkpt lat="46.419651070609689" lon="8.416934078559279">
        <ele>1739.6400000000001</ele>
        <time>2012-03-01T13:23:14Z</time>
      </trkpt>
      <trkpt lat="46.419647131115198" lon="8.416943633928895">
        <ele>1739.6400000000001</ele>
        <time>2012-03-01T13:23:27Z</time>
      </trkpt>
    </trkseg>
  </trk>

</gpx>